GFSNW_prec_radar_000.txt.gz
Reflectivity
-20 -17 -20 -20 -20 -20 -20 -20 -20 -20 -20 -20 -20 -20 -20 -20 -20 -20 -20 -20 -20 -20 -20 -20 -20 -20 -20 -20 -20 -20 -20 -20 -20 -20 -20 -20 -20 -20 -20 -20 -20 -20 -20 -20
-20 -20 -20 -20 -20 -20 -20 -20 -20 -20 -20 -20 -20 -20 -20 -20 -20 -20 -20 -20 -20 -20 -20 -20 -20 -20 -20 -20 -20 -20 -20 -20 -20 -20 -20 -20 -20 -20 -20 -20 -20 -20 -20 -20
8 -20 -20 -20 -20 -20 -20 -20 -20 -20 -20 -20 -20 -20 -20 -20 -20 -20 -20 -20 -20 -20 -20 -20 -20 -20 -20 -20 -20 -20 -20 -20 -20 -20 -20 -20 -20 -20 -20 -20 -20 -20 -20 -20
13 4 -20 -20 -20 -20 -20 -20 -20 -20 -20 -20 -20 -20 -20 -20 -20 -20 -20 -20 -20 -20 -20 -20 -20 -20 -20 -20 -20 -20 -20 -20 -20 -20 -20 -20 -20 -20 -20 -20 -20 -20 -20 -20
10 4 -18 -20 -20 -20 -20 -20 -20 -20 -20 -20 -20 -20 -20 -20 -20 -20 -20 -20 -20 -20 -20 -20 -20 -20 -20 -20 -20 -20 -20 -20 -20 -20 -20 -20 -20 -20 -20 -20 -20 -20 -20 -20
-19 7 -10 -20 -20 -20 -20 -20 -20 -20 -20 -20 -20 -20 -20 -20 -20 -20 -20 -20 -20 -20 -20 -20 -20 -20 -20 -20 -20 -20 -20 -20 -20 -20 -20 -20 -20 -20 -20 -20 -20 -20 -20 -20
-20 3 -10 -14 -20 -20 -20 -20 -20 -20 -20 -20 -20 -20 -20 -20 -20 -20 -20 -20 -20 -20 -20 -20 -20 -20 -20 -20 -20 -20 -20 -20 -20 -20 -20 -20 -20 -20 -20 -20 -20 -20 -20 -20
-20 -19 -0 9 -7 -18 -20 -20 -20 -20 -20 -20 -20 -20 -20 -20 -20 -20 -20 -20 -20 -20 -20 -20 -20 -20 -20 -20 -20 -20 -20 -20 -20 -20 -20 -20 -20 -20 -20 -20 -20 -20 -20 -20
-20 -20 -14 -20 -6 11 -17 -20 -1 -9 -19 -20 -20 -20 -20 -20 -20 -20 -20 -20 -20 -20 -20 -20 -20 -20 -20 -20 -20 -20 -20 -20 -20 -20 -15 -20 -20 -20 -20 -20 -20 -20 -20 -20
-3 -20 -20 -20 -20 5 -6 -20 -20 -13 -10 -15 -18 -20 -13 -12 -20 -7 -14 7 -18 -16 -11 -20 -20 -20 -20 -20 -20 -20 -19 -7 -20 -20 -8 -20 -20 -20 -20 -20 -20 -20 -20 -20
-20 -20 -18 -20 -20 -18 -9 -20 -20 -20 -20 -20 -20 -18 -15 14 -20 9 -10 -4 -12 -20 -20 4 -15 -20 -20 -20 -20 -20 -20 -20 -20 -12 -2 -20 -20 -20 -20 -20 -20 -20 -20 -20
-20 -20 -20 -20 -20 -6 7 -18 -20 -11 -8 -20 -20 -20 -20 -20 -18 -16 -19 -20 -20 -8 18 -11 8 -15 0 -20 -20 -20 -20 -20 -20 -20 -20 -20 -20 -20 -20 -20 -20 -20 -20 -20
-4 -20 -20 -19 -20 -9 8 -20 -19 8 8 -11 -20 -20 -20 -20 -20 -20 -20 -20 -20 -18 17 -5 -12 15 -12 -20 -20 -20 -20 -20 -20 -20 -20 -20 -20 -20 -20 -1 -20 -20 -13 -10
-20 -20 -12 6 -14 -3 17 -20 -20 -20 -15 -18 -20 -20 -20 -20 -20 -20 -20 -15 -11 2 -16 -19 -20 -13 -19 -20 -20 -20 -20 -19 -20 -20 -20 -20 -20 -20 -20 -20 -20 -16 -10 -19
-10 -20 -18 -5 -2 11 7 -13 -20 -20 -20 -13 -15 -20 -20 -20 -20 -20 -18 -19 -20 -20 -20 -20 -11 -11 -20 -20 -14 -6 -18 -20 -20 -20 -20 -20 -20 -20 -20 -20 -19 9 17 4
-20 -20 -20 -19 -6 6 -7 -10 -20 -20 -1 -2 -9 -20 -20 -20 -20 -20 -20 -20 -20 -20 -20 -20 -20 -20 -18 -3 -4 -12 -20 -20 -20 -20 -20 -20 -20 -20 -20 -20 -20 -20 -20 -20
5 5 1 -9 2 -14 -20 -18 -15 -1 16 15 5 -18 -20 -20 -20 -20 -20 -20 -20 -20 10 21 8 5 21 10 -1 -20 -20 -20 -20 -20 -18 -13 -20 -15 3 13 20 24 -0 -20
13 11 14 1 11 14 3 -4 16 14 11 11 7 1 -20 -20 -20 -20 -20 -20 -20 -16 -20 -16 -20 -9 17 24 -16 -20 -20 -20 -20 -20 -19 -17 -17 -15 -1 25 24 13 -3 -20
13 11 14 -2 0 12 -17 10 -3 5 7 -2 -5 -19 -20 -20 -20 -20 -20 -18 -5 -20 -11 -18 -20 -5 7 -16 -20 -20 -20 -20 -20 -20 -19 -13 -5 5 20 23 16 6 -2 -20
15 -2 -20 -20 -4 5 8 -6 -20 7 18 24 11 -20 -20 -20 -20 -16 -19 16 17 -4 -9 -13 16 12 1 -20 -20 -20 -20 -20 -20 -20 -20 -1 23 18 6 -2 -7 -20 -20 -20
6 -15 -20 -20 -14 -20 -20 -20 -20 -4 2 -6 -12 -10 -4 -13 -19 -20 -14 21 -4 -20 -20 -5 -20 -20 -20 -20 -20 -20 -20 -20 -20 -20 -3 17 -20 -20 -20 -20 -20 -20 -20 -20
-20 -20 -20 -20 -20 -20 -20 -20 -20 -20 -4 -2 -10 -20 -20 -20 -20 -20 -5 -16 -20 -19 -20 -13 -20 -20 -20 -20 -20 -20 -20 -20 -20 -18 -1 -14 -20 -20 -20 -20 -20 -20 -20 -20
-20 -19 -20 -20 -20 -20 -20 -20 -20 -16 -4 -14 -4 -18 -20 -19 -20 -20 -11 -20 -20 -20 -20 -20 -20 -20 -20 -20 -20 -20 -20 -20 -20 -20 -20 -20 -20 -20 -20 -20 -20 -20 -20 -20
-10 -6 -17 -20 -20 -20 -20 -20 -14 -14 -20 -20 -20 -20 -20 -20 -19 -17 -17 -6 -19 -20 -6 -20 -20 -20 -20 -20 -20 -20 -20 -20 -20 -20 -20 -20 -20 -20 -20 -20 -20 -20 -20 -20
-12 -19 -20 -20 -20 -20 -20 -20 -20 -20 -20 -20 -20 -20 -20 -17 -8 -20 6 -12 -20 -20 -20 -20 -20 -20 -20 -20 -20 -20 -20 -20 -20 -20 -20 -20 -20 -20 -20 -20 -20 -20 -20 -20
-20 -12 -20 -20 -20 -20 -20 -20 -20 -20 -20 -20 -20 -4 -2 -20 -6 10 -20 -20 -20 -20 -20 -20 -20 -20 -20 -20 -20 -20 -20 -20 -20 -20 -20 -20 -20 -20 -20 -20 -20 -20 -20 -20
5 -20 -20 -20 -20 -20 -20 -20 -20 -20 -20 -20 -20 -20 -20 5 -2 -20 -20 -20 -20 -20 -20 -20 -20 -20 -20 -20 -20 -20 -20 -20 -20 -20 -20 -20 -20 -20 -20 -20 -20 -20 -20 -20

GFSNW_prec_radar_003.txt.gz
Reflectivity
10 -20 -20 -20 -20 -20 -20 -20 -20 -20 -20 -20 -20 -20 -20 -20 -20 -20 -20 -20 -20 -20 -20 -20 -20 -20 -20 -20 -20 -20 -20 -20 -20 -20 -20 -20 -20 -20 -20 -20 -20 -20 -20 -20
-12 -10 -20 -20 -20 -20 -20 -20 -20 -20 -20 -20 -20 -20 -20 -20 -19 -20 -20 -20 -20 -20 -20 -20 -20 -20 -20 -20 -20 -20 -20 -20 -20 -20 -20 -20 -20 -20 -20 -20 -20 -20 -20 -20
-20 3 -20 -20 -20 -20 -20 -20 -20 -20 -20 -20 -20 -20 -20 -20 -20 -20 -20 -20 -20 -20 -20 -20 -20 -20 -20 -20 -20 -20 -20 -20 -20 -20 -20 -20 -20 -20 -20 -20 -20 -20 -20 -20
-20 -20 -16 -20 -20 -20 -20 -20 -20 -20 -20 -20 -20 -20 -20 -20 -20 -20 -20 -20 -20 -20 -20 -20 -20 -20 -20 -20 -20 -20 -20 -20 -20 -20 -20 -20 -20 -20 -20 -20 -20 -20 -20 -20
-20 -20 -11 -20 -20 -20 -20 -20 -20 -20 -20 -20 -20 -20 -20 -20 -20 -20 -20 -20 -20 -20 -20 -20 -20 -20 -20 -20 -20 -20 -20 -20 -20 -20 -20 -20 -20 -20 -20 -20 -20 -20 -20 -20
-20 -20 -20 -20 -20 -20 -20 -20 -20 -20 -20 -20 -20 -20 -20 -20 -20 -20 -20 -20 -20 -20 -20 -20 -20 -20 -20 -20 -20 -20 -20 -20 -20 -20 -20 -20 -20 -20 -20 -20 -20 -20 -20 -20
-9 -20 -20 -20 -20 -20 -20 -20 -20 -20 -20 -20 -20 -20 -20 -20 -20 -20 -20 -20 -20 -20 -20 -20 -20 -20 -20 -20 -20 -20 -20 -20 -20 -20 -20 -20 -20 -20 -20 -20 -20 -20 -20 -20
-1 -10 -20 -20 -20 -20 -20 -20 -20 -20 -20 -20 -20 -20 -20 -20 -20 -20 -20 -20 -20 -20 -20 -20 -20 -20 -20 -20 -20 -20 -20 -20 -20 -20 -20 -20 -20 -20 -20 -20 -20 -20 -20 -20
3 6 1 -19 -20 -20 -20 -20 -20 -20 -20 -20 -20 -20 -20 -20 -20 -20 -20 -20 -20 -20 -20 -20 -20 -20 -20 -20 -20 -20 -20 -20 -20 -20 -20 -20 -20 -20 -20 -20 -20 -20 -20 -20
-11 -2 9 7 -20 -20 -20 -20 -20 -20 -20 -20 -20 -20 -20 -20 -20 -20 -20 -20 -20 -20 -20 -20 -20 -20 -20 -20 -20 -20 -20 -20 -20 -20 -18 -20 -20 -20 -20 -20 -20 -20 -20 -20
12 9 -5 18 11 6 -14 -20 -20 -20 -20 -20 -20 -20 -20 -20 -20 -20 -20 -19 -18 -20 -19 -20 -20 -20 -20 -20 -20 -20 -20 -20 -20 -20 -20 -20 -20 -20 -20 -20 -20 -20 -20 -20
10 9 -16 -7 18 21 15 -8 -20 -20 -20 -20 -20 -20 -20 -20 -20 -20 6 -6 10 3 -20 -12 -1 -20 -20 -20 -20 -20 -20 -20 -20 -20 -20 -20 -20 -20 -20 -20 -20 -20 -20 -20
10 12 12 -5 7 7 18 -19 -17 13 -7 -20 -19 -20 -20 -20 -20 -20 -20 -20 -20 -20 -20 -20 -20 -20 -20 -20 -20 -20 -20 -20 -20 -20 -20 -20 -20 -20 -20 -20 -20 -20 -20 -9
-16 -1 13 -3 6 9 4 12 -18 -12 -12 -12 -20 -20 -20 -20 -20 -20 -20 -20 -20 -20 -20 -20 -20 -20 -20 -20 -20 -20 -20 -20 -20 -20 -20 -20 -20 -20 -15 -20 -20 -20 -20 -19
-2 -13 5 -14 7 13 12 -3 13 13 -7 0 4 -20 -20 -20 -20 -20 -20 -20 -20 -20 -20 -20 -18 -19 -20 -20 -20 -20 -20 -20 -20 -20 -20 -20 -20 -20 -20 -20 -20 -20 -20 -20
9 11 5 10 10 13 8 4 5 16 12 16 -0 -20 -20 -20 -20 -20 -19 -20 -1 -3 -19 4 0 -5 -16 -20 -6 -20 -20 -20 -20 -20 -20 -20 -20 -20 -20 -20 -20 -20 -20 -20
5 10 14 13 13 -0 -3 -17 -10 9 21 8 2 -3 -18 -18 -20 -17 9 10 -19 -14 11 0 8 0 2 -7 -11 -20 -20 -20 -20 -20 -19 -18 -5 -7 -20 -17 -19 -20 7 26
-8 6 14 14 5 2 12 3 11 14 15 -1 15 0 1 -11 -11 -18 -17 4 1 -16 -16 -4 -8 -17 -6 11 -20 -20 -20 -20 -20 -20 -10 -20 -20 -20 -20 -18 12 14 11 14
-14 8 10 7 3 7 -6 12 -9 -5 -18 -3 -7 -1 -2 -8 -20 -14 -15 -13 -1 -2 6 -20 -19 3 -8 -19 -20 -20 -20 -20 -20 -20 -20 -20 -20 -20 -20 -12 -3 1 -10 -18
14 -17 -20 -20 -14 9 5 -3 -20 12 18 7 -12 6 1 -14 -20 -13 -16 -10 10 -19 -20 -16 -14 -20 -20 -20 -20 -20 -20 -20 -20 -20 -20 -20 -20 -20 -20 -20 -20 -20 -20 -20
-15 -7 -20 -11 -13 -18 -20 -20 3 -18 -16 -20 -20 -3 1 -18 -20 -20 -20 4 -6 -16 -15 -4 -10 -20 -20 -20 -20 -20 -20 -20 -20 -20 -20 -20 -20 -20 -20 -20 -20 -20 -20 -20
-8 -20 -11 -14 -20 -20 -20 -10 -20 -20 -10 -0 11 -1 -10 -19 -9 -17 7 10 -2 -11 -20 -1 -17 -20 -20 -20 -20 -20 -20 -20 -20 -20 -20 -20 -20 -20 -15 -20 -20 -20 -20 -20
-20 -20 -20 -20 -8 7 2 -7 -10 -0 -3 -3 -8 -20 -20 -20 -20 9 2 -16 -7 -20 -18 -20 -20 -20 -20 -20 -20 -20 -20 -20 -20 -20 -20 -20 -20 -20 -20 -20 -20 -20 -20 -20
-20 -16 -16 -20 -2 -20 -20 4 10 12 9 -2 -17 -4 -20 -19 -13 -20 1 -16 -20 -17 -20 -20 -20 -20 -20 -20 -20 -20 -20 -20 -20 -20 -20 -20 -20 -20 -20 -20 -20 -20 -20 -20
-7 -11 -20 -20 -20 -20 -20 -2 12 11 3 -10 -16 -20 -20 -12 -16 -10 -2 -12 -20 -20 -20 -20 -20 -20 -20 -20 -20 -20 -20 -20 -20 -20 -20 -20 -20 -20 -20 -20 -20 -20 -20 -20
-4 -14 -11 -20 -20 -20 -3 11 11 3 -16 -20 -20 -20 -13 -17 -20 1 -20 -5 -20 -20 -20 -20 -20 -20 -20 -20 -20 -20 -20 -20 -20 -20 -20 -20 -20 -20 -20 -20 -20 -20 -20 -20
13 -18 -20 -20 -20 -20 3 11 6 -11 -20 -20 -20 -20 -20 -20 -2 -2 -20 -20 -20 -20 -20 -20 -20 -20 -20 -20 -20 -20 -20 -20 -20 -20 -20 -20 -20 -20 -20 -20 -20 -20 -20 -20

GFSNW_prec_radar_006.txt.gz
Reflectivity
-20 -20 -20 -20 -20 -20 -20 -20 -20 -20 -20 -20 -20 -20 -20 -20 -20 -20 -19 -9 -16 7 24 4 -5 -20 -4 -16 -20 -20 -20 -20 -20 -20 -20 -20 -20 -20 -20 -20 -20 -20 -20 -20
-20 -18 -20 -20 -20 -20 -20 -20 -20 -20 -20 -20 -20 -20 -20 -20 -20 -20 -20 -20 -20 -20 -20 -20 -20 -12 -20 -19 8 -7 -17 -20 -20 -20 -20 -20 -20 -20 -20 -20 -20 -20 -20 -20
-20 -20 -20 -20 -20 -20 -20 -20 -20 -20 -20 -20 -20 -20 -20 -20 -20 -20 -20 -20 -20 -20 -20 -20 -20 -20 -20 -20 -20 -20 -20 -20 -20 -20 -20 -20 -20 -20 -20 -20 -20 -20 -20 -20
-20 -20 -20 -20 -20 -20 -20 -20 -20 -20 -20 -20 -20 -20 -20 -20 -20 -20 -20 -20 -15 -20 -20 -20 -20 -20 -20 -20 -16 -20 -20 -20 -20 -20 -20 -20 -20 -20 -20 -20 -20 -20 -17 -20
-20 -20 -20 -20 -20 -20 -20 -20 -20 -20 -20 -20 -20 -20 -20 -20 -20 -20 -20 -20 -20 -20 -20 -20 -20 -20 -20 -20 -20 -20 -20 -20 -20 -20 -20 -20 -20 -20 -20 -20 -20 -20 -20 -20
-20 -20 -20 -20 -20 -20 -20 -20 -20 -20 -20 -20 -20 -20 -20 -20 -20 -20 -20 -20 -20 -20 -20 -20 -20 -20 -20 -20 -20 -20 -20 -20 -20 -20 -20 -20 -20 -20 -20 -20 -20 -20 -20 -20
2 -20 -20 -20 -20 -20 -20 -20 -20 -20 -20 -20 -20 -20 -20 -20 -20 -20 -20 -20 -20 -20 -20 -20 -20 -20 -20 -20 -20 -20 -20 -20 -20 -20 -20 -20 -20 -20 -20 -20 -20 -20 -20 -20
-11 1 -20 -20 -20 -20 -20 -20 -20 -20 -20 -20 -20 -20 -20 -20 -20 -20 -20 -20 -20 -20 -20 -20 -20 -20 -20 -20 -20 -20 -20 -20 -20 -20 -20 -20 -20 -20 -20 -20 -20 -20 -20 -20
-20 7 -4 -20 -20 -20 -20 -20 -20 -20 -20 -20 -20 -20 -20 -20 -20 -20 -20 -20 -20 -20 -20 -20 -20 -20 -20 -20 -20 -20 -20 -20 -20 -20 -20 -20 -20 -20 -20 -20 -20 -20 -20 -20
-11 12 10 -5 -20 -20 -20 -20 -20 -20 -20 -20 -20 -20 -20 -20 -20 -20 -20 -20 -20 -20 -20 -20 -20 -20 -20 -20 -20 -20 -20 -20 -20 -20 -20 -20 -20 -20 -20 -20 -20 -20 -20 -20
11 -14 12 10 -18 -7 -20 -20 -20 -20 -20 -20 -20 -20 -20 -20 -20 -20 -20 -20 -20 -20 -20 -20 -20 -20 -20 -20 -20 -20 -20 -20 -20 -20 -20 -20 -20 -20 -20 -20 -20 -20 -20 -20
12 7 -17 7 12 -1 -20 -17 -20 -20 -20 -20 -20 -20 -20 -20 -20 -15 1 -20 -20 -20 -20 -20 -20 -20 -20 -20 -20 -20 -20 -20 -20 -20 -20 -20 -20 -20 -20 -20 -20 -20 -20 -20
6 12 10 -20 2 2 5 -12 -19 -20 -20 -20 -20 -20 -20 -20 -20 -20 -20 -20 -20 -18 -20 -20 -20 -20 -20 -20 -20 -20 -20 -20 -20 -20 -20 -20 -20 -20 -20 -20 -20 -20 -20 -20
-20 -4 13 1 -5 12 10 -20 -20 -12 -20 -20 -20 -20 -20 -20 -20 -20 -20 -20 -20 -20 -20 -14 -2 -20 -20 -20 -20 -20 -20 -20 -20 -20 -20 -20 -20 -20 -20 -20 -20 -20 -20 -20
12 4 -13 13 9 13 12 7 -20 -1 -20 4 5 -20 -20 -20 -20 -20 -20 -20 -20 -20 -20 -20 -20 -13 16 -2 3 -20 -20 -20 -20 -20 -20 -20 -20 -20 -20 -20 -20 -20 -20 -20
11 11 -16 -10 7 -1 -6 10 15 22 19 -1 6 -20 -20 -20 -20 -20 -20 -20 -20 -20 -20 -11 14 -7 -10 6 -1 -20 -20 -20 -20 -20 -20 -20 -20 -20 -20 -20 -20 -20 -20 -20
12 3 9 2 -12 -10 -18 -4 -6 12 23 22 -4 1 -14 -20 -20 -20 -20 -20 -15 -17 14 6 3 5 9 13 -10 -20 -20 -20 -20 -20 -20 -20 -20 -20 -20 -20 -20 -4 -20 -20
8 12 15 8 12 7 -0 -3 0 15 15 16 6 -18 -20 -17 2 -4 -14 4 13 19 19 1 -6 -9 -3 -19 -20 -20 -20 -20 -20 -20 -20 -20 -20 -20 -20 -20 -20 -20 -20 -20
2 12 14 4 2 -20 -20 -6 6 7 18 -9 -9 -8 -10 -19 -8 6 3 -3 11 -7 -15 -15 -20 -18 -20 -20 -20 -20 -20 -20 -20 -20 -20 -20 -20 -20 -20 -20 -20 -20 -20 -20
12 -2 -19 -20 -20 -12 -20 -20 -20 -20 -12 2 -20 2 -3 -17 -20 -20 -20 -20 -20 -19 -9 -17 -16 -20 -20 -7 -2 -20 -20 -20 -20 -20 -20 -20 -20 -20 -20 -20 -20 -20 -20 -20
-5 -20 -20 -20 -8 -19 -20 -20 -20 -20 -20 -20 -10 4 18 -4 -20 -20 -20 -0 -12 -20 -15 -20 -16 -18 -19 3 -9 -20 -20 -20 -20 -20 -20 -20 -20 -20 -20 -20 -20 -20 -20 -20
1 -20 -20 -20 -20 -20 -20 -20 -20 -19 -5 -16 -2 3 11 7 -8 -20 -20 -20 -20 -20 -19 -16 -20 -17 -11 -13 -18 -20 -20 -20 -20 -20 -20 -20 -20 -20 -20 -20 -20 -20 -20 -20
-0 -18 -20 -20 -20 -20 -20 -20 -17 -4 16 1 -10 -16 -18 -19 -20 -20 -20 -20 -9 -20 -20 -20 -19 -17 -20 -20 -20 -20 -20 -20 -20 -20 -20 -20 -20 -20 -20 -20 -20 -20 -20 -20
9 -20 -20 -20 -20 -20 -20 -20 -16 -5 -10 -7 -19 -20 -20 -20 -20 -15 -20 2 -20 -8 -20 -18 -17 -20 -20 -20 -20 -20 -20 -20 -20 -20 -20 -20 -20 -20 -20 -20 -20 -20 -20 -20
-15 -20 -20 -20 -20 -20 -20 -20 -20 -20 -20 -20 -20 -20 -20 -20 -17 -20 -20 -12 -20 -16 -20 -20 -20 -20 -20 -20 -20 -20 -20 -20 -20 -20 -20 -20 -20 -20 -20 -20 -20 -20 -20 -20
-20 -20 -20 -20 -20 -20 -20 -1 -8 -20 -20 -20 -20 -20 -20 -20 -20 -5 -20 -20 -20 -15 -19 -20 -20 -20 -20 -20 -20 -20 -20 -20 -20 -20 -20 -20 -20 -20 -20 -20 -20 -20 -20 -20
-0 -7 -20 -20 -20 -20 -20 -20 -4 -11 -20 -20 -20 -20 -20 -20 -20 -20 -20 -20 -20 -20 -20 -20 -20 -20 -20 -20 -20 -20 -20 -20 -20 -20 -20 -20 -20 -20 -20 -20 -20 -20 -20 -20

GFSNW_prec_radar_009.txt.gz
Reflectivity
-20 -20 -20 -20 -20 -20 -20 -20 -20 -20 -20 -20 -20 -20 -20 -17 29 23 15 15 11 -12 -7 -17 7 9 -11 -20 -20 -20 -20 -20 -20 -20 -20 -20 -20 -20 -20 -20 -20 -20 -20 -20
-20 -20 -20 -20 -20 -20 -20 -20 -20 -20 -20 -20 -20 -20 -20 -20 -3 23 -8 14 -2 -20 -10 -18 2 -20 -3 4 -20 -20 -19 -20 -20 -20 -20 -20 -20 -20 -20 -20 -20 -20 -20 -20
-20 -20 -20 -20 -20 -20 -20 -20 -20 -20 -20 -20 -20 -20 -20 -20 -20 -18 -20 -20 -20 -8 14 9 -14 -20 -20 -16 -5 -20 -20 -20 -20 -20 -20 -20 -20 -20 -20 -20 -20 -20 -20 -20
-19 -20 -20 -20 -20 -20 -20 -20 -20 -20 -20 -20 -20 -20 -20 -20 -20 -20 -20 -13 -20 0 -20 -17 4 -15 -8 -20 -19 -1 -17 -16 -7 -20 -20 -20 -20 -20 -20 -20 -20 -20 -20 -20
4 -20 -20 -20 -20 -20 -20 -20 -20 -20 -20 -20 -20 -20 -20 -20 -13 8 -20 -6 -20 -20 11 11 -7 -5 -18 -11 -20 -20 -20 -20 -20 -20 -20 -20 -20 -20 -20 -20 -20 -20 -20 -20
-15 -5 -20 -20 -20 -20 -20 -20 -20 -20 -20 -20 -20 -20 -20 -20 -20 -5 -15 -20 -20 -20 -20 -18 -19 -20 -10 -14 -15 -20 -20 -20 -20 -20 -20 -20 -1 -16 -20 -20 -20 -20 -20 -20
-9 -19 -20 -20 -20 -20 -20 -20 -20 -20 -20 -20 -20 -20 -20 -20 -20 -18 -11 -13 -20 -20 -20 -20 -20 -20 -20 -20 -20 -20 -20 -20 -20 -20 -20 -20 -20 -20 -20 -20 -20 -20 -20 -20
9 -6 -20 -20 -20 -20 -20 -20 -20 -20 -20 -20 -20 -20 -20 -20 -20 -20 -20 -20 -20 -20 -20 -20 -20 -20 -20 -20 -20 -20 -20 -20 -20 -20 -20 -20 -20 -20 -20 -20 -20 -20 -20 -20
-3 11 -19 -20 -20 -20 -20 -20 -20 -20 -20 -20 -20 -20 -20 -20 -20 -20 -20 -20 -20 -20 -20 -20 -20 -20 -20 -20 -20 -20 -20 -20 -20 -20 -20 -20 -20 -20 -20 -20 -20 -20 -20 -20
-11 -14 -18 -20 -20 -20 -20 -20 -20 -20 -20 -20 -20 -20 -20 -20 -20 -20 -20 -20 -20 -20 -20 -20 -20 -20 -20 -20 -20 -20 -20 -20 -20 -20 -20 -20 -20 -20 -20 -20 -20 -20 -20 -20
-9 -3 -12 -13 -15 -20 -20 -20 -20 -20 -20 -20 -20 -20 -20 -20 -20 -20 -20 -20 -20 -18 -20 -20 -20 -20 -20 -20 -20 -20 -20 -20 -20 -20 -20 -20 -20 -20 -20 -20 -20 -20 -20 -20
-18 13 11 -20 -14 -10 -0 -20 -20 -20 -20 -20 -20 -20 -20 -20 -20 -20 -20 -20 -20 -20 -20 -20 -20 -20 -20 -20 -20 -20 -20 -20 -20 -20 -20 -20 -20 -20 -20 -20 -20 -20 -20 -20
-20 -6 -19 -2 -20 -10 -13 -17 -20 -20 -20 -20 -20 -20 -20 -20 -20 -20 -20 -20 -20 -20 -20 -20 -20 -20 -20 -20 -20 -20 -20 -20 -20 -20 -20 -20 -20 -20 -20 -20 -20 -20 -20 -20
-16 -20 -4 -13 -17 -13 9 -20 -20 -20 -20 -20 -20 -20 -20 -20 -20 -20 -20 -20 -20 -20 -20 -20 -20 -20 -20 -20 -20 -20 -20 -20 -20 -20 -20 -20 -20 -20 -20 -20 -20 -20 -20 -20
-4 8 2 -20 -15 5 5 -20 -20 -20 -20 -20 -20 -20 -20 -20 -20 -20 -20 -20 7 5 -9 -9 -20 -20 -20 -20 -20 -20 -20 -20 -20 -20 -20 -20 -20 -20 -20 -20 -20 -20 -20 -20
-18 7 12 7 6 11 -17 -20 -18 -7 -19 -20 -20 -20 -20 -20 -20 -20 -20 -20 -20 -20 -20 -20 -20 -20 -4 -19 -20 -20 -20 -20 -20 -20 -20 -20 -20 -20 -20 -20 -20 -20 -20 -20
-20 7 11 13 11 4 -10 3 -15 -2 -6 -3 -15 -18 -17 -17 -20 -20 -20 -20 -20 -20 -20 -20 -20 -11 5 -19 -20 -20 -20 -20 -20 -20 -20 -20 -20 -20 -20 -20 -20 -5 -20 -20
-20 -15 14 10 14 12 -6 3 10 5 4 -0 -20 -3 0 -18 -20 -18 -17 -12 -7 -4 -10 -8 -11 3 -8 -20 -20 -20 -20 -20 -20 -20 -20 -20 -20 -20 -20 -20 -20 -20 -20 -20
-5 -0 7 12 -20 -13 -19 8 18 11 1 -3 -11 -16 -4 -20 1 2 -18 -13 13 1 0 -3 -2 -11 -20 -20 -20 -20 -20 -20 -20 -20 -20 -20 -20 -20 -13 -19 -20 -20 -20 -20
11 -14 -20 -20 -4 10 -8 -7 1 8 22 -5 -20 -20 -20 -20 1 17 7 9 5 -2 19 6 22 7 -20 -20 -20 -20 -20 -20 -20 -20 -20 -20 -20 -20 -20 -20 -20 -20 -20 -20
12 -4 -19 -20 11 -13 -20 -20 -12 -16 -19 -20 -20 -20 -20 -20 -7 -12 -14 -20 -19 -18 -19 -20 -20 -20 -20 -5 -14 -20 -20 -20 -20 -20 -20 -20 -20 -20 -20 -20 -20 -20 -20 -20
4 -20 -20 -19 -17 -20 -20 -20 -20 -18 -20 -20 -20 -16 -4 -15 -20 -20 -16 -20 -20 -20 -18 -19 -20 -20 -20 -20 -20 -20 -20 -20 -20 -20 -20 -20 -20 -20 -20 -20 -20 -20 -20 -20
-4 -7 -12 -20 -20 -20 -20 -20 -20 -20 -20 -19 -20 -18 -8 -6 -12 -19 -12 -20 -18 -20 -20 -20 -20 -20 -20 -20 -20 -20 -20 -20 -20 -20 -20 -20 -20 -20 -20 -20 -20 -20 -20 -20
-1 -14 -20 -20 -20 -20 -20 -20 -20 -20 -20 -20 -20 -20 -20 -20 -20 -20 -20 -13 -20 -20 -20 -20 -20 -20 -20 -20 -20 -20 -20 -20 -20 -20 -20 -20 -20 -20 -20 -20 -20 -20 -20 -20
22 -20 -20 -20 -20 -20 -20 -20 -20 -20 -20 -20 -20 -20 -20 -20 -20 -20 -20 -20 -20 -20 -20 -20 -20 -20 -20 -20 -20 -20 -20 -20 -20 -20 -20 -20 -20 -20 -20 -20 -20 -20 -20 -20
20 -20 -20 -20 -20 -20 -20 -20 -20 -20 -20 -20 -20 -20 -20 -20 -20 -20 -20 -20 -20 -20 -20 -20 -20 -20 -20 -20 -20 -20 -20 -20 -20 -20 -20 -20 -20 -20 -20 -20 -20 -20 -20 -20
12 -20 -20 -20 -20 -20 -18 -15 -20 -20 -20 -20 -20 -20 -20 -20 -20 -20 -20 -20 -20 -20 -20 -20 -20 -20 -20 -20 -20 -20 -20 -20 -20 -20 -20 -20 -20 -20 -20 -20 -20 -20 -20 -20

GFSNW_prec_radar_012.txt.gz
Reflectivity
5 -20 -20 -20 -20 -20 -20 -20 -20 -20 -20 -20 13 31 30 33 29 28 16 -14 -20 -20 2 -1 -15 -20 -17 -2 -2 -19 -20 -20 -20 -20 -20 -20 -20 -20 -20 -20 -20 -20 -20 -20
8 -20 -20 -20 -20 -20 -20 -20 -20 -20 -20 -20 -20 -12 31 34 32 20 13 23 10 9 -2 13 -20 -20 -19 -19 -18 -20 -20 -20 -20 -20 -20 -20 -20 -20 -20 -20 -20 -20 -20 -20
-20 -20 -20 -20 -20 -20 -20 -20 -20 -20 -20 -20 -19 -6 -6 26 30 17 25 32 33 28 16 15 -7 -2 2 -10 -20 -20 -20 -20 -20 -20 -13 -1 -20 -20 -20 -20 -20 -20 -20 -20
13 -20 -20 -20 -20 -20 -20 -20 -20 -20 -20 -20 -20 14 -15 18 13 28 26 -12 -5 -19 -12 -7 11 14 6 -7 -7 -20 -20 -20 -20 -20 -10 -20 -20 -20 -20 -20 -20 -20 -20 -20
14 8 -18 -20 -20 -20 -20 -20 -20 -20 -20 -20 -20 -20 -7 -4 -5 -3 19 15 -2 -1 -20 -20 -20 -20 -20 -20 -4 -9 -20 -20 -20 -20 -20 -20 -20 -20 -20 -20 -20 -20 -20 -11
13 14 -3 -20 -20 -20 -20 -20 -20 -20 -20 -20 -20 -20 -20 -20 -18 -0 -20 -20 -6 -19 19 15 -11 -18 -20 -20 -20 -20 -7 -4 -5 -1 4 5 -5 -19 -20 -20 -20 -20 -20 -20
11 7 13 -20 -20 -20 -20 -20 -20 -20 -20 -20 -20 -20 -20 -20 -20 -20 -20 -20 -20 -20 -20 -20 -14 -8 12 15 18 18 13 8 -1 6 -11 -20 -20 -20 -20 -20 -20 -20 -20 -20
-8 11 -1 4 -20 -20 -20 -20 -20 -20 -20 -20 -20 -20 -20 -20 -20 -20 -20 -20 -20 -20 -20 -20 -20 -20 -20 -20 -20 -20 -20 -20 -20 -20 -20 -20 -20 -20 -20 -20 -20 -20 -20 -20
1 -20 4 -20 -20 -20 -20 -20 -20 -20 -20 -20 -20 -20 -20 -20 -20 -20 -20 -20 -20 -20 -20 -20 -20 -20 -20 -20 -20 -20 -20 -20 -20 -20 -20 -20 -20 -20 -20 -20 -20 -20 -20 -20
3 -19 -20 -3 -15 -20 -20 -20 -20 -20 -20 -20 -20 -20 -20 -20 -20 -20 -20 -20 -20 -20 -20 -20 -20 -20 -20 -20 -20 -20 -20 -20 -20 -20 -20 -20 -20 -20 -20 -20 -20 -20 -20 -20
14 -11 -20 -20 -20 -20 -20 -20 -20 -20 -20 -20 -20 -20 -20 -20 -20 -20 -20 -20 -20 -20 -20 -20 -20 -20 -20 -20 -20 -20 -20 -20 -20 -20 -20 -20 -20 -20 -20 -20 -20 -20 -20 -20
15 10 -20 -20 -18 -20 -20 -20 -20 -20 -20 -20 -20 -20 -20 -20 -20 -20 -20 -20 -20 -20 -20 -20 -20 -20 -20 -20 -20 -20 -20 -20 -20 -20 -20 -20 -20 -20 -20 -20 -20 -20 -20 -20
16 15 6 -20 -20 -18 -20 -20 -20 -20 -20 -20 -20 -20 -20 -20 -20 -20 -20 -20 -20 -20 -20 -20 -20 -20 -20 -20 -20 -20 -20 -20 -20 -20 -20 -20 -20 -20 -20 -20 -20 -20 -20 -20
-7 14 8 -16 -13 -13 10 -20 -15 -20 -20 -20 -20 -20 -20 -20 -20 -20 -20 -20 -20 -20 -20 -20 -20 -20 -20 -20 -20 -20 -20 -20 -20 -20 -20 -20 -20 -20 -20 -20 -20 -20 -20 -20
-16 12 12 7 -14 -13 -3 -2 -4 -20 -20 -20 -20 -20 -20 -20 -20 -20 -20 -19 -12 -12 12 9 -10 -10 -20 -20 -20 -20 -20 -20 -20 -20 -20 -20 -20 -20 -20 -20 -20 -20 -20 -20
-14 5 3 -19 11 -15 -20 -20 -3 -19 -20 -20 -20 -20 -20 -20 -20 -20 -17 2 7 14 8 -8 5 3 -20 -20 -20 -20 -20 -20 -20 -20 -20 -20 -20 -20 -20 -20 -20 -20 -20 -20
-9 12 3 10 3 -11 -20 -20 -20 -0 -6 -20 -18 -20 -20 -20 -20 -16 -19 -13 14 20 17 7 -19 -3 -7 -20 -20 -20 -20 -20 -20 -20 -20 -20 -20 -20 -20 -20 -20 -20 -20 -20
-6 -5 12 11 11 9 -7 -20 1 6 -9 -12 -20 -14 -20 -10 -16 -12 -7 3 7 7 -2 3 5 7 -8 -20 -20 -20 -20 -20 -20 -20 -20 -20 -20 -20 -20 -14 8 -10 -20 -20
-19 0 4 -4 -12 -20 -20 8 4 -18 -17 1 -12 -14 -20 -19 -0 18 22 19 1 -12 -9 -0 -14 -20 -20 -20 -20 -20 -20 -20 -20 -20 -20 -20 -20 -20 -18 -14 -16 -20 -20 -20
14 -18 -20 -20 -18 5 -10 -10 24 17 10 -20 -20 -20 -1 -11 6 9 3 14 19 9 -6 -17 -20 -20 -20 -20 -20 -20 -20 -20 -20 -20 -20 -20 -20 -20 -20 -20 -20 -20 -20 -20
-7 -20 -17 -16 -15 -20 -20 -20 -20 -6 -15 -12 -20 -20 4 -15 8 1 -20 -20 -12 -20 -17 -15 -20 -20 -20 -20 -20 -20 -20 -20 -20 -20 -20 -20 -20 -20 -20 -20 -20 -20 -20 -20
12 2 9 7 -5 -20 -20 -20 -20 -20 -20 -20 -17 -16 -19 3 1 4 -5 -19 -20 -20 -20 -19 -20 -20 -20 -20 -20 -20 -20 -20 -20 -20 -20 -20 -20 -20 -20 -20 -20 -20 -20 -20
27 28 31 11 7 -20 -20 -20 -20 -20 -20 -14 -13 1 4 -15 -20 -20 -20 -20 -20 -20 -20 -20 -20 -20 -20 -20 -20 -20 -20 -20 -20 -20 -20 -20 -20 -20 -20 -20 -20 -20 -20 -20
30 30 14 1 -13 -20 -20 -20 -20 -20 -20 -20 -20 -20 -20 2 -20 -20 -20 -18 -20 -20 -20 -20 -20 -20 -20 -20 -20 -20 -20 -20 -20 -20 -20 -20 -20 -20 -20 -20 -20 -20 -20 -20
31 19 3 -20 -20 -20 -20 -20 -20 -20 -20 -20 -20 -20 -20 -20 -20 -20 -20 -19 -20 -20 -15 -18 -20 -20 -20 -20 -20 -20 -20 -20 -20 -20 -20 -20 -20 -20 -20 -20 -20 -20 -20 -20
32 -2 -20 -20 -20 -20 -20 -20 -20 -20 -20 -20 -20 -20 -20 -20 -20 -20 -20 -20 -20 -4 -19 -20 -20 -20 -20 -20 -20 -20 -20 -20 -20 -20 -20 -20 -20 -20 -20 -20 -20 -20 -20 -20
23 -6 -20 -20 -20 -20 -20 -20 -20 -20 -20 -20 -20 -20 -20 -20 -20 -20 -20 -20 -20 -20 -20 -20 -20 -20 -20 -20 -20 -20 -20 -20 -20 -20 -20 -20 -20 -20 -20 -20 -20 -20 -20 -20

GFSNW_prec_radar_015.txt.gz
Reflectivity
14 -19 -18 -20 -20 -20 -20 -20 -20 -20 -0 -7 3 28 26 18 30 20 19 12 7 -14 -13 25 33 3 -20 -20 -20 -20 -20 -20 -20 -20 -20 -20 -20 -20 -20 -20 -20 -20 -20 -20
12 -20 -20 -20 -20 -20 -20 -20 -20 -20 -16 2 1 28 21 24 23 10 -13 -0 13 7 3 31 -13 -14 -20 -20 -17 -20 -20 -18 -19 -18 -20 -20 -20 -20 -20 -20 -20 -20 -20 -20
8 -2 -20 -20 -20 -20 -20 -20 -20 -20 -20 -20 -7 18 31 24 -1 13 -20 -11 11 -20 -17 -17 -15 -5 -20 -20 -20 21 -12 -20 -20 -20 -20 -20 -20 -20 -20 -20 -20 -20 -20 -20
-15 12 -10 -20 -20 -20 -20 -20 -20 -20 -20 -20 -17 -17 17 13 7 14 -20 -10 -9 -16 -19 -20 -20 -20 -20 -20 -20 15 -20 -20 -20 -20 -20 -20 -20 -20 -20 -20 -20 -20 -20 -20
9 12 8 -20 -20 -20 -20 -20 -20 -20 -20 -20 -19 3 20 -20 -10 12 21 27 -4 -20 -4 -18 -20 -20 -20 -14 -20 -4 -20 -20 -20 -20 -20 -20 -20 -20 -20 -20 -20 -20 -20 -20
11 10 12 -15 -20 -20 -20 -20 -20 -20 -20 -20 -20 -8 -1 17 -18 15 23 31 30 21 12 16 13 11 -10 -17 -20 -20 -20 -20 -20 -20 -20 -20 -20 -20 -20 -20 -20 -20 -20 -20
13 10 14 9 -20 -20 -20 -20 -20 -20 -20 -20 -20 -20 -10 -16 -16 4 -9 -20 -3 6 -1 16 19 -20 -20 -20 -20 -9 -8 -2 -15 -20 -20 -20 -20 -19 -16 -20 -20 -20 -9 9
17 9 4 14 -20 -20 -20 -20 -20 -20 -20 -20 -20 -20 -20 -19 -20 -10 -20 -18 -20 -15 -20 -20 -15 24 -19 17 -12 -0 -16 3 -12 -20 -20 -20 -0 -1 -20 -14 -1 -2 -12 -20
17 10 8 -0 -20 -20 -20 -20 -20 -20 -20 -20 -20 -20 -20 -20 -20 -20 -20 -20 -20 -20 -20 -20 -20 -20 -20 -20 -20 -20 -9 -8 -0 15 -5 -8 -18 -9 -20 -20 -20 -10 -20 -20
17 14 2 -10 3 -20 -20 -20 -20 -20 -20 -20 -20 -20 -20 -20 -20 -20 -20 -20 -20 -20 -20 -20 -20 -20 -20 -20 -20 -20 -18 -20 -19 -20 -20 -20 -14 -20 -20 -20 -20 -20 -20 -20
15 15 8 11 -15 -20 -20 -20 -20 -20 -20 -20 -20 -20 -20 -20 -20 -20 -20 -20 -20 -20 -20 -20 -20 -20 -20 -20 -20 -20 -20 -20 -20 -20 -20 -20 -20 -20 -20 -20 -20 -20 -20 -20
11 16 14 0 1 3 -20 -20 -20 -20 -20 -20 -20 -20 -20 -20 -20 -20 -20 -20 -20 -20 -20 -20 -20 -20 -20 -20 -20 -20 -20 -20 -20 -20 -20 -20 -20 -20 -20 -20 -20 -20 -20 -20
5 15 16 12 -1 4 -10 -20 -20 -20 -20 -20 -20 -20 -20 -20 -20 -20 -20 -20 -20 -20 -20 -20 -20 -20 -20 -20 -20 -20 -20 -20 -20 -20 -20 -20 -20 -20 -20 -20 -20 -20 -20 -20
10 10 13 16 14 -6 5 -20 -20 -20 -20 -20 -20 -20 -20 -20 -20 -20 -20 -20 -20 -20 -20 -20 -20 -20 -20 -20 -20 -20 -20 -20 -20 -20 -20 -20 -20 -20 -20 -20 -20 -20 -20 -20
14 18 10 9 15 9 -18 -20 -20 -20 -20 -20 -20 -20 -20 -20 -20 -20 -20 -20 -20 -20 -20 -20 -20 -20 -20 -20 -20 -20 -20 -20 -20 -20 -20 -20 -20 -20 -20 -20 -20 -20 -20 -20
13 17 -4 6 -14 -19 -20 -20 -20 -20 -20 -20 -20 -20 -20 -20 -20 -20 -20 -20 -20 -20 -20 -20 -14 -20 -20 -20 -20 -20 -20 -20 -20 -20 -20 -20 -20 -20 -20 -20 -20 -20 -20 -20
15 15 10 7 13 -18 -20 -20 -14 -3 -20 -20 -20 -20 -20 -20 -20 -20 -20 -20 -20 -20 -8 14 19 -4 -1 -20 -20 -20 -20 -20 -20 -20 -20 -20 -20 -20 -20 -20 -20 -20 -20 -20
13 16 11 13 9 -12 -20 -20 -20 -20 -20 -20 -19 -20 -20 -20 -20 3 6 -12 3 20 23 12 -2 -15 -19 -20 -20 -20 -20 -20 -20 -20 -20 -20 -20 -20 -20 -20 -20 -20 -20 -20
13 15 9 -6 -3 -20 -20 -15 3 -9 -20 -19 -19 -20 -20 -20 -7 -2 5 14 15 4 5 6 -9 -20 -20 -20 -20 -20 -20 -20 -20 -20 -20 -20 -20 -20 -20 -20 -20 -20 -20 -20
9 -6 -20 -20 -20 -20 -20 -0 -20 -20 -20 -20 -20 -20 -18 -18 -9 6 11 4 4 14 10 -20 -20 -20 -17 -20 -20 -20 -20 -20 -20 -20 -20 -20 -20 -20 -20 -20 -20 -20 -20 -20
-11 -20 -20 -20 -12 -15 -20 -20 4 9 -20 -20 -20 -20 -20 -20 -6 -4 -7 -7 -20 -20 -18 -12 -20 -20 -20 -20 -20 -20 -20 -20 -20 -20 -20 -20 -20 -20 -20 -20 -20 -20 -20 -20
0 -20 -5 -10 13 0 -20 -20 -20 -20 -20 -20 -13 -20 -20 -14 -6 -13 -20 -20 -20 -20 -16 -19 -20 -20 -20 -20 -20 -20 -20 -20 -20 -20 -20 -20 -20 -20 -20 -20 -20 -20 -20 -20
23 22 26 9 20 -5 -20 -20 -20 -20 -15 -20 -14 -12 -18 -16 -5 -12 -20 -20 -20 -20 -20 -20 -20 -20 -20 -20 -20 -20 -20 -20 -20 -20 -20 -20 -20 -20 -20 -20 -20 -20 -20 -20
32 25 19 -4 -1 -20 -20 -20 -20 -20 -20 -18 -14 -20 -20 -8 -20 -9 -20 -20 -20 -20 -20 -20 -20 -20 -20 -20 -20 -20 -20 -20 -20 -20 -20 -20 -20 -20 -20 -20 -20 -20 -20 -20
30 24 10 -6 -20 -20 -20 -20 -20 -20 -19 -15 -20 -20 -20 -20 -20 -20 -20 -18 -20 -20 -20 -20 -20 -20 -20 -20 -20 -20 -20 -20 -20 -20 -20 -20 -20 -20 -20 -20 -20 -20 -20 -20
22 13 -12 -20 -20 -20 -20 -20 -20 -20 -20 -20 -20 -20 -20 -20 -20 -20 -20 -20 -20 -20 -20 -20 -20 -20 -20 -20 -20 -20 -20 -20 -20 -20 -20 -20 -20 -20 -20 -20 -20 -20 -20 -20
21 2 -20 -20 -20 -20 -20 -20 -20 -20 -20 -20 -20 -20 -20 -20 -20 -20 -20 -20 -20 -20 -20 -20 -20 -20 -20 -20 -20 -20 -20 -20 -20 -20 -20 -20 -20 -20 -20 -20 -20 -20 -20 -20

GFSNW_prec_radar_018.txt.gz
Reflectivity
-20 16 8 11 -2 -20 -20 -20 -20 6 19 31 34 37 33 28 30 30 34 27 -1 -20 32 10 -20 7 -20 -20 -6 -20 -20 -20 -20 18 -19 -20 -20 -20 -20 -20 -20 -20 -20 -20
1 17 7 5 11 -20 -20 -20 -20 -18 -8 21 27 28 32 23 31 33 25 13 -3 -20 -20 -10 -13 -20 -19 -17 14 -16 -20 -20 -20 -15 -18 -15 -20 -20 -20 -20 -20 -20 -20 -20
-3 16 9 8 17 -20 -20 -20 -20 -1 -11 -11 14 27 21 29 20 20 -18 -10 -9 -11 -20 -7 -11 19 -10 -14 -19 -13 -20 -20 -20 -20 -20 -20 -20 -20 -20 -20 -20 -20 -20 -20
-20 -0 15 13 16 -20 -20 -20 -20 -20 -20 -20 12 16 23 24 20 12 -12 12 -20 -20 -20 -20 7 -10 -19 1 13 -1 -20 -14 -20 -20 -20 -20 -20 -20 -20 -20 -20 -20 -20 -20
4 8 -1 10 14 -20 -20 -20 -20 -20 -20 -14 11 24 16 31 22 3 5 -20 -20 -20 -20 -20 -16 -20 -10 8 8 -20 -14 -19 -20 -20 -20 -20 -20 -20 -20 -20 -20 -20 -20 -20
5 13 6 2 14 -16 -20 -20 -20 -20 9 10 -1 -6 25 9 -11 -5 6 18 0 -4 1 -18 -14 -12 4 -14 -13 -16 20 10 -16 -20 -20 -20 -20 -20 -20 -20 -20 -20 -20 -20
-19 12 12 10 13 -20 -20 -20 -20 -20 -20 -19 -19 -19 20 -15 3 26 5 22 9 20 -4 1 -3 -14 17 5 -16 -18 -20 -20 -18 -20 -20 -20 -20 -20 -20 -20 -20 -20 -20 -20
-18 13 5 14 10 -19 -20 -20 -20 -20 -20 -20 -20 -16 7 -20 -20 -11 22 27 24 30 -4 21 18 17 22 -20 -18 -20 -20 -17 -12 -20 -20 -11 -19 -20 -20 -20 -20 -20 -20 -20
-20 9 -3 13 13 8 -20 -20 -20 -20 -20 -20 -20 -20 11 -7 -20 -20 -20 -20 -6 17 17 25 -14 -4 -8 -5 -11 -20 -20 -20 -20 -20 -10 -6 -19 -3 -4 -20 14 13 9 -17
-20 10 4 10 13 13 -20 -20 -20 -20 -20 -20 -20 -20 -20 6 -17 -20 -20 -20 -20 -20 -20 -20 -3 -16 1 -19 -20 -20 -20 -20 -20 -20 -20 -20 -20 -20 -20 -20 -20 -20 -20 -20
-8 2 8 8 14 12 -11 -20 -20 -20 -20 -20 -20 -20 -20 -20 -20 -20 -20 -20 -20 -20 -20 -20 -20 -20 -20 -20 -20 -20 -20 -20 -20 -20 -20 -20 -20 -20 -20 -20 -20 -20 -20 -20
-7 15 10 0 13 6 5 -20 -20 -20 -20 -20 -20 -20 -20 -20 -20 -20 -20 -20 -20 -20 -20 -20 -20 -20 -20 -20 -20 -20 -20 -20 -20 -20 -20 -20 -20 -20 -20 -20 -20 -20 -20 -20
3 16 -2 -5 13 17 9 -20 -20 -20 -20 -20 -20 -20 -20 -20 -20 -20 -20 -20 -20 -20 -20 -20 -20 -20 -20 -20 -20 -20 -20 -20 -20 -20 -20 -20 -20 -20 -20 -20 -20 -20 -20 -20
3 16 7 9 11 14 12 -20 -20 -20 -20 -20 -20 -20 -20 -20 -20 -20 -20 -20 -20 -20 -20 -20 -20 -20 -20 -20 -20 -20 -20 -20 -20 -20 -20 -20 -20 -20 -20 -20 -20 -20 -20 -20
6 15 13 -5 12 3 8 5 -7 9 -20 -20 -20 -20 -20 -20 -20 -20 -20 -20 -20 -20 -20 -20 -20 -20 -20 -20 -20 -20 -20 -20 -20 -20 -20 -20 -20 -20 -20 -20 -20 -20 -20 -20
-13 11 16 12 9 12 -20 -20 -20 -20 -20 -20 -20 -20 -20 -20 -20 -20 -20 -20 -20 -20 -20 -20 -20 -20 -20 -20 -20 -20 -20 -20 -20 -20 -20 -20 -20 -20 -20 -20 -20 -20 -20 -20
-20 10 15 15 12 -15 -20 -20 -14 -9 -20 -20 -20 -20 -20 -20 -20 -20 -20 -15 -20 -20 -20 -20 -20 -20 -20 -20 -20 -20 -20 -20 -20 -20 -20 -20 -20 -20 -20 -20 -20 -20 -20 -20
-5 13 15 19 21 5 -20 -20 -12 -20 -20 -20 -20 -20 -20 17 4 -19 -20 -20 -20 -13 -18 -20 -20 -20 -17 -7 -20 -20 -20 -20 -20 -20 -20 -20 -20 -20 -20 -20 -20 -20 -20 -20
11 11 15 2 0 -20 -20 6 -3 -20 -20 -20 -20 -20 -19 -18 -17 13 2 -19 -3 -6 -10 -5 -7 1 -11 -20 -20 -20 -20 -20 -20 -20 -20 -20 -20 -20 -20 -20 -20 -20 -20 -20
9 -7 -20 -20 -20 -19 3 -20 -20 -20 -20 -20 -20 -20 -20 -19 -20 -5 -15 5 -5 -17 -20 -19 -10 -20 -20 -20 -20 -20 -20 -20 -20 -20 -20 -20 -20 -20 -20 -20 -20 -20 -20 -20
-17 -20 -20 -9 -11 -20 -20 -20 -8 -20 -20 -20 -20 -20 -20 -20 -20 -11 -20 -20 -20 -20 -20 -20 -20 -20 -20 -20 -20 -20 -20 -20 -20 -20 -20 -20 -20 -20 -20 -20 -20 -20 -20 -20
4 -3 9 6 -9 -20 -20 -20 -20 -5 -20 -20 -16 -20 -20 -20 -20 -20 -20 -20 -20 -20 -19 -19 -20 -20 -20 -20 -20 -20 -20 -20 -20 -20 -20 -20 -20 -20 -20 -20 -20 -20 -20 -20
25 23 30 6 3 -20 -20 -20 -20 -20 -20 -11 -18 -18 -20 -20 -20 -20 -20 -20 -20 -20 -20 -20 -20 -20 -20 -20 -20 -20 -20 -20 -20 -20 -20 -20 -20 -20 -20 -20 -20 -20 -20 -20
29 28 15 -5 3 -20 -20 -20 -20 -20 -20 9 -7 -20 -20 -19 -20 -18 -20 -20 -20 -20 -20 -20 -20 -20 -20 -20 -20 -20 -20 -20 -20 -20 -20 -20 -20 -20 -20 -20 -20 -20 -20 -20
26 24 7 -14 -20 -20 -20 -20 -20 -18 -20 -19 -17 -20 -20 -20 -20 -20 -20 -19 -20 -20 -20 -20 -20 -20 -20 -20 -20 -20 -20 -20 -20 -20 -20 -20 -20 -20 -20 -20 -20 -20 -20 -20
25 8 -16 -20 -20 -20 -20 -20 -20 -20 -8 -8 -15 -20 -20 -20 -20 -20 -20 -20 -20 -20 -20 -20 -20 -20 -20 -20 -20 -20 -20 -20 -20 -20 -20 -20 -20 -20 -20 -20 -20 -20 -20 -20
18 -9 -20 -20 -20 -20 -20 -20 -20 -16 3 -12 -20 -20 -20 -20 -20 -20 -20 -20 -20 -20 -20 -20 -20 -20 -20 -20 -20 -20 -20 -20 -20 -20 -20 -20 -20 -20 -20 -20 -20 -20 -20 -20

GFSNW_prec_radar_021.txt.gz
Reflectivity
16 16 20 11 14 12 -20 -20 -20 10 12 29 21 16 31 33 32 31 34 13 -20 -20 -20 -9 1 -20 -14 -0 -20 -20 -20 -20 -20 -19 4 -16 14 -18 -20 -20 -20 -20 -20 -20
16 17 19 6 14 18 -20 -20 2 21 18 24 28 26 39 37 32 39 28 21 -6 -20 -20 -9 1 -20 -20 9 -20 -20 -20 -20 -20 -5 -16 4 21 -20 -20 -20 -20 -20 -20 -20
14 15 19 9 12 19 -19 -20 -19 14 17 0 15 37 36 35 34 35 33 32 -11 -20 -5 11 5 -20 -20 -20 -20 -20 -20 -20 -20 -20 -20 -20 -20 -20 -20 -20 -20 -20 -20 -20
13 16 16 11 14 19 -20 -20 -20 -20 -10 -15 -10 34 30 33 35 31 23 6 -20 -20 11 10 9 -20 -20 -20 -20 -20 -20 -20 -20 -20 -20 -20 -20 -20 -20 -20 -20 -20 -20 -20
13 16 17 10 14 21 -18 -20 -20 -20 -20 -20 -2 30 28 29 18 -13 10 -7 -20 -20 -20 -20 -20 -20 -20 -20 -19 -20 -20 -20 -20 -20 -20 -20 -20 -20 -20 -20 -20 -20 -20 -20
11 13 16 9 13 10 -16 -20 -20 -20 -20 -15 26 -0 19 31 10 -10 -20 -8 -20 -20 -20 -15 -20 -20 -20 -19 -20 -9 -20 -20 -20 -20 -20 -20 -20 -20 -20 -20 -20 -20 -20 -20
-6 11 14 12 12 12 -16 -20 -20 -20 -20 -5 18 -19 22 20 28 6 -12 -20 -20 -20 -20 -20 -20 -14 12 22 -18 -9 -17 -9 -6 -2 -20 -20 -20 -20 -20 -20 -20 -20 -20 -20
-20 10 9 5 11 17 -5 -20 -20 -20 -20 -3 18 -10 -19 -17 23 25 34 27 30 -2 -20 -20 10 9 21 14 -5 9 22 12 -18 -20 -20 -20 -20 -20 -20 -20 -20 -20 -20 -20
-20 11 5 -13 5 21 -4 -20 -20 -20 -20 -19 20 0 1 -12 -4 24 20 34 23 26 -7 21 13 18 1 5 -10 -0 -20 -20 28 -20 -20 -20 -18 -20 -20 -20 -20 -20 -20 -20
-9 9 10 5 -0 19 1 -20 -20 -20 -20 8 -20 -20 5 -17 -14 30 27 18 25 22 7 18 15 -8 21 16 -11 3 29 -7 -12 -20 -19 -11 -15 -20 -20 -20 -1 5 -13 -20
-1 8 13 -8 5 13 8 -20 -20 -20 -20 -5 -20 -20 0 2 -20 -20 -18 -19 0 29 7 -11 -17 -17 -20 -12 -20 -20 -20 -20 -20 -20 -20 -20 -20 -20 -20 -20 -20 -20 -20 -20
-20 8 13 -4 9 14 7 3 -20 -20 -20 -5 -20 -20 -20 10 2 -20 -20 -20 -20 -20 -18 -9 -19 -19 -20 -20 -20 -20 -20 -20 -20 -20 -20 -20 -20 -20 -20 -20 -20 -20 -20 -20
-20 14 13 -9 3 19 7 17 -18 -20 -20 -20 -20 -20 -20 -20 -3 -18 -19 -20 -20 -20 -20 -20 -20 -20 -20 -20 -20 -20 -20 -20 -20 -20 -20 -20 -20 -20 -20 -20 -20 -20 -20 -20
-18 15 14 1 -13 18 13 5 16 -20 -20 -20 -20 -20 -20 -20 -20 -20 -20 -20 -20 -20 -20 -20 -20 -20 -20 -20 -20 -20 -20 -20 -20 -20 -20 -20 -20 -20 -20 -20 -20 -20 -20 -20
8 13 13 -2 -20 24 15 -7 20 17 -20 -20 -20 -20 -20 -20 -20 -20 -20 -20 -20 -20 -20 -20 -20 -20 -20 -20 -20 -20 -20 -20 -20 -20 -20 -20 -20 -20 -20 -20 -20 -20 -20 -20
10 11 2 6 -4 9 -17 14 7 17 -5 -10 -20 -20 -20 -17 -20 -20 -20 -20 -20 -20 -20 -20 -20 -20 -20 -20 -20 -20 -20 -20 -20 -20 -20 -20 -20 -20 -20 -20 -20 -20 -20 -20
12 8 9 14 -7 1 -1 -15 -19 11 8 1 -11 -9 -20 -20 -20 -20 -20 -20 -20 -20 -20 -20 -20 -20 -20 -20 -20 -20 -20 -20 -20 -20 -20 -20 -20 -20 -20 -20 -20 -20 -20 -20
7 7 12 3 16 17 -1 -19 3 -14 18 4 -18 -20 -19 -20 -20 -20 -1 13 -4 -5 -19 -20 -17 -20 -20 -20 -20 -20 -20 -20 -20 -20 -20 -20 -20 -20 -20 -20 -20 -20 -20 -20
8 -8 -3 15 3 12 -10 -20 -13 -14 -19 -18 -20 -18 -20 -12 5 3 -19 -20 -15 -8 0 3 0 -20 -20 -20 -20 -20 -20 -20 -20 -20 -20 -20 -20 -20 -20 -20 -20 -20 -20 -20
8 8 10 4 -5 15 -18 -20 -20 -20 -20 -20 -20 -20 -16 -12 -3 7 7 7 7 5 -8 -12 -8 -20 -20 -20 -20 -20 -20 -20 -20 -20 -20 -20 -20 -20 -20 -20 -20 -20 -20 -20
4 -20 -13 -14 -4 -6 -20 -20 -20 -20 -20 -20 -20 -20 -20 -20 -15 -10 -17 -20 -20 -20 -18 -16 -20 -20 -20 -20 -20 -20 -20 -20 -20 -20 -20 -20 -20 -20 -20 -20 -20 -20 -20 -20
16 -10 11 7 -1 -20 -20 -20 -20 -20 -20 -11 -20 -20 -20 -20 -20 -20 -20 -20 -20 -20 -20 -12 -20 -20 -20 -20 -20 -20 -20 -20 -20 -20 -20 -20 -20 -20 -20 -20 -20 -20 -20 -20
-2 7 14 -8 -14 -20 -20 -20 -20 -20 -20 -12 -17 -20 -20 -20 -20 -20 -20 -20 -20 -20 -20 -20 -20 -20 -20 -20 -20 -20 -20 -20 -20 -20 -20 -20 -20 -20 -20 -20 -20 -20 -20 -20
30 28 6 -17 -5 -20 -20 -20 -20 -14 7 8 -9 -20 -20 -20 -20 -20 -20 -20 -20 -20 -20 -20 -20 -20 -20 -20 -20 -20 -20 -20 -20 -20 -20 -20 -20 -20 -20 -20 -20 -20 -20 -20
29 27 3 -8 -19 -20 -20 -20 -20 -15 3 -17 -20 -20 -20 -20 -20 -20 -20 -20 -20 -20 -20 -20 -20 -20 -20 -20 -20 -20 -20 -20 -20 -20 -20 -20 -20 -20 -20 -20 -20 -20 -20 -20
27 13 11 -15 -20 -20 -20 -20 -20 2 -2 -20 -20 -20 -20 -20 -20 -20 -20 -20 -20 -20 -20 -20 -20 -20 -20 -20 -20 -20 -20 -20 -20 -20 -20 -20 -20 -20 -20 -20 -20 -20 -20 -20
16 2 -20 -20 -20 -13 -20 -20 -4 5 -2 -20 -20 -20 -20 -20 -20 -20 -20 -20 -20 -20 -20 -20 -20 -20 -20 -20 -20 -20 -20 -20 -20 -20 -20 -20 -20 -20 -20 -20 -20 -20 -20 -20

GFSNW_prec_radar_024.txt.gz
Reflectivity
26 9 14 15 20 15 6 -7 -19 -7 23 26 19 10 23 26 29 29 30 14 19 -20 -20 -20 7 1 -14 -20 -18 -2 -20 -20 -20 23 -14 -20 -20 -19 -8 -4 -20 -20 -20 -20
13 -1 15 18 20 12 4 -20 1 26 9 15 8 -8 19 30 16 23 30 18 10 -20 -20 -10 -12 -20 -20 -20 -20 5 -20 -20 1 -20 7 -9 19 -20 -20 -20 -20 -20 -20 -20
20 13 13 18 17 10 14 -20 6 25 22 11 11 32 27 33 28 23 28 25 -1 -20 -20 -20 -20 5 -20 -20 -20 -20 -17 -20 -20 -20 -20 -20 -20 -20 -20 -20 -20 -20 -20 -20
18 -4 13 13 17 9 15 -20 -20 -16 17 8 -17 25 32 36 36 30 32 32 6 -20 -20 -20 -20 -3 -20 -20 -20 -20 -20 -20 -20 -20 -20 -20 -20 -20 -20 -20 -20 -20 -20 -20
19 -13 16 8 8 23 16 -16 -20 -20 -20 -20 -20 18 32 32 30 29 29 15 -15 -20 -20 -20 -20 7 -20 -20 -20 -20 -20 -20 -20 -20 -20 -20 -20 -20 -20 -20 -20 -20 -20 -20
19 2 16 15 5 17 6 -5 -20 -20 -20 -20 -14 27 26 24 17 8 -11 2 -20 -18 -20 -20 -20 -20 -20 -20 -20 -8 -4 -18 -20 -20 -20 -20 -20 -20 -20 -20 -20 -20 -20 -20
29 -5 15 13 8 3 -2 -2 -20 -20 -20 -20 -20 20 28 25 13 14 -1 -12 -20 -20 6 5 -20 -20 -20 -20 -20 -2 -20 -20 -20 -20 -20 -18 -20 -20 -20 -20 -20 -20 -20 -20
26 -4 6 -19 6 10 7 6 -7 -20 -20 -20 15 16 22 29 25 18 -20 -19 -20 -20 -20 10 14 28 3 14 1 -4 -20 -20 -20 -20 -20 -20 -20 -20 -20 -20 -20 -20 -20 -20
21 -8 4 -20 10 10 17 -2 8 -20 -20 -20 17 12 -3 24 28 28 5 10 -13 -20 -20 -20 -10 24 20 32 15 13 16 -6 -11 -19 -20 -20 -20 -20 -20 -20 -20 -20 -20 -20
10 -17 -5 -20 -9 19 15 -1 -12 -20 -20 -20 -14 10 -20 -20 21 25 28 26 16 -5 -14 -20 -15 -6 -20 -20 -7 -20 13 21 22 3 19 -20 -19 -20 -20 -20 -20 -20 -20 -20
32 -9 -18 -20 5 4 21 3 -20 -20 -20 -20 1 -8 -20 -20 8 35 13 24 28 12 24 -20 -20 -20 -20 -12 -20 -20 -4 -5 -17 8 15 -20 -20 -20 -20 -20 -20 -20 -20 -20
27 10 -20 -20 -15 9 23 16 -20 -20 -20 -19 9 -19 -20 -20 -2 32 27 24 22 25 26 16 10 -20 -20 8 -20 -17 -18 -17 -20 -20 -20 -20 -20 -20 -20 -20 -20 -20 -20 -20
19 10 -20 -17 -16 -1 20 15 -10 -20 -20 -20 -20 -20 -20 -18 -17 -4 -20 -20 -13 15 28 24 8 -15 -11 -10 -20 -16 -20 -20 -20 -20 -20 -20 -20 -20 -20 -20 -20 -20 -20 -20
19 10 -20 -16 -8 5 24 14 9 -20 -20 -20 -20 -20 -20 -20 -19 -16 -20 -20 -20 -20 -20 -20 -20 -20 -20 -20 -20 -20 -20 -20 -20 -20 -20 -20 -20 -20 -20 -20 -20 -20 -20 -20
14 12 -4 -20 -18 11 23 14 24 -5 -20 -20 -11 -20 -20 -20 -20 7 1 -20 -20 -20 -20 -20 -20 -20 -20 -20 -20 -20 -20 -20 -20 -20 -20 -20 -20 -20 -20 -20 -20 -20 -20 -20
18 -2 10 -17 -4 16 23 24 26 26 26 -20 -20 -20 -18 -20 -20 -20 -20 -20 -1 -18 -20 -20 -20 -20 -20 -20 -20 -20 -20 -20 -20 -20 -20 -20 -20 -20 -20 -20 -20 -20 -20 -20
5 6 9 -20 -6 20 23 7 4 27 28 24 -15 -20 -20 -20 -20 -20 -20 -20 -20 -20 -18 -20 -20 -20 -20 -20 -20 -20 -20 -20 -20 -20 -20 -20 -20 -20 -20 -20 -20 -20 -20 -20
9 7 -6 12 11 18 8 -16 -20 6 4 11 -2 -7 -20 -20 -20 -20 -20 -20 -20 -20 -20 -20 -20 -20 -20 -20 -20 -20 -20 -20 -20 -20 -20 -20 -20 -20 -20 -20 -20 -20 -20 -20
11 -8 13 16 16 -1 -16 -20 -20 -20 11 14 0 -19 -20 -20 -16 -20 -20 -20 -20 -20 -20 -20 -20 -20 -20 -20 -20 -20 -20 -20 -20 -20 -20 -20 -20 -20 -20 -20 -20 -20 -20 -20
13 -3 -8 14 19 23 -5 -20 -15 5 -5 -20 -20 -20 -20 -19 -17 -19 -20 -20 -12 2 -10 -20 -13 -20 -20 -20 -20 -20 -20 -20 -20 -20 -20 -20 -20 -20 -20 -20 -20 -20 -20 -20
9 -3 -5 7 -1 1 -3 -20 -20 -17 -8 -20 -20 -20 -20 -20 -3 6 -6 -8 -20 -20 -20 -19 -20 -20 -20 -20 -20 -20 -20 -20 -20 -20 -20 -20 -20 -20 -20 -20 -20 -20 -20 -20
7 -5 7 3 -3 -17 -20 -20 -20 -20 -20 -20 -20 -20 -20 -20 -20 -20 -20 -20 -20 -20 -20 -20 -20 -20 -20 -20 -20 -20 -20 -20 -20 -20 -20 -20 -20 -20 -20 -20 -20 -20 -20 -20
28 19 24 19 18 -20 -20 -20 -14 -7 -20 -20 -15 -20 -20 -20 -20 -20 -20 -20 -20 -20 -3 -18 -20 -20 -20 -20 -20 -20 -20 -20 -20 -20 -20 -20 -20 -20 -20 -20 -20 -20 -20 -20
32 31 19 3 14 -9 -20 -20 -20 -19 -19 7 2 -17 -20 -20 -20 -20 -20 -20 -20 -20 -20 -20 -20 -20 -20 -20 -20 -20 -20 -20 -20 -20 -20 -20 -20 -20 -20 -20 -20 -20 -20 -20
26 12 -2 -20 -20 -20 -20 -20 -20 -6 0 -3 -16 -20 -20 -20 -20 -20 -20 -9 -20 -20 -20 -20 -20 -20 -20 -20 -20 -20 -20 -20 -20 -20 -20 -20 -20 -20 -20 -20 -20 -20 -20 -20
28 6 3 -20 -20 -20 -20 -20 -20 -5 -6 -20 -20 -20 -20 -20 -20 -20 -20 -20 -20 -20 -20 -20 -20 -20 -20 -20 -20 -20 -20 -20 -20 -20 -20 -20 -20 -20 -20 -20 -20 -20 -20 -20
20 7 -17 -20 -20 -20 -20 -20 -20 -0 -12 -20 -20 -20 -20 -20 -20 -20 -20 -20 -20 -20 -20 -20 -20 -20 -20 -20 -20 -20 -20 -20 -20 -20 -20 -20 -20 -20 -20 -20 -20 -20 -20 -20

GFSNW_prec_radar_027.txt.gz
Reflectivity
21 22 28 13 24 24 26 10 24 7 -2 24 21 14 -8 22 31 34 31 26 25 27 -15 -20 -20 -20 -20 -20 -9 14 31 35 28 36 7 -20 -19 -20 -20 -20 -20 -20 -20 -17
31 22 26 16 13 19 4 17 24 18 11 18 15 -1 10 31 32 31 26 30 25 8 -20 -11 -20 -20 -20 -20 -20 -1 -17 -15 34 34 17 15 9 -20 -20 -20 -20 -20 -20 -20
19 30 16 15 13 24 3 19 22 22 27 7 14 4 15 32 31 32 27 24 24 0 -20 -20 -20 -20 -20 -20 -20 -20 13 -7 -20 4 -20 -3 -18 -20 -20 -20 -20 -20 -20 -20
26 20 21 11 -8 18 3 24 16 1 26 13 -3 11 18 30 34 31 25 21 10 -16 -20 -20 -20 -20 -20 -20 -20 15 -8 1 -20 -19 8 -20 -20 -20 -11 -20 -2 -20 -20 -20
25 34 26 -20 7 18 13 27 16 -8 2 -19 -6 -11 19 30 33 28 21 14 18 -20 -20 -20 -20 -20 -20 -20 -20 -20 -0 -5 -20 -20 -20 -20 -20 -20 -20 -17 -20 -20 -20 -20
27 29 14 -20 7 18 8 18 6 -4 -20 -15 9 6 11 31 31 20 12 17 4 -18 -20 -20 -20 -20 -20 -20 -20 -20 -11 -20 -20 -15 -20 -20 -20 -20 -20 -20 -20 -20 -20 -20
30 20 26 3 11 12 -10 1 13 23 5 -20 -20 -10 11 34 31 19 21 -10 5 -20 -20 -10 12 -20 -20 -16 -20 -20 -20 -9 1 13 -20 -12 -20 -20 -20 -20 -20 -20 -20 -20
36 27 29 20 14 13 -9 -0 20 14 -10 -20 -20 -19 30 31 27 22 -16 -16 -18 -4 30 23 11 -20 -20 -9 7 -17 -18 -19 -13 -0 -20 -20 -20 -20 -20 -20 -20 -20 -20 -20
31 17 5 5 11 13 5 -3 23 25 -1 -20 -20 -10 21 31 31 21 -20 -20 -20 -0 26 -8 -11 -12 17 14 -8 -7 -15 2 11 12 -20 -1 -20 -20 -20 -20 -20 -20 -20 -20
30 33 14 -3 6 15 -2 6 24 26 13 -20 -20 9 25 21 29 31 -17 -20 -20 -20 9 30 17 20 -7 17 -4 11 16 -13 6 -13 -9 -20 -20 -20 -20 -20 -20 -20 -20 -20
25 28 26 4 11 14 3 10 24 25 -1 -20 -20 22 -15 -18 23 24 22 8 -16 -20 10 -7 -16 -20 -11 -18 -20 -20 -1 25 -5 5 -5 -20 -20 -20 -20 -20 -20 -20 -20 -20
23 20 22 14 14 8 -9 15 20 27 7 -20 -20 2 -20 -20 21 25 19 19 3 -11 -20 -20 -20 -20 -20 -20 -20 -20 -2 -19 -20 -19 -20 -7 -16 -20 -20 -20 -20 -20 -20 -20
29 22 10 22 14 12 -17 11 29 11 -6 -20 -20 -20 -20 -20 19 22 29 23 31 24 13 29 20 -20 -20 -3 -20 -20 -20 -7 -19 -19 -20 -20 -20 -20 -20 -20 -20 -20 -20 -20
30 16 9 19 4 11 -3 8 30 9 -4 -20 -17 -20 -17 -20 9 -1 24 34 -8 23 28 27 29 16 6 3 -14 -20 -20 -20 -20 -20 -20 -20 -20 -20 -20 -20 -20 -20 -20 -20
16 12 18 20 8 9 -3 4 31 17 -20 -2 -10 -20 -20 -20 -19 12 -20 -20 -18 7 -15 -2 8 -11 4 -19 -20 -20 -20 -7 -20 -20 -20 -20 -20 -20 -20 -20 -20 -20 -20 -20
19 21 8 15 7 -16 3 24 32 28 -19 -16 -20 -20 -20 -20 -20 -20 1 0 -17 -18 -20 -20 -20 -20 -20 -20 -20 -20 -20 -20 -20 -20 -20 -20 -20 -20 -20 -20 -20 -20 -20 -20
27 4 17 14 0 -7 9 17 19 27 24 4 -14 -14 -20 -20 -20 -20 -20 -20 -9 -20 -20 -20 -20 -20 -20 -20 -20 -20 -20 -20 -20 -20 -20 -20 -20 -20 -20 -20 -20 -20 -20 -20
30 24 20 14 11 10 15 0 15 28 26 25 23 -12 -20 -20 -20 -20 -20 -20 -20 -15 1 -20 -15 -20 -20 -20 -20 -20 -20 -20 -20 -20 -20 -20 -20 -20 -20 -20 -20 -20 -20 -20
29 16 15 15 4 9 25 23 12 3 31 32 24 0 -2 -20 -20 -20 -20 -20 -19 -20 -20 -20 -20 -20 -20 -4 -2 -20 -20 -20 -20 -20 -20 -20 -20 -20 -20 -20 -20 -20 -20 -20
31 20 19 12 -2 10 25 8 -14 -17 14 11 -4 -20 -20 -16 -20 -19 -20 -20 -20 11 -20 -20 -16 -20 -20 -11 2 -20 -20 -20 -20 -20 -20 -20 -20 -20 -20 -20 -20 -20 -20 -20
33 32 20 9 18 0 -4 8 -11 -14 -13 -10 -16 -20 -20 -20 -20 -15 -18 -11 -12 -19 -10 -13 -20 -20 -11 -2 -13 -20 -20 -20 -20 -20 -20 -20 -20 -20 -20 -20 -20 -20 -20 -20
29 9 16 -2 5 23 -1 -20 -20 -20 -20 -9 -10 -20 -20 -20 -19 -20 -17 -20 -20 -20 -20 -14 -20 -20 -20 -20 -20 -20 -20 -20 -20 -20 -20 -20 -20 -20 -20 -20 -20 -20 -20 -20
32 22 23 27 33 -4 -17 -20 -1 -20 -17 -19 -8 -14 -20 -20 -20 -20 -20 -20 -20 -20 -18 -18 -20 -20 -20 -20 -20 -20 -20 -20 -20 -20 -20 -20 -20 -20 -20 -20 -20 -20 -20 -20
33 28 22 -7 -3 -19 -20 -20 -20 -20 -14 5 3 -5 -20 -20 -20 -20 -20 -20 -20 -20 -20 -20 -20 -20 -20 -20 -20 -20 -20 -20 -20 -20 -20 -20 -20 -20 -20 -20 -20 -20 -20 -20
31 26 -13 -3 -20 -20 -20 -20 -20 -7 -6 -2 -9 -19 -20 -20 -20 -20 -20 -13 -20 -20 -20 -20 -20 -20 -20 -20 -20 -20 -20 -20 -20 -20 -20 -20 -20 -20 -20 -20 -20 -20 -20 -20
32 19 -14 -9 -17 -20 -20 -20 -20 -13 1 3 -13 -20 -20 -20 -20 -20 -20 -20 -20 -20 -20 -20 -20 -20 -20 -20 -20 -20 -20 -20 -20 -20 -20 -20 -20 -20 -20 -20 -20 -20 -20 -20
26 9 -19 -20 -20 -20 -20 -16 -2 10 -3 -20 -20 -20 -20 -20 -20 -20 -20 -20 -20 -20 -20 -20 -20 -20 -20 -20 -20 -20 -20 -20 -20 -20 -20 -20 -20 -20 -20 -20 -20 -20 -20 -20

GFSNW_prec_radar_030.txt.gz
Reflectivity
35 35 32 28 29 25 26 20 27 10 18 33 28 9 -8 -20 1 33 29 30 29 23 13 -6 -3 -20 -20 -12 -20 -8 -13 29 30 14 32 35 6 -14 5 -20 -20 -18 -20 -20
36 27 36 23 30 -10 -9 22 32 14 16 22 21 -4 -20 -16 4 30 30 26 27 19 3 -0 -20 -20 -14 -16 -20 -19 13 26 26 22 19 23 29 -18 18 -20 -20 -20 -20 -20
27 23 32 21 41 1 -20 26 21 27 30 19 16 7 -14 3 23 32 32 31 28 20 6 -5 -17 -6 -20 -20 -15 -1 11 23 35 38 27 -6 -6 5 -2 -20 -20 -20 -20 -20
13 25 24 22 38 9 -13 26 13 11 22 14 2 10 12 12 36 29 32 31 23 7 -20 -5 -15 -20 -20 -17 2 -2 39 24 35 26 24 -14 -18 -20 -20 -20 -20 -20 -20 -20
24 31 24 41 27 7 3 33 2 9 7 -20 7 -8 6 17 30 36 29 8 12 5 -20 -20 -20 -20 -11 -20 -20 -20 8 11 18 28 -20 -20 -18 -16 -20 -20 -20 -20 -20 -20
14 13 34 31 34 9 4 27 -13 -2 -1 15 13 -20 -20 14 32 29 15 6 22 -20 -20 -20 -14 -20 -20 -20 -20 -20 -4 1 -20 -19 -20 -20 -20 -20 -20 -20 -20 -20 -20 -8
23 24 37 22 24 10 -19 10 -12 12 -3 19 10 -6 10 17 27 33 32 14 20 -15 -20 -20 7 -9 -20 -10 -20 -20 -20 -20 -20 -20 -20 -20 -20 -20 -20 -20 -20 -20 -19 -14
21 16 28 37 38 20 -15 9 -1 20 21 6 23 -20 3 5 32 35 25 13 -20 -20 -20 -20 6 17 14 7 1 -20 -20 -9 -3 -20 -20 -16 -20 -20 -20 -20 -20 -20 -20 -20
18 10 35 19 7 11 12 19 -10 24 23 21 14 -20 3 27 35 35 -2 8 -20 -20 8 -17 10 13 -10 6 -20 10 -20 -11 6 5 3 -13 -20 -20 -20 -20 -20 -20 -20 -20
13 17 32 27 22 10 10 10 -15 24 27 5 19 -20 1 30 32 32 22 -18 -20 -18 32 29 6 -20 -18 -20 -20 17 -14 -2 -9 3 -13 -20 -20 -20 -20 -20 -20 -20 -20 -20
13 26 34 17 -2 18 22 -0 -20 19 23 14 8 -20 -20 28 31 32 9 -20 -20 -15 36 4 -13 -19 -20 -20 -20 -20 -19 -2 -15 7 -20 -20 -20 -20 -20 -20 -20 -20 -20 -20
12 37 25 18 -5 20 23 3 -20 27 23 21 -19 -20 15 20 18 29 28 5 -20 -20 -16 -7 6 -18 -20 -20 -14 -20 -1 -20 -20 -20 10 -14 -20 -20 -20 -20 -20 -20 -20 -20
14 32 25 7 15 19 16 -2 19 29 22 26 -20 -20 -19 -19 -15 21 12 18 -8 -20 -20 -20 -20 -20 -20 -20 -20 -20 -20 -20 -20 -20 -20 -20 -20 -20 -20 -20 -20 -20 -20 -20
12 27 28 2 20 20 17 -12 15 25 26 12 -20 -20 -20 -20 -14 24 29 35 26 25 -1 -20 -14 -15 -15 -18 -20 -20 -20 -20 -20 -20 -1 -18 4 -20 -20 -20 -20 -20 -20 -20
12 9 22 6 21 20 12 -14 20 31 24 4 -20 -20 -20 -20 -20 23 26 35 27 17 29 26 23 27 23 21 11 -20 -20 -20 -20 -20 -4 -20 -20 -20 -20 -20 -20 -20 -20 -20
9 18 -3 18 17 22 21 22 18 27 22 -4 -17 -20 -20 -20 -20 -2 14 -19 -20 -1 -6 8 -2 -15 -20 -5 -9 10 -5 -20 -20 -20 -20 -20 -20 -20 -20 -20 -20 -20 -20 -20
10 27 15 18 19 15 21 0 1 25 21 11 -20 7 -20 -20 -20 -20 -20 4 5 -17 -20 -20 -20 -20 -18 -20 -14 -20 -20 -20 -20 -20 -20 -20 -20 -20 -20 -20 -20 -20 -20 -20
6 27 25 21 23 23 3 6 9 20 34 16 1 2 -20 -20 -20 -20 -20 -20 -20 -6 -15 -12 -20 -20 -20 -5 -14 -20 -20 -20 -20 -20 -20 -20 -20 -20 -20 -20 -20 -20 -20 -20
-0 33 27 25 20 -4 2 14 27 9 30 29 23 -19 -20 -20 -20 -20 -20 -20 -12 -20 -17 -15 -3 -5 -20 7 1 -20 -20 -20 -20 -20 -20 -20 -20 -20 -20 -20 -20 -20 -20 -20
29 35 28 25 18 12 9 22 22 25 22 15 25 9 -11 -5 -19 -19 -20 -20 -20 -7 -20 -20 -20 -7 12 -9 -7 -20 -20 -20 -20 -20 -20 -20 -20 -20 -20 -20 -20 -20 -20 -20
38 36 25 23 6 14 24 26 20 13 -15 -9 -2 18 -17 -11 -14 -14 -20 -20 -20 -18 -20 -20 -20 -20 -2 4 -16 -20 -20 -20 -20 -20 -20 -20 -20 -20 -20 -20 -20 -20 -20 -20
28 27 28 12 10 13 -13 -11 -20 -20 -20 -20 -20 -20 -20 -20 -20 -18 -15 -20 -20 -20 -20 -16 -20 -20 -7 -9 -16 -20 -20 -20 -20 -20 -20 -20 -20 -20 -20 -20 -20 -20 -20 -20
31 31 30 21 13 -1 -20 -20 -14 -20 -20 -20 -4 -5 -20 -20 -20 -20 -20 -20 -20 -20 -20 -20 -20 -20 -20 -20 -20 -20 -20 -20 -20 -20 -20 -20 -20 -20 -20 -20 -20 -20 -20 -20
36 32 21 17 15 -20 -20 -20 -20 -20 -20 1 5 -2 -20 -20 -20 -20 -20 -20 -20 -20 -20 -20 -20 -20 -20 -20 -20 -20 -20 -20 -20 -20 -20 -20 -20 -20 -20 -20 -20 -20 -20 -20
32 25 4 -17 -20 -20 -20 -20 -20 -20 -12 3 -5 -18 -20 -20 -20 -20 -20 -20 -20 -20 -20 -20 -20 -20 -20 -20 -20 -20 -20 -18 -7 -8 -20 -20 -20 -20 -20 -20 -20 -20 -20 -20
28 22 -9 -20 -20 -20 -20 -20 -20 -17 -10 1 -12 -20 -20 -20 -20 -20 -20 -20 -20 -20 -20 -20 -20 -20 -20 -20 -20 -20 -9 -19 -20 -20 -20 -20 -20 -20 -20 -20 -20 -20 -20 -20
25 13 -13 -20 -20 -20 -20 -20 -13 -2 -9 -20 -20 -20 -20 -20 -20 -20 -20 -20 -20 -20 -20 -20 -20 -20 -20 -20 -20 -20 -20 -20 -20 -20 -20 -20 -20 -20 -20 -20 -20 -20 -20 -20

GFSNW_prec_radar_033.txt.gz
Reflectivity
21 28 38 33 29 25 46 15 38 30 29 27 29 15 -13 -20 -20 -20 -3 20 26 28 20 19 6 -19 -20 -20 -20 -19 -14 21 2 9 32 15 33 36 29 -19 -20 -20 -20 -20
22 35 34 38 27 38 45 18 11 28 38 28 19 4 -20 -20 -15 2 11 26 28 23 30 29 -20 -20 -20 -20 -20 -20 -16 17 16 14 -2 9 26 28 -20 14 11 -20 -20 -20
25 31 26 35 35 37 31 22 18 38 39 19 -15 -12 0 -5 -11 -11 27 23 32 30 29 8 -8 -20 -20 -20 -20 -6 -9 25 29 8 34 22 30 -9 -20 16 11 16 -20 -20
22 30 23 18 31 36 23 17 28 -9 24 16 -15 -2 -1 -19 1 16 28 31 26 27 22 7 -19 -20 -20 -20 -20 -13 1 34 38 38 25 3 15 21 -1 -4 15 10 -20 -20
13 30 29 25 22 41 25 19 -17 5 -13 -20 -20 7 10 3 -6 21 28 34 32 23 8 -20 -20 -20 -20 -20 2 11 -1 20 25 33 17 -7 -4 -20 -18 -20 2 -20 -20 -20
17 22 18 28 19 42 34 17 -20 23 20 -20 -11 -18 3 -13 16 22 29 31 23 20 -10 -20 -20 -5 -20 -20 -20 -17 9 6 27 12 30 24 -15 -14 -20 -20 -20 -7 9 -20
14 17 17 22 31 34 34 13 -9 8 24 -6 -4 -0 30 9 17 25 27 22 19 4 -20 -20 -20 -1 -20 -20 -20 -18 -18 -20 23 14 -6 9 -20 -20 -20 -20 -14 -17 -11 -10
2 17 21 33 38 38 29 18 -19 25 3 -18 -3 2 12 -1 11 26 26 23 2 -20 -20 -20 -20 8 7 -12 -20 -20 -19 19 -17 -20 -20 -20 -20 -20 -20 -20 -20 -20 -20 -20
11 19 14 33 29 17 9 24 -20 6 9 -7 -20 15 16 12 19 29 26 25 -20 -20 3 -20 -10 12 -20 -19 5 -19 -20 -20 -19 20 -19 -20 -20 -20 -20 -20 -20 -20 -20 -20
11 15 13 13 30 24 21 10 1 5 11 -3 13 20 10 6 19 34 25 -5 -20 1 -20 -17 -20 3 -20 7 -15 -10 8 2 8 -19 28 -20 -20 -20 -20 -20 -20 -20 -20 -20
-6 13 13 14 26 14 20 4 2 15 18 -0 14 20 -13 13 24 32 31 -3 -20 -1 4 -17 7 -3 -12 -20 -20 -20 19 -11 -8 -20 -20 -20 -20 -20 -20 -20 -20 -20 -20 -20
-10 14 13 31 21 9 24 13 -11 17 10 15 23 11 -19 10 28 27 32 6 -20 -19 23 20 -19 -3 -20 -20 -20 -20 -20 -20 -20 -20 11 -20 -20 -20 -20 -20 -20 -20 -20 -20
3 14 14 31 21 21 27 5 -4 22 -8 16 17 15 -20 18 31 26 28 29 -7 4 1 -14 -15 -18 -20 -20 -20 -20 -20 -20 -19 -20 -20 -20 -20 -20 -20 -20 -20 -20 -20 -20
18 13 12 31 16 23 20 -1 -0 -2 25 24 -3 -20 -20 -7 8 5 10 6 22 -7 -20 -20 -20 -20 -20 -20 -20 -20 -10 -19 -13 -20 -20 -20 -20 -20 -20 -20 -20 -20 -20 -20
15 9 8 16 5 24 18 -6 -12 8 25 27 -10 -20 -20 -20 -20 -0 20 31 33 31 -10 -20 -20 -20 -18 -10 -20 -20 -20 -20 -18 -2 -20 -20 -20 -20 -20 -20 -20 -20 -20 -20
7 7 13 14 12 23 9 13 11 7 23 29 -6 -20 -20 -20 -20 14 31 29 31 30 26 14 10 -18 -5 -13 -15 -10 -19 -16 -20 -20 -20 -20 -20 -20 -20 -20 -20 -20 -20 -20
11 -0 11 1 25 21 15 17 -20 4 22 27 -12 -17 -18 -20 -20 10 10 -13 -16 -3 12 -5 -2 -20 -20 -20 -20 -15 -19 -20 -20 -20 -20 -20 -20 -20 -20 -20 -20 -20 -20 -20
11 10 14 16 28 24 12 -20 -9 -4 18 23 19 -19 -20 -20 -20 -20 -18 -20 -9 9 -7 -20 -16 -20 -20 -20 -20 -20 -20 -20 -20 -20 -20 -20 -20 -20 -20 -20 -20 -20 -20 -20
11 5 22 35 22 13 7 14 7 21 17 29 10 -19 -20 -20 -20 -20 -20 -20 -20 -20 -11 -17 -20 -20 -20 -18 -20 -20 -20 -20 -20 -20 -20 -20 -20 -20 -20 -20 -20 -20 -20 -20
-3 27 40 32 11 16 3 -6 6 32 26 21 25 -19 -20 -20 -20 -20 -20 -20 -9 -18 -20 -20 -20 1 11 3 1 -20 -15 -20 -20 -20 -20 -20 -20 -20 -20 -20 -20 -20 -20 -20
34 39 30 14 18 3 -0 23 0 34 33 14 -3 -20 -19 -20 -11 -10 -20 -20 -9 -20 -20 -20 -20 -20 -10 -20 -20 -5 -17 -20 -20 -20 -20 -20 -20 -20 -20 -20 -20 -20 -20 -20
31 23 20 18 18 4 11 14 20 -4 -20 -20 -17 -20 8 -10 -16 -10 -20 -20 -20 -20 -20 -20 -20 8 10 -1 -20 -20 -20 -20 -20 -20 -20 -20 -20 -20 -20 -20 -20 -20 -20 -20
34 21 32 13 15 -5 -20 -20 -20 -20 -20 -20 -20 -20 -20 4 -13 -20 -20 -20 -20 -20 -20 -20 -20 -20 -19 -20 -20 -20 -20 -20 -20 -20 -20 -20 -20 -20 -20 -20 -20 -20 -20 -20
35 33 17 -9 5 -20 -20 -20 -20 -20 -18 -7 -9 -20 -20 -20 -20 -20 -20 -20 -20 -20 -20 -20 -20 -20 -20 -20 -20 -20 -20 -20 -20 -20 -20 -20 -20 -20 -20 -20 -20 -20 -20 -20
32 29 3 -20 -20 -20 -20 -20 -20 -12 5 -5 -19 -20 -20 -20 -20 -20 -20 -20 -20 -20 -20 -20 -20 -20 -20 -20 -20 -20 -20 -20 -20 -20 -20 -18 -20 -20 -20 -20 -20 -20 -20 -20
29 14 -4 -20 -20 -16 -20 -16 -20 -11 -3 -6 -11 -20 -20 -20 -20 -20 -20 -20 -20 -20 -20 -20 -20 -20 -20 -20 -20 -20 -20 -20 -18 -20 -20 -20 -20 -20 -20 -20 -20 -20 -20 -20
24 7 -20 -20 -20 -20 -20 -6 5 6 -14 -20 -20 -20 -20 -20 -20 -20 -20 -20 -20 -20 -20 -20 -20 -20 -20 -20 -20 -20 -20 -16 -20 -20 -20 -20 -20 -20 -20 -20 -20 -20 -20 -20

GFSNW_prec_radar_036.txt.gz
Reflectivity
-16 14 37 27 33 30 9 43 41 41 25 39 29 29 -16 -20 -20 -20 -20 -18 -20 10 17 20 17 -20 -20 -20 -20 -20 -20 -2 13 14 -7 4 22 19 25 28 28 32 15 19
-20 10 31 30 31 24 22 40 37 36 30 28 10 9 5 -20 -20 -20 -16 -7 -9 15 21 27 6 -20 -20 -20 -20 -20 -20 16 7 -9 23 17 31 24 24 34 38 11 -20 -14
-17 10 23 31 32 38 38 32 43 27 32 31 -6 1 -8 -20 -20 -20 2 -17 7 26 20 17 1 -20 -20 -20 -20 -20 -11 -7 12 13 25 36 42 39 37 40 28 -20 -0 -20
-20 -3 4 23 27 31 19 36 28 26 33 20 8 -7 -18 -7 -15 -20 -20 13 25 25 28 11 10 -20 -20 -20 -20 -20 -3 -8 19 30 33 18 38 33 35 22 -11 -7 18 -19
-20 -17 12 17 22 26 39 35 3 8 -4 6 11 -2 -10 -15 4 -3 8 24 25 29 26 -11 -20 -20 -20 -20 -14 2 2 17 31 28 24 39 32 -12 38 4 21 14 -12 20
-20 -19 -3 19 29 34 36 22 -16 -20 -14 5 8 -18 -4 -14 21 5 9 24 33 27 16 -20 -20 -20 -20 -20 -20 -20 4 18 32 41 12 -1 4 -20 -18 -13 20 20 -4 -6
-20 -20 -20 19 35 36 32 28 13 6 18 -13 -20 -5 -20 -17 7 30 16 24 28 17 2 -20 -20 -20 -20 -20 -20 -20 -20 -15 15 36 -16 -8 -15 -20 -18 -3 -16 -20 -20 -20
-20 -20 -17 18 26 31 18 18 2 -18 -14 -17 12 14 -18 -3 -0 22 24 29 33 17 -20 -20 -20 13 7 -4 -20 -20 -20 -20 7 17 -6 -19 -20 -19 -20 -20 -14 -20 -20 -20
-20 -20 -10 19 25 22 27 23 -7 0 -3 25 7 -20 -3 11 21 23 31 28 -4 -15 -20 -20 -20 -1 -20 -20 -20 -20 -20 -20 -9 -20 -20 -20 -20 -20 -20 -20 -20 -20 -20 -20
-17 -2 1 15 -11 17 25 32 34 -5 -12 -19 20 -1 24 19 25 19 31 20 -11 -18 1 -20 -20 -4 -20 -20 -20 -7 -20 -20 -20 -20 -0 -20 -20 -20 -20 -20 -20 -20 -20 -20
-20 -20 -17 15 3 33 22 30 19 -9 9 -11 4 15 16 25 11 31 31 11 -11 -20 4 -20 -20 -20 -20 -20 -20 -20 -13 -20 -20 -20 -20 -20 -20 -20 -20 -20 -20 -20 -20 -20
-20 -20 13 12 -3 29 19 19 -20 20 4 -3 -6 18 12 20 -16 26 29 -2 -20 -20 -20 -20 -20 -20 -20 -20 -20 -20 -20 -20 -20 -20 -20 -20 -20 -20 -20 -20 -20 -20 -20 -20
-20 -18 16 8 -9 21 29 18 -17 -11 14 -0 -10 17 0 5 16 22 31 25 -20 -20 -17 11 33 3 -20 -20 -20 -20 -20 -20 -20 -20 -20 -20 -20 -20 -20 -20 -20 -20 -20 -20
-20 8 2 1 14 20 20 19 -12 26 5 -18 -13 20 -20 -3 26 26 28 23 17 -13 -11 36 26 -18 -20 -20 -20 -20 -20 -20 -20 -20 -20 -20 -20 -20 -20 -20 -6 -20 -18 -20
0 14 0 -1 19 14 11 12 3 -3 0 21 13 16 -20 -20 20 18 21 21 20 24 13 7 -17 -15 -20 -20 -20 -20 -20 -20 -1 4 -20 -20 -17 -19 -20 -20 -20 -20 -20 -20
-7 1 10 -14 21 27 27 18 -8 3 -15 24 13 2 -20 -20 -15 3 21 26 26 24 15 -4 -20 -20 -20 -20 -20 -12 -17 -20 -20 20 -20 -20 -20 -20 -20 -20 -20 -20 -20 -20
10 10 -1 1 22 26 23 -17 14 -10 -17 20 -7 -17 11 -20 -20 13 29 19 27 28 28 26 -3 -20 -20 -20 -20 -9 -20 -0 -4 -4 -20 -20 -20 -15 -20 -20 -20 -20 -20 -20
11 8 -3 11 19 29 19 -18 8 -16 -5 5 20 -15 -20 -20 -9 18 19 5 13 3 10 -19 -20 -18 -20 -20 -20 -20 -20 -11 -13 -20 -20 -20 -17 -10 -20 -20 -20 -20 -20 -20
12 15 -5 17 22 19 -5 14 12 -20 -19 -1 -1 3 -14 -20 -20 -20 -20 -20 -15 0 -6 2 -6 -20 -20 -16 -20 -20 -20 -20 -20 -20 -20 -20 -20 -20 -20 -20 -20 -20 -20 -20
-12 6 26 26 15 21 -13 17 21 34 23 -7 -4 -20 -20 -20 -20 -20 -20 -20 -20 -20 -20 -20 -20 -20 -20 -20 -20 -11 -17 -20 -20 -20 -20 -20 -20 -20 -20 -20 -20 -20 -20 -20
-8 28 26 20 24 -12 17 9 29 1 18 23 -16 -20 -10 2 -2 -20 -20 -20 -18 -20 -20 -20 -20 -20 -20 -20 -20 -20 -20 -20 -20 -20 -20 -20 -20 -20 -20 -20 -20 -20 -20 -20
25 25 27 27 25 27 13 24 12 -17 -20 -10 -20 -20 -20 13 22 -19 -20 -20 -20 -20 -20 -20 -20 -19 -20 -20 -20 -20 -20 -20 -20 -20 -20 -20 -20 -20 -20 -20 -20 -20 -20 -20
33 33 37 14 23 -10 -18 -18 -17 -20 -20 -20 -20 -20 -9 23 23 -9 -20 -20 -20 -20 -20 -20 -20 -20 -20 -20 -20 -20 -20 -20 -20 -20 -20 -20 -20 -20 -20 -20 -20 -20 -20 -20
32 32 9 -20 -20 -20 -20 -20 -20 -20 -20 -5 -13 -20 -20 -16 -20 -20 -20 -20 -20 -20 -20 -20 -20 -20 -20 -20 -20 -20 -20 -20 -20 -20 -20 -20 -20 -20 -9 -10 -20 -20 -20 -20
30 23 -11 -20 -20 -20 -20 -20 -20 -16 -5 5 -5 -20 -20 -20 -20 -20 -20 -20 -20 -20 -20 -20 -20 -20 -20 -20 -20 -20 -20 -20 -20 -20 -20 -20 -19 -20 -20 -20 -20 -20 -20 -20
29 18 -12 -20 -20 -20 -20 -16 6 -0 -18 -16 -19 -20 -20 -20 -20 -20 -20 -20 -20 -20 -20 -20 -20 -20 -20 -20 -20 -20 -20 -20 -20 -20 -18 -5 -17 -19 -20 -20 -20 -20 -20 -20
19 12 -5 -20 -20 -20 -20 -13 -1 -9 -20 -20 -20 -20 -20 -20 -20 -20 -20 -20 -20 -20 -20 -20 -20 -20 -20 -20 -20 -20 -20 -20 -20 -9 -6 -15 -20 -20 -20 -20 -20 -20 -20 -20

GFSNW_prec_radar_039.txt.gz
Reflectivity
-19 -20 1 19 36 29 16 26 -15 10 33 41 37 22 -16 -20 -20 -20 -20 -20 -20 -20 -20 11 3 -19 -20 -20 -20 -19 -20 -20 -20 -20 -18 -20 -20 2 12 20 17 26 26 7
11 -20 -10 14 37 29 32 6 14 39 31 30 37 19 -20 -20 -20 -20 -20 -20 -20 -20 6 24 -3 -20 -20 -20 -20 -20 -20 -1 -17 -20 -5 31 30 19 23 19 27 22 25 5
8 -20 -14 -7 28 37 23 30 37 42 39 29 -9 -6 -20 -20 -20 -2 -20 -20 -9 10 5 14 11 10 -20 -20 -20 -20 -20 -7 -20 0 13 23 27 25 29 37 22 19 23 -9
1 -7 -20 -3 19 29 28 39 34 33 34 23 -17 -20 -20 -20 5 -15 -20 4 -5 3 29 5 10 -1 -20 -20 -20 -20 -11 1 -20 9 13 27 36 35 26 35 28 23 -10 8
-20 -20 -3 6 17 13 3 20 25 9 -1 8 -20 -20 -20 20 -20 -14 1 -20 -20 29 27 -1 20 -2 -20 -20 -20 -20 -17 -2 18 11 32 41 37 24 31 32 29 30 13 14
-15 -17 -20 4 14 26 36 34 12 11 16 -12 -3 -20 13 -7 -14 8 -10 -5 31 23 23 27 0 -3 -20 -20 -20 -20 -18 19 14 15 34 36 29 37 18 8 18 19 16 -6
-17 -10 -20 3 14 22 29 20 27 19 7 -12 -14 12 -6 -16 -20 -3 24 29 27 21 27 10 -6 -8 -20 -20 -20 -20 -5 -5 15 14 27 15 18 13 16 39 20 -18 14 5
-20 -10 -20 1 7 22 22 27 33 -0 -7 -19 -20 14 -5 5 -2 25 22 28 19 30 31 -20 -19 4 -20 -20 -20 -5 -3 3 5 25 -7 -16 4 -20 -20 -20 -6 3 7 14
-14 -20 -20 -20 4 11 18 9 15 11 -19 3 16 22 15 -6 -13 17 28 22 28 26 28 -19 -20 0 -20 -8 -12 -13 7 -17 12 12 -19 -20 -20 -20 -20 -20 -3 -20 -20 -20
-7 -20 -20 -20 11 8 12 22 30 14 -20 -20 -20 -20 -20 6 17 27 29 32 23 24 14 -20 -20 -18 -20 -20 -20 7 -15 4 5 -6 -17 -20 -20 -20 -20 -20 -20 -20 -20 -20
1 -20 -20 -14 14 13 11 25 23 12 -20 -20 -20 -20 -19 -16 26 28 28 31 22 -10 -3 -20 -20 -20 -20 -20 -20 -20 -20 -20 -20 -20 -20 -20 -20 -20 -20 -20 -20 -20 -20 -20
11 -20 -20 5 9 13 18 6 25 23 7 11 -11 -20 -10 20 28 29 26 24 -14 -20 11 -20 -20 -20 -20 -20 -20 -20 -20 -20 -20 -20 -20 -20 -20 -20 -20 -20 -20 -20 -20 -20
-20 -20 -6 13 -3 17 22 11 22 -3 11 4 -19 -20 -3 21 22 16 33 21 8 14 -20 -20 -20 -20 -20 -20 -20 -20 -20 -20 -20 -20 -20 -20 -20 -20 -20 -20 -20 -20 -20 -20
-18 10 13 1 10 12 16 12 8 -20 -15 -20 -20 -16 23 4 24 24 20 25 2 -8 -2 -20 -20 15 3 -20 -20 -20 -20 -20 -20 -20 -20 -20 -20 -20 -20 -20 -20 -20 -20 -20
-1 13 5 10 -2 -19 -5 -5 3 1 18 17 17 -3 21 -5 27 26 24 23 15 -16 9 13 19 24 -12 -20 -20 -20 -20 -20 -20 -20 -20 -20 -20 -20 -20 -20 -20 -18 -15 -13
16 11 10 8 -7 10 21 14 2 9 -5 9 12 -17 12 -20 11 22 23 22 20 16 6 7 -10 -20 -16 -20 -20 -20 -20 -20 -20 -20 -20 -20 -20 -20 -20 -20 -20 -20 -20 -20
-3 -4 8 0 13 10 4 11 -19 -17 3 8 -2 -16 -20 -19 -9 2 14 23 22 17 25 27 24 -8 -20 -20 -19 -14 -20 -20 -20 -20 -20 -20 -20 -20 -20 -20 -20 -20 -20 -20
9 9 -6 7 16 17 18 -20 -2 -20 -6 -18 20 -15 -18 -19 -9 18 13 18 24 26 25 -0 -10 -14 -20 -20 -20 -20 -20 -20 -20 -20 -20 -20 -20 -20 -20 -16 -6 -20 -20 -20
17 12 -7 13 15 25 6 12 6 -20 -20 -20 -20 -4 1 -20 -2 1 -14 7 -10 -8 -8 -18 -19 -20 -20 -20 -19 -20 -20 -20 -20 -20 -20 -20 -20 -20 -12 -20 -20 -20 -20 -20
6 -11 21 23 -7 6 31 12 8 -1 -19 -20 -20 -20 -18 -20 1 -20 -20 -19 -18 -19 -20 -20 -20 -0 -1 -20 -20 -20 -16 -20 -20 -18 -20 -20 -12 -20 -20 -20 -20 -20 -20 -20
12 12 25 23 13 29 23 30 9 24 27 -7 -20 -20 -20 -20 -10 -20 -20 -20 -10 -20 -20 -20 -20 -20 -20 -20 -20 -20 -20 -20 -20 -20 -10 -20 -20 -20 -20 -20 -20 -20 -20 -20
21 25 29 22 28 20 27 12 1 10 -20 -20 -20 -20 -20 18 22 -17 -20 -11 -20 -20 -20 -20 -20 -20 -20 -20 -20 -20 -20 -20 -20 -20 -20 -20 -20 -20 -20 -20 -20 -20 -20 -20
29 31 35 25 21 23 9 -18 1 -19 -20 -2 -14 -20 -5 3 25 14 -11 -20 -20 -20 -20 -20 -20 -20 -20 -20 -20 -20 -20 -20 -20 -20 -20 -20 -20 -20 -20 -20 -20 -20 -20 -20
27 31 22 1 7 -20 -20 -20 -20 -20 -1 14 3 -20 -20 -8 26 29 -18 -20 -20 -20 -20 -20 -20 -20 -20 -20 -20 -20 -20 -20 -20 -20 -20 -20 -20 -20 -20 -20 -20 -20 -20 -20
26 29 19 -12 -20 -20 -20 -20 -20 -20 -20 -20 -20 -20 -20 -20 -15 -20 -20 -20 -20 -20 -20 -20 -20 -20 -20 -20 -20 -20 -20 -20 -20 -20 -20 -20 -20 -20 -20 -20 -4 -20 -20 -20
24 19 -7 -20 -20 -20 -15 -20 -11 -19 -9 -20 -20 -18 -20 -20 -20 -20 -20 -20 -20 -20 -20 -20 -20 -20 -20 -20 -20 -20 -20 -20 -20 -20 -20 -20 -20 -20 -20 -20 -20 -20 -20 -20
9 2 -20 -20 -20 -20 -20 -15 -10 -20 -20 -20 -20 -20 -20 -20 -20 -20 -20 -20 -20 -20 -20 -20 -20 -20 -20 -20 -20 -20 -20 -20 -20 -20 -20 -20 9 3 -20 -20 -20 -20 -20 -20

GFSNW_prec_radar_045.txt.gz
Reflectivity
14 15 13 10 -20 -17 24 21 36 23 18 36 27 33 29 23 -20 -20 -20 -20 -20 -20 -20 -20 -20 -20 -20 -20 -20 -19 -20 11 6 -20 -20 -20 -20 -20 -20 -2 -20 -7 -4 1
4 15 -1 -20 -20 -9 23 17 36 24 17 13 4 23 33 16 -20 -14 -20 -20 -20 -20 -20 -20 -20 -11 -20 -20 -20 -20 -20 10 -20 -20 -20 -20 -8 -20 -20 -17 -14 4 9 -11
15 1 -10 -20 -20 2 30 34 36 31 40 17 8 17 20 13 25 -4 -20 -20 -20 -20 -20 -20 -20 -20 -18 -16 -20 -14 -20 -8 -20 -20 -20 -20 -20 -20 -15 19 19 -10 -19 -20
13 -4 -13 -20 -18 16 20 17 40 10 -7 6 16 -15 -14 17 -16 -20 -20 -20 -20 -20 -20 -20 -20 -20 -3 -20 -20 -5 -5 -12 -20 -20 -20 -20 -20 -13 14 29 20 14 -15 -20
-4 -1 0 -20 -17 26 29 32 29 -16 16 -7 6 3 -10 4 29 7 -20 -20 -20 -20 -20 -20 -20 -20 -11 -14 -20 -18 -9 -12 -20 -20 -16 13 24 13 28 23 21 23 8 -8
-4 -5 7 -20 -17 20 32 24 18 9 9 8 17 4 2 10 -20 -20 -20 -20 -20 -20 -20 -20 -19 17 8 -14 -15 -11 -17 -18 -19 -14 -2 -1 7 21 23 28 -4 -20 -7 -20
-11 -6 -8 -20 -20 17 28 21 25 28 6 0 -15 18 -20 -20 -20 -20 -20 -20 -20 -18 -8 7 -0 10 17 19 -18 3 9 -13 -19 10 14 19 25 29 28 3 -18 -20 -20 -20
-20 -20 -7 -20 -20 5 26 33 34 36 32 14 11 -10 -19 20 18 -19 -20 -12 -20 -2 23 28 4 -5 23 9 -17 -13 -15 -10 12 11 11 -6 1 28 13 1 -20 -20 -20 -20
-20 -20 2 -20 -20 4 15 23 24 19 28 21 -14 -20 -20 -1 -7 5 -20 -19 -5 18 29 33 -20 -20 -20 -20 -18 -20 -20 -17 10 9 3 -20 -18 -20 -19 33 14 9 -20 -3
1 1 -5 -20 -20 11 23 23 33 15 -16 -20 -20 -20 -20 -15 -4 -7 -20 -12 25 24 35 26 -20 -20 -20 -20 -20 -20 -20 2 -6 21 8 -20 -20 -20 -20 -20 -20 24 23 -20
-16 7 -20 -20 -20 -20 9 26 16 14 -7 -20 -20 -20 -20 -20 -13 5 -10 25 20 25 34 28 -18 -19 -20 -20 -20 -20 -20 -20 -20 -13 -20 -20 -20 -20 -20 -20 -20 -20 -19 -1
-20 -20 -20 -19 -18 -4 7 4 19 15 14 -20 -20 -20 -20 -20 -13 -4 24 23 33 24 31 -0 7 -20 -20 -20 -20 -20 -20 -20 -20 -20 -20 -20 -20 -20 -20 -20 -20 -20 -19 -7
-20 -20 -5 7 8 8 6 1 23 19 19 -6 -20 -20 -20 -20 -19 4 22 23 30 19 -20 -11 -18 -17 6 -20 -20 -20 -20 -20 -20 -20 -20 -20 -20 -20 -20 -20 -20 -20 -20 -20
13 -2 -5 -5 -5 4 1 5 14 20 20 -20 -20 -20 -20 -17 12 21 26 24 27 18 -18 11 -20 -18 -20 -20 -20 -20 -20 -20 -20 -20 -20 -20 -20 -20 -20 -20 -20 -20 -20 1
-10 -1 -17 -20 -20 -11 -12 -20 -17 19 6 22 8 -9 -3 -12 -3 22 24 22 20 -10 2 -8 11 -20 -20 -20 -20 -20 -20 -20 -20 -20 -20 -20 -20 -20 -20 -20 -20 -20 -20 -10
14 12 5 -19 -20 1 -20 3 -12 3 11 26 23 9 -5 -10 20 28 27 19 24 26 17 11 -8 -20 -20 -20 -11 -20 -20 -20 -20 -20 -20 -20 -20 -20 -20 -20 -20 -20 -15 -14
9 17 9 -3 -6 9 0 14 16 13 18 8 -0 23 13 -20 17 27 28 18 10 10 -11 -8 -18 -9 15 -20 -20 -20 -20 -20 -20 -20 -20 -20 -20 -20 -9 -6 -20 -15 19 -20
17 6 -20 5 -3 -4 -20 -5 8 -19 4 1 -16 9 -12 -19 19 24 23 23 15 19 11 20 14 -3 -20 -20 -20 -20 -20 -20 -20 -20 -20 -20 -20 -20 -7 13 -20 1 3 -20
8 -11 7 10 -11 -16 22 5 -2 -0 21 -10 -20 -18 -20 -20 5 22 21 16 15 17 -7 -1 4 -7 -19 -20 -20 -20 -20 -20 -20 -20 -20 -20 -20 -15 7 -12 -20 -20 -1 -18
12 -4 -3 -20 -11 24 26 10 16 16 1 -20 -20 -20 -20 -20 -20 -19 -16 4 11 -13 -20 -16 -11 -20 -20 -20 -20 -20 -20 -20 -20 -20 -20 -20 0 -6 -20 -19 -20 8 6 1
3 9 18 3 26 6 21 12 22 12 -19 -20 -20 -20 -20 -20 -20 6 -19 -19 -13 -20 -11 -20 -20 -20 -20 -20 -20 -20 -20 -20 -20 -20 -20 -20 -20 -20 -20 -20 -20 -20 -20 -20
10 21 19 27 23 29 2 2 -20 -18 -20 -15 -5 -19 -20 -20 -20 -20 -20 -20 -7 -20 -17 -20 -20 -16 -17 -20 -20 -20 -20 -20 -20 -20 -20 -20 -20 -20 -20 -20 -20 -20 -20 -20
-7 18 25 20 21 13 2 -20 -20 -20 -20 -20 -20 -20 -17 -8 -18 -8 -2 -18 -15 -20 -20 -20 -20 -15 -20 -20 -20 -20 -20 -20 -20 -20 -20 -20 -20 -20 -20 -20 -20 -20 -20 -20
12 19 9 2 -1 -20 -20 -20 -20 -20 -20 -20 9 15 12 5 -15 0 -5 -20 -20 -20 -20 -20 -20 -20 -20 -20 -20 -20 -20 -20 -20 -20 -20 -20 -20 -20 -20 -20 -20 -20 -20 -20
-11 13 -18 -19 -20 -20 -20 -20 -20 -20 -7 -12 9 7 -4 12 -7 -19 -20 -20 -20 -20 -20 -20 -20 -20 -20 -20 -20 -20 -20 -20 -20 -20 -20 -20 -20 -20 -20 -20 -20 -20 -20 -20
-20 -20 -20 -20 -20 -20 -20 -20 11 -8 -7 3 -2 -18 -20 -20 -20 -20 -20 -20 -20 -20 -20 -20 -20 -20 -20 -20 -20 -20 -20 -20 -20 -20 -20 -20 -20 -20 -20 -20 -20 -20 -19 -17
-20 -20 -20 -20 -20 -20 -20 -20 11 -18 -20 -19 -17 -20 -20 -20 -20 -20 -20 -15 -6 -19 -20 -20 -20 -20 -20 -20 -20 -20 -20 -20 -20 -20 -20 -20 -20 -20 -20 -20 1 -15 -20 -20

GFSNW_prec_radar_048.txt.gz
Reflectivity
17 -8 -4 6 5 -5 10 19 32 26 20 24 16 5 21 21 1 5 -20 -20 -20 -20 -20 -20 -20 -20 -20 -20 -20 -19 -20 3 3 -19 -20 -20 -20 2 4 5 -20 -2 -20 -20
-20 -5 10 0 1 -3 25 27 35 23 21 17 4 6 36 23 9 4 -20 -20 -20 -20 -20 -20 -20 -20 -20 -20 -20 -20 -16 1 -2 -20 -15 -20 -6 -20 -20 -17 -13 -6 7 -18
6 -6 -17 -20 -20 8 22 35 33 24 33 12 -1 -6 27 5 -18 -19 -20 -20 -20 -20 -20 -20 -20 -20 -20 -20 -20 -20 -20 -15 -20 -20 -20 -20 -19 -20 -20 -13 12 -20 -20 -20
-19 -5 -20 -19 -20 -0 4 34 30 -6 35 9 9 -9 21 -20 6 -14 -20 -20 -20 -20 -20 -20 -20 -20 -20 -20 -17 -20 -10 6 -1 -20 -20 -20 -20 -20 -18 18 6 17 -4 7
-8 -7 -20 -19 -20 -20 1 27 30 33 24 5 14 -20 4 -20 -20 15 -20 -20 -20 -20 -20 -20 -20 -20 -20 -20 -16 1 4 -7 1 2 -20 -20 -20 -3 18 14 16 23 -3 -11
-4 -13 -20 -19 -20 -15 23 6 10 12 11 2 -2 -2 -20 -20 -20 -20 18 -20 -20 -20 -20 -20 -20 -20 -20 -14 -14 3 2 -1 -5 -20 -20 -19 -2 4 16 22 18 21 -2 -19
-7 -12 -18 -15 -20 1 21 15 19 17 8 7 -4 -20 -20 -20 -4 7 -20 -20 -20 -20 -20 -20 -19 -20 -20 8 5 -20 18 -5 8 -20 -19 4 21 20 12 -10 -4 -14 -20 -20
-20 6 1 -13 -20 -10 13 13 30 25 21 0 11 13 10 -20 -20 -20 -20 -20 -20 -20 -20 13 -2 7 1 8 24 12 6 15 15 7 1 -15 30 24 28 -20 -6 10 -20 -20
-20 -9 14 -20 -20 1 14 30 34 28 28 -2 -20 -19 -20 -20 -11 -19 2 -2 -20 4 -7 6 -6 -19 -20 -10 3 -18 9 10 -1 14 10 -20 -20 -20 -20 28 25 -3 -20 18
-12 2 -19 -20 -0 10 9 11 20 16 23 -20 -1 9 -20 -7 -20 -2 -12 -10 7 5 6 15 5 -7 -20 -20 -20 1 12 17 -6 3 13 -20 -20 -20 -20 -20 11 30 16 5
-20 -20 -20 -20 3 -20 -6 6 21 20 13 -8 -20 -20 -20 -20 -3 -2 -20 -5 -9 13 16 16 -6 -20 -20 -13 -10 -20 -11 -9 2 -0 10 -17 -20 -20 -20 -20 -20 -14 18 24
-20 -20 -20 -19 -18 10 2 10 1 8 12 -19 -19 -20 -20 -19 -20 -20 -20 13 8 5 20 19 -20 -20 -20 -20 -3 -20 -20 -20 -20 -20 -20 -20 -20 -20 -20 -20 -20 -20 -20 -20
1 12 -16 -18 -20 -18 10 3 12 -17 -2 -20 -20 -20 -20 -20 -20 -20 12 5 20 16 -2 14 -5 8 -20 -20 -20 -20 -20 -20 -20 -20 -20 -20 -20 -20 -20 -20 -20 -20 -20 -20
-8 -12 -6 -20 -20 -20 -2 2 3 -6 -10 6 -20 -20 -20 -20 -20 -12 17 24 23 26 19 14 7 -20 -20 -20 -20 -20 -20 -20 -20 -20 -20 -20 -20 -20 -20 -20 -20 -20 -20 -20
10 11 13 -10 -19 -20 -15 -20 -14 6 4 11 7 -19 -20 -4 -10 25 27 28 25 33 24 14 2 -20 2 -20 -20 -20 -20 -20 -20 -20 -20 -20 -20 -20 -20 -20 -20 -20 -20 -20
12 -11 -20 4 -20 -20 1 -16 -6 10 11 9 -7 7 -18 -12 23 28 27 26 17 19 19 18 -6 -20 -15 -20 -12 -20 -20 -20 -20 -20 -20 -20 -20 -20 -20 -20 -20 -20 -20 6
17 12 0 -2 -8 12 -17 -16 9 5 9 5 5 15 17 -4 20 29 31 19 9 2 19 27 -18 -20 -11 7 -15 -20 -20 -20 -20 -20 -20 -20 -20 -20 -20 -20 -20 -20 -19 7
16 13 -10 12 13 8 -12 -4 -0 -12 -0 4 -7 -15 5 -6 25 29 28 27 17 16 14 1 -15 -20 -20 -20 -20 -20 -20 -20 -20 -20 -20 -20 -20 -20 -20 -20 -7 -13 9 5
14 12 12 7 -7 -8 -14 -7 14 -7 19 9 -10 -13 -18 -20 -9 25 27 22 16 2 1 8 1 4 -14 -20 -20 -20 -20 -20 -20 -20 -20 -20 -20 -20 -20 -13 11 -17 -20 -20
12 -17 -19 -3 9 21 17 21 18 -12 14 -8 -15 -20 -20 -20 -20 -5 19 24 27 20 -11 13 -11 -19 -20 -20 -20 -20 -20 -20 -20 -20 -20 -20 -20 -20 -5 1 -20 -20 5 8
18 18 18 -13 24 24 10 7 -11 6 -19 -20 -20 -20 -20 -20 -16 -16 -17 7 -10 -20 -20 -20 -20 -20 -20 -20 -20 -20 -20 -20 -20 -20 -14 -10 -20 -20 -20 -8 -11 -20 -15 -2
-3 21 12 16 9 -2 -13 -8 -20 -17 -19 -20 -13 -15 -0 3 -20 -17 -16 -12 -20 -20 -20 -17 -20 -20 -20 -20 -20 -20 -20 -20 -20 -20 -20 -20 -20 -20 -20 -20 -20 -20 -20 -20
-10 -3 12 7 -12 7 -16 -17 -20 -20 -20 -20 -8 -9 4 -6 -20 6 -20 -13 -20 -20 -20 -20 -20 -9 -12 -20 -19 -19 -20 -20 -20 -20 -20 -20 -20 -20 -20 -20 -20 -20 -20 -20
9 -6 6 -17 10 -19 -20 -20 -20 -20 -20 -20 -4 -8 8 5 -0 -20 -20 -8 -20 -20 -20 -20 -20 -20 -20 -20 -20 -20 -20 -20 -20 -20 -20 -20 -20 -20 -15 4 -20 -20 -20 -20
2 -6 -20 -15 -19 -19 -16 -20 -20 -20 -20 -18 -5 4 -17 -17 -20 -20 -20 -20 -20 -20 -20 -20 -20 -20 -20 -20 -20 -20 -20 -20 -20 -20 -20 -20 -20 -20 -20 -20 -20 -20 -20 -20
-13 -20 -20 -20 -20 -20 -20 -20 -20 -19 -20 -6 -9 -16 -20 -20 -20 -20 -20 -20 -19 -20 -20 -20 -20 -20 -20 -20 -20 -20 -20 -20 -20 -20 -20 -20 -20 -20 -20 -20 -20 -20 -20 -18
-20 -20 -20 -20 -20 -20 -20 -20 -20 -20 -20 6 3 -20 -20 -20 -20 -20 -20 -20 -19 -20 -20 -20 -20 -20 -20 -20 -20 -20 -20 -20 -20 -20 -20 -20 -20 -20 -20 -20 -20 -20 -20 -20

GFSNW_prec_radar_051.txt.gz
Reflectivity
14 -2 -2 9 9 -6 20 28 24 30 -18 17 22 -18 5 24 27 5 -20 -15 -20 -20 -16 -19 -20 -19 -20 -20 -20 -20 -20 -20 -1 -7 -20 -20 -20 -19 1 3 -20 -20 -20 -20
13 -1 3 5 5 5 18 28 27 20 -10 12 2 -7 25 32 21 21 -20 -20 -20 -20 -20 -18 -20 -20 -20 -20 -20 -16 -10 0 -5 -17 -17 -20 -20 -20 -20 1 -7 -20 11 -20
13 -2 4 -7 -5 -15 24 22 27 23 27 15 12 7 -5 28 17 25 3 -20 -20 -20 -20 -20 -20 -20 -20 -20 -4 -5 -20 -12 -20 -20 -20 -20 -20 -20 -20 -15 12 -20 -15 -19
-10 -4 2 -4 -20 -16 28 25 15 14 22 7 10 5 21 26 22 1 -20 -20 -20 -20 -20 -20 -17 -20 -4 -11 -14 -20 -13 -4 -20 -20 -20 -20 -16 -20 -8 2 -20 4 -17 1
-20 -20 -7 3 -20 -20 13 20 24 0 14 2 8 13 -20 17 -20 2 -20 -20 -20 -20 -20 -20 -20 -20 -20 -12 7 7 -11 -6 0 -3 -20 -20 -20 -20 -20 -19 -4 6 -4 -4
-20 -20 -20 5 -20 -13 14 8 15 17 5 5 7 -17 -3 27 -19 -15 -20 -20 -20 -20 -20 -20 -20 -20 -20 -20 1 -1 9 3 3 -20 -20 -8 -5 -14 12 4 -11 20 25 -15
-20 -20 -0 8 -20 -20 20 14 8 14 0 -10 -10 -15 3 5 13 -5 -13 -20 -20 -18 -20 -20 -20 -20 -20 -13 -20 -20 12 -1 7 -16 -13 1 -4 -19 10 6 -20 10 10 -11
7 -20 10 -16 -20 -20 17 9 13 13 2 11 4 12 12 -8 -17 11 -15 -20 3 -20 -20 -8 -7 4 -20 -4 -9 1 -20 17 12 9 -10 -20 -20 12 8 7 -16 23 -2 -16
-20 -20 -20 -20 -14 9 7 -0 20 17 16 -3 2 -11 -5 -7 -8 5 4 17 -9 3 -20 -19 -4 -18 -20 -20 -19 8 13 -6 26 10 9 -20 8 -11 -20 -20 16 1 -14 -20
-20 -20 -20 -20 -18 9 12 9 27 21 27 -6 -10 14 8 -20 -1 10 -19 -7 15 -13 6 5 -4 -9 -20 -4 -20 2 14 20 -4 -1 11 -20 -20 -20 -20 -9 -19 -4 22 -19
-20 -20 -20 -20 -20 10 3 4 15 20 17 -3 9 12 11 5 9 -0 -3 3 -15 26 12 9 3 5 -8 -11 -9 -20 -12 1 5 -12 -7 -18 -20 -20 -20 -20 -20 -8 25 19
-4 -20 -20 -1 -20 -19 -20 11 15 13 22 20 -1 -17 -16 -16 9 13 -20 -17 -19 -9 14 -5 8 7 8 -10 -2 -20 -10 -20 -9 -20 -20 -20 -20 -20 -20 -20 -20 -20 -20 -20
1 -16 -20 -15 -20 -20 -6 10 0 3 21 19 -16 -20 -20 -20 -20 -18 -20 -17 -16 -19 -17 11 11 14 9 12 -20 -16 -20 -20 -20 -20 -20 -20 -20 -20 -20 -20 -20 -20 -20 -20
6 7 7 -20 -13 -20 -4 10 6 4 -11 -9 10 -20 -20 -20 -20 -20 -18 -14 3 17 2 15 16 19 -18 17 -2 -20 -16 -20 -20 -20 -20 -20 -20 -20 -20 -20 -20 -20 -20 -20
9 9 0 -5 -13 -20 -15 -13 -10 -5 2 10 7 -20 -20 -20 -13 12 -4 26 24 18 22 20 17 20 5 -20 -20 -20 -20 -20 -20 -20 -20 -20 -20 -20 -20 -20 -20 -20 -20 -20
2 5 -1 10 -20 -20 7 4 3 -2 20 8 -7 -7 -20 -9 -16 15 25 24 29 25 27 18 8 -17 20 11 -3 -20 -20 -20 -20 -20 -20 -20 -20 -20 -20 -20 -20 -20 -20 -20
10 -2 -18 -3 -15 6 8 -9 11 10 7 -7 -3 -12 7 8 18 24 24 23 20 17 15 12 11 20 13 1 -20 -20 -20 -20 -20 -20 -20 -20 -20 -20 -20 -20 -20 -20 -20 -20
1 -20 9 -2 6 -9 -17 -7 -9 -15 -6 -2 8 -14 -20 19 27 31 26 21 13 13 17 12 13 3 -6 -1 -20 -20 -20 -20 -20 -20 -20 -20 -20 -20 -20 -20 -20 -20 -20 8
18 -12 -19 12 10 1 -13 -12 18 -19 5 20 -4 -11 8 -7 17 26 28 26 27 21 21 1 -3 -19 -20 -20 -20 -20 -20 -20 -20 -20 -20 -20 -20 -20 -20 -20 -20 -17 -5 -7
4 -4 -19 -2 -20 -8 14 8 1 13 -7 12 -2 -20 7 -15 -8 11 25 28 31 29 14 -1 4 -20 -20 -20 -20 -20 -20 -20 -20 -20 -20 -20 -20 -20 -20 -20 -14 0 -20 -20
11 16 21 13 16 12 19 19 -5 -11 8 -2 -2 -20 12 -20 -4 12 17 23 25 28 3 -11 -5 -20 -20 -20 -20 -20 -20 -20 -20 -20 -20 -20 -20 -20 9 7 11 -20 -20 -20
14 15 25 17 22 13 -17 -4 -15 -3 4 -20 9 1 -6 -20 -20 -17 -5 -10 -17 -1 -15 -9 -20 -20 -20 -20 -20 -20 -20 -20 -20 -20 -20 19 -0 -13 1 7 1 -20 -1 8
7 3 -18 11 -7 -18 -20 0 -1 8 -20 -12 -9 -4 -8 -20 -20 -12 -12 -20 -20 -20 -6 -20 -20 -20 -20 -20 -20 -20 -20 -11 -20 -18 -20 -20 -20 -20 -20 -20 -20 -20 -20 -20
7 10 -2 -19 -6 -13 -20 -20 -20 -20 -20 -9 -6 -1 3 -11 2 0 -7 -20 -20 -18 -20 -20 -20 -20 -20 -20 -10 -18 -19 -19 -20 -20 -20 -20 -20 -20 -20 -20 -20 -20 -20 -19
2 -2 -14 -1 -20 -20 -20 -20 -20 -20 -20 -20 -13 -4 -16 -1 -18 -2 -20 -20 -20 -20 -20 -20 -20 -20 -20 -20 -20 -20 -20 -17 -20 -20 -20 -20 -20 -20 -20 -20 -20 -20 -20 -20
-7 -7 -20 -20 -18 -20 -10 -20 -9 -20 -19 -20 -14 -6 -9 -20 -20 -20 -20 -20 -20 -20 -20 -20 -20 -20 -20 -20 -20 -20 -20 -20 -20 -20 -20 -20 -20 -20 -20 -20 -20 -20 -20 -20
-20 -20 -20 -20 -18 -18 -20 -20 -20 -20 -20 -9 -20 -20 -20 -20 -20 -20 -20 -20 -20 -20 -20 -20 -20 -20 -20 -20 -20 -20 -20 -20 -20 -20 -20 -20 -20 -20 -20 -20 -20 -20 -20 -20

GFSNW_prec_radar_054.txt.gz
Reflectivity
-4 17 1 5 5 -10 12 16 14 8 22 22 27 8 14 16 27 31 14 -11 -14 -20 4 -17 -17 -19 -19 -20 -20 -20 -20 -20 -20 -20 -20 -20 -20 -20 -20 -15 -20 -20 -20 -20
6 -6 -0 -2 4 -20 15 6 15 -12 23 0 -18 18 1 5 37 15 9 -18 -17 -20 -3 -12 -2 -16 -20 -20 -20 -20 -20 -20 -20 -19 -19 -13 -20 -20 -10 -20 -3 -20 -9 -20
-2 -1 -6 -2 -7 -19 4 -10 26 17 16 -9 -4 -1 -0 32 31 -16 3 -13 -20 3 13 -20 11 -20 -20 -20 -20 3 -20 -20 -20 -18 -19 -20 -20 -20 -20 -16 -18 -20 -20 -20
14 -5 0 1 -20 -20 7 -6 13 16 -3 5 21 24 28 19 32 16 -20 -18 -20 -20 -19 -20 -18 -13 -20 -20 -1 -11 -20 -18 -20 -20 -20 -20 -19 -20 -20 -20 -20 -2 -20 -20
11 -20 -0 9 -20 -20 -16 1 2 11 -4 -20 -2 -8 22 28 8 19 5 -11 11 -20 5 2 -20 -20 -20 -20 -20 -20 -16 -20 -18 -20 -20 -20 -20 -20 -20 -20 -20 -20 -20 -20
5 -19 -20 12 -20 -20 11 11 2 9 -20 -20 -4 10 6 27 30 6 15 -9 -10 -20 -20 -20 -20 -20 -20 -20 -20 -0 -14 -10 -13 -20 -20 -20 -20 -20 -20 -20 -20 -20 -20 -20
9 -15 18 -5 -20 -0 17 10 4 1 -13 0 -10 -17 -1 -1 20 -10 -20 -20 11 -20 -20 -20 -20 -20 -20 -20 -14 -8 -19 -10 4 -20 -20 -20 -5 -20 -20 1 -6 -2 -2 14
-20 -20 -17 -20 -20 -5 -20 11 7 4 -4 -16 -12 -20 1 9 1 15 -8 -6 -20 -20 -20 -14 -19 -20 -20 -19 -16 -20 -10 1 14 -20 -15 -20 -20 -13 -18 -20 -18 8 23 9
-2 -20 -20 -20 -20 -20 -20 -9 5 4 3 -2 -9 -2 -17 4 -18 5 21 15 -19 -20 -17 1 -18 -20 -20 -20 -7 10 5 -5 26 -20 -4 -20 -20 -20 -20 -20 4 13 15 -4
2 -20 5 -11 -20 -18 0 10 -4 6 1 -12 8 10 12 -8 -2 -3 11 -10 4 -6 -20 -12 -20 -20 -20 -20 -20 -8 12 23 -16 -19 -3 -20 -20 -14 -20 -20 -20 -18 -7 17
-20 -14 -20 -10 -9 -20 -20 -3 8 12 11 -14 -16 -0 14 7 -20 14 -20 -15 -14 -3 -15 -4 -12 -9 -13 -20 -20 -20 -20 -7 -12 -7 4 -20 -20 -20 -20 -20 -20 -20 5 -1
-20 -20 1 -20 1 -20 -20 14 6 16 13 -2 -20 -20 -14 -9 16 -13 7 -17 -20 6 -10 4 -20 13 -20 -11 6 -20 -20 -20 -20 -20 -20 -20 -20 -20 -20 -20 -20 -20 -20 -20
11 4 7 2 8 1 -20 -1 4 12 21 11 -20 -4 -20 -20 -20 -20 -16 -20 -20 -20 -0 16 -10 -18 -16 0 -20 -17 -20 -20 -20 -20 -20 -20 -20 -20 -20 -20 -20 -20 -20 -20
-20 8 13 10 11 8 -20 -8 -4 8 -4 -10 15 -20 -20 -20 -20 -20 -20 -20 -20 -16 -4 24 5 11 -20 -13 -7 -10 -17 -20 -20 -20 -20 -20 -20 -20 -20 -20 -20 -20 -20 -20
8 -14 12 13 9 -17 -20 -20 -20 -15 -7 12 -15 -20 -20 -20 -20 -20 -18 -4 -6 14 24 15 5 5 4 -20 -20 -20 -20 -20 -20 -20 -20 -20 -20 -20 -20 -20 -20 -20 -20 -20
5 6 17 14 6 1 -1 -5 -20 7 -20 0 -11 -20 -20 -20 -20 -11 -20 -20 18 13 20 -6 12 -18 13 3 -20 -20 -20 -20 -20 -11 -2 -20 -20 -20 -20 -20 -20 -20 -20 -20
23 12 -3 -11 -19 7 2 3 15 4 19 0 12 -10 -20 -12 22 20 20 21 25 25 23 11 22 12 -1 6 -20 -20 -20 -20 -18 -19 -20 -20 -20 -20 -20 -20 -20 -20 -20 -20
-1 10 -20 15 -1 -20 -20 -8 1 9 -0 -5 2 -1 -10 3 24 26 25 24 17 22 22 7 -13 -17 1 -20 -20 -20 -20 -20 -20 -20 -20 -20 -20 -20 -20 -20 -20 -20 -20 -20
18 15 -18 -13 -16 -14 -20 9 9 -15 -1 21 9 -19 -20 3 19 22 27 27 23 26 16 23 22 17 -9 -20 -20 -20 -20 -20 -20 -20 -20 -20 -20 -20 -20 -20 -20 -20 -20 -18
10 11 0 -20 -20 11 11 16 7 1 3 -7 1 -20 -19 -12 8 21 18 30 33 28 26 26 30 -2 -1 -20 -20 -20 -20 -20 -20 -20 -20 -20 -20 -20 -20 -20 -20 -20 -12 -20
18 6 1 -13 9 10 24 26 17 13 4 -4 -14 -17 -11 -16 -3 13 14 31 32 20 29 35 19 -11 -20 -20 -20 -20 -20 -20 -20 -20 -20 -20 -20 -20 -20 -20 -7 10 -8 -18
8 25 16 24 28 28 -9 18 -12 4 10 -11 -16 -5 -20 -20 -20 -16 24 26 25 14 12 18 4 -18 -20 -20 -20 -20 -20 -20 -20 -20 -20 -20 -18 1 -13 6 15 -20 -20 -20
6 29 27 25 16 -12 -8 -20 -9 -3 -20 -20 -14 -20 -20 -20 -19 -20 24 21 21 -14 -18 -19 -20 -20 -20 -20 -20 -20 -20 -20 -20 -20 -20 -17 -6 -19 9 9 18 10 -13 -17
3 29 19 -14 -16 -20 -20 -20 -19 -20 -20 4 -16 -13 -20 6 10 -9 11 -8 -5 -20 -20 -20 -20 -20 -20 -20 -20 -20 -20 -20 -20 -20 -18 -1 -1 -20 -6 -7 -13 -20 -20 -20
8 -16 -13 2 -20 -20 -20 -4 -16 -20 -20 -20 -20 -20 -20 -5 -0 -5 6 -13 -20 -20 -20 -20 -20 -20 -20 -20 -20 -20 -20 -20 -18 -20 -20 -20 -20 -20 -20 -20 -20 -20 -20 -20
-17 -19 -13 -15 -0 5 -20 -20 -20 -20 -20 -20 -20 -20 -20 -20 -20 -20 -20 -3 -20 -20 -20 -20 -20 -20 -20 -20 -20 -20 -20 -20 -20 -20 -20 -20 -20 -20 -20 -20 -20 -20 -20 -20
-20 -20 -20 -20 2 -17 -16 -20 -20 -20 -20 -15 -12 -20 -20 -20 -20 -20 -20 -20 -20 -20 -20 -20 -20 -20 -20 -20 -20 -20 -20 -20 -20 -20 -20 -20 -20 -20 -20 -20 -20 -20 -20 -20

GFSNW_prec_radar_057.txt.gz
Reflectivity
-20 -20 -2 -20 6 -12 13 8 -15 -5 9 21 23 7 14 19 26 39 17 -20 -20 -20 -20 -20 -20 -20 -20 -20 -20 -20 -20 -20 -20 -19 -20 -20 -20 -20 -20 -20 -20 -20 -20 -20
-16 -19 -20 -20 5 -3 13 3 0 -5 -19 -18 -8 -9 23 25 28 27 19 -1 -20 -20 -13 -20 -7 -20 -20 -20 -20 -20 -20 -20 -20 -19 -16 -19 -20 -20 -20 -20 -16 -20 -20 -20
-5 -19 -16 -20 -6 -11 5 5 -19 -20 -20 -20 0 -2 24 15 33 25 -15 -17 -20 7 5 -20 -5 -0 -20 -20 -16 -20 -20 -20 -20 -20 -20 -20 -20 -20 -20 -20 -13 -20 -20 -20
-7 -8 -20 -20 -20 -20 -4 -1 -2 12 -20 -20 -20 29 26 31 26 -9 -3 2 -5 7 18 -16 -19 -20 -20 -20 1 -17 -20 -20 -20 -20 -20 -20 -20 -20 -20 -20 -20 -10 -20 -20
-3 -3 5 -11 -20 -20 -10 -5 2 -13 -20 -20 -20 -17 14 31 21 1 -19 -7 21 -8 -20 -20 -20 -20 -20 -20 -20 -20 -20 -20 -20 -20 -20 -20 -20 -20 -20 -20 -20 -20 -20 -20
-20 -20 -20 -20 -20 -8 15 14 -9 10 -20 -20 -16 7 21 27 4 5 3 -3 -14 -20 -20 -20 -20 -20 -20 -20 -20 -20 -20 -18 -12 -20 -20 -20 -20 -20 -20 -20 -20 -20 -20 -20
4 -20 -20 -20 -20 2 13 15 4 0 -7 -15 -9 -7 23 34 22 -8 -2 -20 -20 -20 -20 -20 -20 -20 -20 -20 -18 -20 -20 -20 4 -20 -20 -20 -20 -20 -20 -20 -20 -20 -18 -20
-14 -3 -20 -20 -20 -20 -18 14 10 5 -18 -20 -11 -18 -20 -18 -3 -20 -20 -20 -20 -20 -20 -20 -20 -20 -20 -20 -7 10 4 -18 -16 -20 -20 -20 -20 -20 -20 -20 -20 -6 11 -10
-12 -9 2 -20 -20 -20 -18 12 9 2 4 -20 -20 -20 -20 -20 -20 -15 -20 -19 -20 -20 -20 -20 -20 -20 -20 -20 -17 9 3 -13 8 1 -20 -20 -20 -20 -20 -20 -18 -20 -9 8
6 -20 2 -20 -19 -20 -20 -3 -1 5 -2 -20 -20 -20 -20 -20 -18 -20 -20 -9 -20 -20 -15 -9 -20 -20 -20 -20 -20 -20 -4 3 -3 -20 -18 -20 -20 -20 -20 -15 -20 -20 -20 -18
-20 -6 -20 -20 -20 -20 -20 -20 8 9 1 -20 -20 -17 24 -20 -20 -9 -20 -20 -20 -20 -18 -10 -15 -20 -4 -20 -20 -20 -20 -13 -12 -12 -20 -20 -20 -20 -20 -19 -20 -20 -20 -20
13 -11 -18 -20 6 -20 0 -18 9 13 12 -7 -20 -20 -19 -16 18 -19 -20 -19 -20 -20 -20 -20 -20 -20 -20 -20 -20 -20 -20 -20 -20 -20 -20 -20 -20 -20 -20 -20 -20 -20 -20 -20
14 -6 -1 -20 -20 -15 2 -20 -15 13 23 4 -20 -20 -20 -20 -2 -20 -15 -18 -14 -9 -20 -19 -19 -20 -20 -20 -20 -20 -20 -20 -20 -20 -20 -20 -20 -20 -20 -20 -20 -20 -20 -20
15 1 -3 -20 -20 -2 8 -20 -13 3 5 16 4 -20 -20 -20 -20 -20 -20 -20 -16 -20 -12 -5 3 -12 -18 -20 -20 -20 -20 -20 -20 -20 -20 -20 -20 -20 -20 -20 -20 -20 -20 -20
13 21 2 -20 7 -5 -4 -20 -20 -17 12 4 -12 -18 -20 -20 -20 -20 -20 -20 -20 -16 3 3 9 -5 -12 -20 -20 -20 -20 -20 -20 -20 -20 -20 -20 -20 -20 -20 -20 -20 -20 -20
-19 -20 -20 -19 18 13 -20 -20 -20 -20 -10 3 -4 -20 -20 -20 -20 -20 -20 -8 7 7 25 19 17 -20 21 22 -0 -20 -20 -20 -20 -20 -20 -20 -20 -20 -20 -20 -20 -20 -20 -20
-20 -19 -4 10 20 -20 -5 12 17 11 -7 5 9 -13 -20 -20 -19 -20 4 15 17 25 28 16 11 16 13 2 -13 5 -19 -20 -20 -20 -20 -4 -20 -20 -20 -20 -20 -20 -20 -20
-20 -11 -15 19 15 -1 2 -9 7 8 9 -2 23 3 -20 -20 18 -20 -1 17 1 18 21 16 15 0 2 -3 -20 -20 -20 -20 -20 -20 -20 -20 -20 -20 -20 -20 -20 -20 -20 -20
-20 20 -13 -20 -20 -20 -14 11 -1 -18 13 13 12 -15 -20 -12 2 -2 10 19 28 -3 19 11 20 7 14 -18 -20 -20 -20 -20 -20 -20 -20 -20 -20 -20 -20 -20 -20 -20 -20 -20
-1 5 -0 -20 -20 4 18 13 19 20 -2 -9 4 2 -12 -20 3 -4 17 24 30 19 23 22 26 14 28 16 -16 -20 -20 -20 -20 -20 -20 -20 -20 -20 -20 -20 -20 -20 -20 -20
22 18 18 23 29 21 26 25 21 16 23 3 -3 -7 -2 -14 -8 7 18 25 27 16 26 34 32 31 -8 -20 -20 -20 -20 -20 -20 -20 -20 -20 -20 -20 -20 -20 -20 -20 -17 -2
4 8 19 26 12 25 24 30 13 2 -8 -4 -20 -20 9 -16 -17 6 14 26 22 16 28 30 20 23 -20 -20 -20 -20 -20 -20 -20 -20 -20 -16 9 -16 -13 -20 -13 10 14 3
-2 18 20 27 22 13 -17 -18 -9 -20 -20 -20 -20 -20 -20 -17 -19 -18 16 15 22 24 20 2 9 5 -16 -19 -20 -18 -20 -20 -20 -20 -20 -16 18 23 22 21 12 20 -3 11
13 18 10 -16 -8 -20 -20 -20 -20 -20 -20 -20 -20 -20 -20 -10 -13 -7 2 2 22 -20 -20 -1 3 6 7 5 -15 -20 -19 -19 -20 -20 -16 -4 4 10 1 22 17 20 -4 -20
14 23 -16 4 -18 -20 -20 -20 -20 -20 -20 -20 -20 -17 -20 -12 12 -18 -12 -20 -8 -20 -20 -20 -20 -20 -20 -10 -11 -20 -20 -6 -6 -17 -19 -18 -20 -14 -10 -7 -7 20 -7 -18
15 -4 -20 -11 -13 -19 -5 1 -2 -20 -20 -20 -20 -14 -20 -20 -20 -20 -20 -12 -20 -20 -20 -20 -20 -20 -20 -20 -20 -20 -20 -20 -20 -20 -20 -20 -14 6 10 -12 -20 -20 -20 -20
-19 -19 -20 -12 -14 -20 4 -20 -20 -20 -20 -20 -15 -20 -20 -20 -20 -20 -20 -20 -20 -20 -20 -20 -20 -20 -20 -20 -20 -20 -20 -20 -20 -20 -20 -20 -20 -20 -20 -20 -20 -20 -20 7

GFSNW_prec_radar_060.txt.gz
Reflectivity
1 5 1 -20 3 -20 -20 -6 2 -3 -18 -20 -20 1 4 15 22 24 22 -19 -20 -20 -20 -20 -20 -20 -20 -20 -20 -20 -20 -20 -20 -20 -20 -20 -20 -20 -20 -20 -20 -20 -20 -20
12 5 8 1 -13 -9 3 -20 -8 -20 -20 -20 1 -5 11 28 35 19 17 -10 -20 -20 -20 -15 -20 -20 -20 -20 -20 -20 -20 -20 -20 -3 -18 -20 -20 -20 -20 -20 -20 -20 -20 -20
-13 10 8 -12 -20 -8 -15 -20 -20 -20 -20 -10 7 14 28 27 21 -5 -7 -20 -20 -20 -20 -20 -16 -20 -20 -20 -20 -20 -20 -20 -20 -20 -20 -20 -20 -20 -20 -20 -20 -20 -20 -20
-10 -17 -20 -20 -20 -20 -18 -20 -14 -10 -15 -20 -20 -4 28 29 25 4 -20 -9 -20 -20 -20 -20 -20 -20 -20 -20 -15 -20 -20 -20 -20 -20 -20 -20 -20 -20 -20 -20 -20 -20 -20 -20
-16 -20 -20 -20 -20 -20 -13 -10 -5 -17 -19 -20 -20 -10 34 27 14 4 -19 -16 -20 -20 -20 -20 -20 -20 -20 -20 -20 -20 -20 -20 -20 -20 -20 -20 -20 -20 -20 -20 -20 -20 -20 -20
-20 -2 -20 -20 -20 -20 -20 -3 -9 7 3 -20 -20 7 4 -2 3 19 19 -20 -20 -20 -20 -20 -20 -20 -20 -20 -20 -20 -20 -20 -20 -20 -20 -20 -20 -20 -20 -20 -20 -20 -20 -20
-20 -20 1 -20 -20 4 -17 6 -4 1 -19 -20 -20 12 12 27 1 1 -9 15 -20 -20 -20 -20 -20 -20 -20 -20 -20 -20 -20 -20 -3 -20 -20 -20 -20 -20 -20 -20 -20 -19 -16 -20
-18 -20 -16 -20 -20 -20 -20 -13 -10 18 -19 -20 -20 -19 5 18 16 -20 -20 -20 -20 -20 -20 -20 -20 -20 -20 -20 -4 -20 -20 -20 -20 -20 -20 -20 -20 -20 -20 -20 -20 -20 -20 -18
-18 -13 -20 -1 -20 -20 -20 -15 -12 1 5 -20 -20 -20 -20 -20 -20 -20 -20 -20 -20 -20 -20 -20 -20 -20 -20 -20 -20 -9 -8 -5 17 -19 -5 -20 -20 -20 -20 -20 -20 -20 -20 -14
-7 -20 -20 -20 -20 -20 -20 -20 -19 7 -2 -20 -20 -20 -20 -20 -20 -20 -20 -20 -20 -20 -20 -20 -20 -9 -20 -20 -20 -6 -4 3 -15 -4 -7 -20 -20 -20 -20 -12 -20 -20 -20 -18
-17 13 -20 -16 -20 -5 -20 -20 -9 10 3 -20 -20 -20 1 -20 -20 -17 -20 -20 -20 -20 -20 -16 -20 -20 -20 -20 -20 -20 -20 -20 -11 -11 -20 -20 -20 -20 -20 -20 -20 -20 -20 -20
-20 -4 -15 -20 -2 3 -15 -20 7 6 16 -20 -20 -20 26 -20 20 -19 -20 -20 -20 -20 -20 -20 -20 -20 -20 -20 -20 -20 -20 -20 -20 -20 -20 -20 -20 -20 -19 -20 -20 -20 -20 -20
-17 -18 13 -18 2 -20 13 -20 -20 -11 17 4 -18 -20 -20 -20 -20 -18 16 -19 -20 -20 -20 -20 -20 -20 -20 -20 -20 -20 -20 -20 -20 -20 -20 -20 -20 -20 -20 -19 -20 -20 -20 -20
4 4 8 8 13 -20 13 -20 -20 4 19 24 6 -20 -20 -20 -20 -20 -20 -20 -20 -20 -20 -20 -14 -0 -20 -16 -20 -19 -20 -20 -20 -20 -20 -20 -20 -20 -20 -20 -20 -20 -20 -20
-1 15 -13 -16 16 10 4 -20 -20 -18 1 16 14 5 -20 -20 -20 -20 -20 -20 -20 -20 -9 -15 -1 6 -19 -20 -20 -20 -20 -20 -20 -20 -20 -20 -20 -19 -2 -20 -20 -20 -20 -20
10 -5 9 21 -20 20 -20 -20 -20 -20 -16 27 0 -20 -20 -20 -20 -20 -20 -17 -10 -4 2 -1 9 -20 -16 15 7 -20 -20 -20 -20 -20 -20 -20 -20 -20 -20 -20 -20 -20 -20 -20
-5 4 13 11 21 -11 -20 12 22 8 -5 3 -6 -17 -20 -20 -20 -3 -3 -2 20 26 27 24 -19 16 16 14 -6 -20 -20 -20 -20 -20 -20 -20 -20 -20 -20 -20 -20 -20 -20 -20
-20 5 13 20 20 3 -5 -0 9 17 6 12 8 -16 -20 -20 5 7 -7 -6 13 23 26 27 10 12 18 29 -6 -20 -20 -20 -20 -20 -20 -20 -20 -20 -20 -20 -20 -20 -20 -20
-20 2 -9 -20 -20 2 13 20 15 5 22 22 4 -19 -20 -18 -9 4 1 4 30 20 14 15 26 10 31 -9 -17 -20 -20 -20 -20 -8 -7 -20 -20 -20 -20 -20 -20 -20 -20 -20
-11 -10 3 -20 5 25 26 24 -8 18 20 9 1 -5 -12 -20 -10 12 15 23 32 6 14 3 12 27 8 14 15 -20 -20 -20 -20 -20 -20 -20 -20 -20 -20 -20 -20 -20 -20 -20
-9 30 23 17 23 24 23 23 21 17 9 -0 -12 -6 -2 -7 -8 15 26 25 26 9 24 30 24 26 20 6 -20 -20 -20 -20 -20 -20 -20 -20 -20 -20 -20 -20 -20 -20 -20 -20
-14 5 15 21 29 29 23 27 14 15 -3 -1 -14 -19 -12 -3 -15 16 21 27 20 12 26 28 18 -1 -17 -20 -20 -20 -20 -20 -20 -20 -20 -20 -20 -16 -19 -18 -20 -20 -15 -2
-8 23 19 3 9 17 6 -14 -1 -20 -20 -15 -19 -20 -20 -13 -16 -8 21 14 15 25 21 -0 1 -19 -20 -20 -20 5 26 -16 -20 -20 -20 -20 -20 6 13 3 16 17 18 18
12 24 -4 8 0 -20 -20 -20 -20 -20 -20 -20 -20 -20 -20 -3 3 -8 -14 18 22 -6 -14 -7 8 7 9 8 4 -7 30 26 20 -16 -20 -11 14 21 23 12 21 20 13 20
-2 13 -18 9 -16 -19 -20 -20 -20 -20 -20 -18 2 -20 -20 -6 11 -9 -13 -20 -19 -20 -20 -20 -20 0 2 4 7 10 11 22 23 2 -20 -3 -8 16 13 -7 23 24 1 -15
-19 0 -13 -13 -9 -19 -18 1 1 -20 -2 -1 -5 -20 -17 -19 -18 -20 -20 -10 -20 -20 -20 -20 -20 -20 -20 -18 -19 -19 -14 -15 -16 11 -6 -20 -20 9 -3 21 -18 10 21 8
-19 -20 -20 -20 -17 -20 -20 6 9 -20 -19 -19 -20 -20 -20 -20 -20 -20 -20 -20 -20 -20 -20 -20 -20 -20 -20 -20 -20 -20 -20 -20 -20 -20 -20 -20 -20 -20 -20 -20 -20 -20 -20 -18

GFSNW_prec_radar_063.txt.gz
Reflectivity
-20 7 10 6 -19 7 -20 -20 -20 -20 -20 -20 -20 -20 -14 25 30 18 -8 -12 -20 -20 -20 -20 -20 -20 -20 -20 -20 -20 -20 -20 -3 -20 -20 -20 -20 -20 -20 -20 -20 -20 -20 -20
-20 -20 -20 -6 -20 9 -19 -20 -20 -20 -20 -20 -20 -9 26 9 -8 -14 2 -20 -20 -20 -20 -20 -20 -20 -20 -20 -20 -20 -20 -20 -20 -6 -20 -20 -20 -20 -20 -20 -20 -20 -20 -20
-20 -8 -20 -20 -20 -6 -16 -20 -14 -20 -20 -20 -8 -20 15 3 -20 -20 -20 -20 -20 -20 -20 -20 -20 -20 -20 -20 -20 -20 -20 -20 -20 -20 -20 -20 -20 -20 -20 -20 -20 -20 -20 -20
-10 -11 -20 -20 -20 -20 -20 -20 -20 -16 -20 -20 -20 21 31 21 13 -17 -20 -20 -20 -20 -20 -20 -20 -20 -20 -20 -20 -20 -20 -20 -20 -20 -20 -20 -20 -20 -20 -20 -20 -20 -20 -20
-5 -20 -20 -20 -20 -20 -20 -20 12 -20 -20 -20 -20 26 26 14 -12 -15 -20 -20 -20 -20 -20 -17 -20 -20 -20 -20 -20 -20 -20 -20 -20 -20 -20 -20 -20 -20 -20 -20 -20 -20 -20 -20
8 -20 -7 -20 -19 -8 -20 -19 -20 3 -20 -20 -18 7 8 22 -14 5 -17 -20 -20 -20 -20 -20 -20 -20 -20 -20 -20 -20 -20 -20 -20 -20 -20 -20 -20 -20 -20 -20 -20 -20 -20 -20
4 -13 -20 4 -20 11 -20 -7 3 -8 -20 -20 -20 -14 -7 12 25 -3 -13 -16 -20 -20 -20 -20 -20 -20 -20 -20 -20 -20 -20 -20 -12 -20 -20 -20 -20 -20 -20 -20 -20 -20 -20 -9
14 -12 -20 -20 -20 -18 -20 -19 -2 8 -19 -12 -20 -20 -6 -20 -20 -20 18 -20 -20 -20 -20 -20 -20 -20 -20 -20 -20 -20 -20 -20 -20 -20 -20 -20 -20 -20 -20 -20 -20 -20 -20 -14
-4 -18 -20 -20 -20 -20 -20 -19 -16 6 7 -20 -19 -19 -20 -20 -20 -20 -20 -20 -20 -20 -20 -20 -20 -20 -20 -20 -15 -20 -20 -20 -20 -20 -19 -20 -20 -20 -20 -20 -20 -20 -20 -19
-16 5 9 -20 -20 -20 -20 -20 -10 2 5 -20 -18 -20 -12 -20 -20 -20 -20 -20 -20 -20 -20 -20 -20 -20 -20 -20 -20 -2 2 -1 -1 -19 -7 -20 -20 -20 -20 -20 -12 -7 -20 -20
9 -10 -3 -2 -20 -20 -8 -20 -20 13 15 -20 -20 -10 -8 -20 -20 -20 -20 -20 -20 -20 -20 -20 -20 -20 -20 -20 -20 -20 -20 -20 -20 -19 -20 -20 -20 -20 -20 -8 -19 -19 -20 -20
-19 8 -3 -4 -17 -20 9 -20 -7 14 2 -20 -20 -20 -18 -20 3 -20 -20 -20 -20 -20 -20 -20 -20 -20 -20 -20 -20 -20 -20 -20 -20 -20 -20 -20 -20 -20 -20 -10 -20 -20 -20 -20
-15 -3 -13 3 2 -20 -17 -20 -20 -20 5 -19 -20 -20 -4 -11 -10 -20 2 -19 -20 -20 -20 -20 -20 -20 -20 -20 -20 -20 -20 -20 -20 -20 -20 -20 -20 -20 -20 -14 -20 -20 -20 -20
8 -7 0 11 17 15 -12 -2 -20 -20 15 -4 -16 -17 3 18 -20 -20 -1 -12 -20 -20 -20 -20 -14 0 -20 -20 -20 -20 -20 -20 -20 -20 -20 -20 -20 -20 -20 -20 -20 -20 -20 -20
10 -16 9 -7 8 7 7 -12 -20 -20 15 21 -13 -18 -20 -20 -6 -20 -20 -20 -20 -20 -11 3 -20 -20 -20 -20 -20 -20 -20 -20 -20 -20 -20 -20 -20 -20 -20 -20 -20 -20 -20 -20
3 -20 -20 -20 14 21 16 -10 -20 -20 -20 27 22 8 -18 -20 -20 -20 -20 -19 -19 -19 9 1 4 -8 -20 -8 -20 -20 -20 -20 -20 -20 -20 -20 -20 -20 -20 -20 -20 -20 -20 -20
5 -11 -9 -20 21 14 -17 -16 28 -18 4 24 15 -20 -20 -20 -20 -16 -18 -15 6 20 17 26 5 16 23 15 -14 -20 -20 -20 -20 -20 -20 -20 -20 -20 -20 -20 -20 -20 -20 -20
-20 7 23 -20 23 6 -17 10 19 19 17 20 3 -15 -20 -20 -10 14 7 -19 -18 14 16 18 4 -12 22 25 -19 -18 -17 -15 -20 -20 -20 -20 -20 -20 -20 -20 -20 -20 -20 -20
-20 -16 13 -4 -20 -20 3 24 28 22 25 22 -11 -6 -20 -16 -6 21 -17 9 12 18 15 11 20 16 17 -18 -20 -20 -17 2 -8 -14 -11 4 -20 -20 -20 -20 -20 -20 -20 -20
4 -6 0 -17 14 15 25 29 30 30 24 10 1 -20 -19 -2 -17 4 -9 17 24 -1 7 20 24 18 4 -20 -20 -14 4 -8 -19 -20 -20 -20 -20 -20 -20 -20 -20 -20 -20 -20
18 26 27 27 16 29 32 36 28 17 -2 2 -11 -16 -13 -18 14 9 18 27 21 -7 18 25 20 10 -19 -13 -7 -14 -20 -20 -20 -20 -20 -20 -20 -20 -20 -20 -20 -20 -20 -20
-3 -12 14 20 26 32 24 24 16 15 -18 10 1 -2 -9 -8 -7 22 23 18 11 -19 19 21 6 -11 -20 -20 -20 -20 -20 -20 -20 -6 -20 -20 -20 -20 -20 -20 -20 -20 -20 -20
-20 12 35 29 19 15 -3 -18 4 -3 -17 -5 9 -19 -20 -19 14 27 21 6 0 20 11 -19 -18 -4 -10 -20 -20 -20 -14 3 -1 -2 -20 -20 -20 -20 -20 -9 -19 -15 -20 -12
9 16 0 3 7 1 -9 -20 -20 -20 -20 -20 -20 -20 -20 -3 12 12 10 27 8 -15 -6 4 10 10 -10 -19 -19 -20 -17 25 28 13 -14 -20 -20 -17 15 11 7 -3 -2 4
14 18 -19 0 0 5 1 2 -8 -20 -20 -20 -19 -15 -20 -13 10 0 -5 -20 -20 -20 -20 -20 1 8 7 6 2 9 3 8 25 33 30 28 23 20 20 7 12 6 17 13
-20 -9 -20 -20 -20 5 -10 -3 -8 -4 -12 -19 -13 -20 -16 -17 -17 -19 -20 -20 -20 -20 -20 -20 -20 -20 -3 -2 4 7 9 11 9 -2 23 24 16 18 21 20 18 24 10 -4
-18 -20 -20 -20 -20 -20 -20 -4 3 -7 -9 -20 -20 -20 -20 -20 -20 -20 -20 -20 -20 -20 -20 -20 -20 -20 -20 -20 -20 -15 -8 -2 -4 -2 1 3 -6 -17 2 -18 -18 -19 18 24

GFSNW_prec_radar_066.txt.gz
Reflectivity
-20 -20 -17 -19 -20 -9 -18 -20 -20 -20 -20 -20 -20 -18 14 11 -1 -5 -2 -20 -20 -20 -20 -20 -20 -20 -20 -20 -20 -20 -20 -20 -20 -20 -20 -20 -20 -20 -20 -20 -20 -20 -20 -20
-6 -20 -20 -20 -20 -2 -6 -20 -20 -20 -20 -20 -1 -19 -8 4 -15 -20 -20 -20 -20 -20 -20 -20 -20 -20 -20 -20 -20 -20 -20 -20 -7 -20 -20 -20 -20 -20 -20 -20 -20 -20 -20 -20
-3 -20 -20 -20 -20 -17 -20 -19 -20 -20 -20 -20 -8 -15 -18 -20 -20 -20 -20 -20 -20 -20 -20 -20 -20 -20 -20 -20 -20 -20 -20 -20 -20 -20 -20 -20 -20 -20 -20 -20 -20 -20 -20 -20
6 -12 -20 -20 -20 -20 -20 -20 -20 -8 -20 -19 21 11 11 -20 8 -20 -20 -20 -20 -20 -20 -20 -20 -20 -20 -20 -20 -20 -20 -20 -20 -20 -20 -20 -20 -20 -20 -20 -20 -20 -20 -20
10 -20 -20 -19 -20 -20 -20 -3 6 -10 -19 -17 -4 6 13 8 -12 -20 -20 -20 -20 -20 -20 -20 -20 -20 -20 -20 -20 -20 -20 -20 -20 -20 -20 -20 -20 -20 -20 -20 -20 -20 -20 -20
11 -11 -20 -19 -20 -20 -20 -20 -10 5 -20 -20 -20 24 18 13 -7 -7 -20 -20 -20 -20 -20 -20 -20 -20 -20 -20 -20 -20 -20 -20 -20 -20 -20 -20 -20 -20 -20 -20 -20 -20 -20 -20
-17 -12 -17 -20 -15 -13 -20 -7 6 3 -20 -19 -9 9 12 -5 -10 -4 -20 -20 -20 -20 -20 -20 -20 -20 -20 -20 -20 -20 -20 -20 -20 -20 -20 -20 -20 -20 -20 -20 -20 -20 -20 -20
-14 -12 6 -20 -20 -2 -20 -11 7 5 2 -20 -13 -14 12 -20 -16 -19 -20 -20 -20 -20 -20 -20 -20 -20 -20 -20 -20 -20 -20 -20 -20 -20 -20 -20 -20 -20 -20 -20 -20 -20 -20 -20
2 -19 -10 11 -20 -20 -20 -20 2 5 1 -20 7 -4 -12 -20 -20 -20 -20 -20 -20 -20 -20 -20 -20 -20 -20 -3 0 -20 -20 -20 -20 -20 -20 -20 -20 -20 -20 -20 -9 -20 -20 -20
-2 4 -12 -15 1 -20 -20 -20 -20 -7 6 -20 -20 -4 -7 -20 -20 -20 -20 -20 -20 -20 -20 -20 -20 -20 -20 -20 -20 -1 -20 -9 -20 -19 -20 -20 -20 -20 -20 -20 -8 -16 -20 -20
-20 5 -20 -12 -1 -15 -20 -20 -20 9 14 -20 -20 -20 -17 -12 -20 -20 -20 -20 -20 -20 -20 -20 -20 -20 -20 -20 -20 -20 -20 -20 -20 -20 -20 -20 -20 -20 -20 -20 -16 -20 -10 -20
-20 10 -15 12 1 15 -1 -20 -20 8 -5 -20 -20 -19 -4 -16 -13 -17 -20 -20 -20 -20 -20 -20 -20 -20 -20 -20 -20 -20 -20 -20 -20 -20 -20 -20 -20 -20 -20 -20 -20 -1 -20 -20
-17 -19 4 -15 8 10 18 -18 -20 -20 -20 -18 -12 -20 -20 -19 -4 -16 -20 -20 -20 -20 -20 -20 -20 -20 -20 -20 -20 -20 -20 -20 -20 -20 -20 -20 -20 -20 -20 -20 -19 -6 -15 -20
4 5 7 -10 10 -15 -5 8 -20 -8 -16 10 -16 -20 -20 0 -17 -20 -14 -20 -17 -20 -20 -20 -19 -12 -20 -20 -20 -20 -20 -20 -20 -20 -20 -20 -20 -19 -18 -20 -20 -20 -20 -20
8 8 -13 -19 10 11 10 -20 -18 -14 -5 16 -20 -20 -14 -20 -8 -15 -20 -18 -12 -20 -20 -1 -6 -20 -20 -20 -20 -20 -20 -20 -20 -20 -20 -20 -20 -20 -20 -20 -20 -20 -20 -20
3 9 -14 7 9 19 25 -15 -20 -20 -19 23 2 -17 -10 -20 -20 -19 -20 -20 -20 -16 12 9 -15 -20 -20 -10 -19 -20 -20 -20 -20 -20 -20 -20 -20 -20 -20 -20 -20 -20 -20 -20
6 7 -3 -12 -19 24 24 -20 27 -14 8 23 13 23 -20 8 -16 1 -12 7 6 0 21 6 12 2 15 19 -0 -20 -20 -20 20 -20 -20 -20 -20 -20 -20 -20 -20 -20 -20 -20
-7 -6 23 23 5 20 8 -20 12 30 21 27 17 12 -16 -15 3 8 -16 -20 -11 -12 -2 10 22 10 21 27 -14 -20 -20 -20 -20 -20 -20 -20 -20 -20 -20 -20 -20 -20 -20 -20
-20 -20 7 -11 -19 -2 -19 8 29 29 29 29 7 17 -13 -10 7 -2 4 -5 -1 -7 5 17 13 15 20 11 -0 2 -20 -20 -20 -16 -4 -5 0 -4 -20 -20 -20 -20 -20 -20
4 -2 -19 -16 -19 7 27 32 35 32 25 20 0 -20 -19 -8 13 -6 13 16 21 -3 -8 11 23 9 -10 -13 -20 -3 -0 -20 -15 -20 -20 -20 -20 -20 -20 -20 -20 -20 -20 -20
-20 19 34 25 30 28 33 34 28 24 14 -3 -20 -20 -12 15 29 16 17 23 23 -20 3 24 14 -5 -12 -20 -20 -20 -20 -20 -20 -20 -20 -20 -20 -20 -20 -20 -20 -20 -20 -20
-20 -15 5 26 24 33 22 21 27 21 -2 7 11 10 -20 -0 13 18 25 17 12 -20 18 18 -15 -20 -20 -20 -20 -20 -20 -20 -20 -20 -19 -3 -10 -20 -20 -20 -20 -20 -20 -20
-7 -5 19 29 21 1 3 1 10 13 12 10 -13 28 21 20 21 24 29 -6 -15 22 8 -20 -20 -20 -20 -20 -20 -20 -20 -10 5 7 8 9 -18 -20 -20 -19 -20 -11 -20 -15
6 2 5 -6 5 -18 8 -4 10 23 -20 -20 17 12 2 -18 21 20 0 21 11 -20 -20 -20 -20 -20 -14 0 -18 -20 -20 10 11 12 6 -16 -19 2 0 -8 15 -3 -8 5
-11 6 -10 -6 -2 4 19 23 16 15 -19 -20 -19 -11 -20 -20 0 17 -11 -12 -20 -20 -20 -20 -14 -3 -6 10 12 9 -14 7 11 18 25 26 27 26 21 12 -6 3 -12 3
-20 -20 -9 -20 -20 5 19 -12 -17 -9 1 -16 -18 -4 -20 -20 -20 -17 -20 -20 -20 -20 -20 -20 -20 -20 -0 -3 -7 -4 4 11 11 14 5 3 15 25 32 29 19 5 4 -6
-20 -18 -20 -20 -20 -10 19 32 4 -5 20 -17 -20 -20 -20 -20 -18 -20 -20 -20 -20 -20 -20 -20 -20 -20 -20 -20 -20 -20 -20 -15 2 7 6 3 4 -1 -1 -2 27 27 24 24

GFSNW_prec_radar_069.txt.gz
Reflectivity
-20 -20 -20 -5 -20 3 -20 -20 -20 -20 -20 -20 -20 -3 11 16 -8 -15 -19 -20 -20 -20 -20 -20 -20 -20 -14 -20 -20 -20 -20 -20 -20 -19 -20 -20 -20 -20 -20 -20 -20 -20 -20 -20
-5 -9 -20 -20 -20 -3 -20 -10 -20 -20 -20 -20 -20 -19 -15 -12 -20 -20 -20 -20 -20 -20 -20 -20 -20 -20 -20 -20 -20 -20 -20 -20 -20 -20 -20 -20 -20 -20 -20 -20 -20 -20 -20 -20
-20 -8 -20 -20 -20 -20 -20 -20 -20 -20 -20 -14 1 -19 -20 -20 -20 -20 -20 -20 -20 -20 -20 -20 -20 -20 -20 -20 -20 -20 -20 -20 -20 -20 -20 -20 -20 -20 -20 -20 -20 -20 -20 -20
7 -11 -20 -20 -20 -20 -20 -20 -20 -4 -20 -6 8 17 -20 -20 -20 -20 -20 -20 -20 -20 -20 -20 -20 -20 -20 -20 -20 -20 -20 -20 -20 -20 -20 -20 -20 -20 -20 -20 -20 -20 -20 -20
-20 -20 -20 -20 -20 -20 -20 -17 -9 -20 -20 0 -3 14 2 -7 -20 -20 -20 -20 -20 -20 -20 -20 -20 -20 -20 -20 -20 -20 -20 -20 -20 -20 -20 -20 -20 -20 -20 -20 -20 -20 -20 -20
-11 -20 -20 -20 -20 -20 -20 -20 -20 5 -20 -18 9 26 22 -9 -6 -13 -20 -20 -20 -20 -20 -20 -20 -20 -20 -20 -20 -20 -20 -20 -20 -20 -20 -20 -20 -20 -20 -20 -20 -20 -20 -20
11 -7 -20 -20 -20 -20 -20 -2 -11 -2 -19 -6 4 15 14 13 -2 -13 -20 -20 -20 -20 -20 -20 -20 -20 -20 -20 -20 -20 -20 -20 -20 -20 -20 -20 -20 -20 -20 -20 -20 -20 -20 -17
-2 13 -20 -20 -20 -20 -20 -20 2 2 5 -15 -16 14 -19 -10 -20 -20 -20 -20 -20 -20 -20 -20 -20 -20 -20 -20 -20 -20 -20 -20 -20 -20 -20 -20 -20 -20 -20 -20 -20 -20 -20 -20
-18 8 10 -20 -11 -20 -20 -20 -20 -15 -4 -19 -9 -2 -16 -16 -19 -20 -20 -20 -20 -20 -20 -20 -20 -20 -20 -11 3 -20 -20 -20 -20 -20 -20 -20 -20 -20 -20 -20 16 -20 -20 -20
-11 2 8 -20 -20 -3 -20 -20 -20 -20 2 -15 -19 2 -4 -9 -20 -20 -20 -20 -20 -20 -20 -20 -20 -20 -20 -20 -20 -20 -20 -20 -20 -20 -20 -20 -20 -20 -20 -11 6 -12 -12 -19
-17 -17 6 -20 14 2 -20 -20 -20 -15 11 -9 -20 -15 -6 -16 -7 -20 -20 -20 -20 -20 -20 -20 -20 -20 -20 -20 -20 -20 -20 -20 -20 -19 -20 -20 -20 -20 -20 -20 -20 -4 -2 -20
-6 -19 -16 -19 -20 -1 -5 -20 -20 -20 2 -19 -20 -20 -19 -19 4 3 -20 -20 -20 -20 -20 -20 -20 -20 -20 -20 -20 -20 -20 -20 -20 -20 -20 -20 -20 -20 -20 -20 -20 -20 -20 -19
-3 -19 0 3 8 10 19 -3 -20 -20 -2 -20 -20 -20 -20 -20 -14 -1 -20 -20 -20 -20 -20 -20 -20 -20 -20 -20 -20 -20 -20 -20 -20 -20 -20 -20 -20 -20 -20 -20 -20 -19 -20 -20
1 -0 8 4 -20 -17 20 3 -11 -8 -13 -4 -20 -20 -20 -20 -20 20 -20 -20 -20 -20 -20 -20 -20 -10 -20 -20 -20 -20 -20 -20 -20 -20 -20 -20 -20 -20 -20 -18 -20 -20 -20 -20
-3 3 -19 9 -17 6 15 -20 -20 -17 -20 8 -20 -5 -20 -20 -4 -20 -15 -18 -19 -9 -6 -1 -8 -20 -20 -20 -20 -20 -20 -20 -20 -20 -20 -20 -20 -20 -20 -20 -20 -20 -20 -20
2 4 -15 6 5 12 -5 1 -20 -20 11 9 -3 -11 -14 -19 -4 20 11 14 -7 -12 14 -5 -20 -20 -20 -20 4 -20 -20 -20 -20 -20 -20 -20 -20 -20 -20 -20 -20 -20 -20 -20
1 -12 -1 -2 15 30 6 -2 -12 10 1 8 2 22 -11 15 -11 -14 -20 15 17 16 13 8 4 -19 -3 3 -19 -20 -20 -20 -20 -20 -20 -20 -9 -20 -20 -20 -20 -20 -20 -20
-3 -10 -19 -20 18 22 7 2 7 -8 20 26 13 22 14 5 9 10 16 23 -15 -8 -3 -12 6 20 32 25 -18 -20 -20 -20 -20 -20 -20 -20 -20 -20 -20 -20 -20 -20 -20 -20
-17 -20 -20 13 -16 23 21 9 11 22 26 19 29 23 -13 12 -8 5 6 7 11 -4 -6 12 10 -6 5 -7 -20 -0 -14 -13 -18 -20 -20 -20 -20 -19 -8 -2 -20 -20 -20 -20
-20 -20 13 6 -9 -13 -20 9 32 33 22 11 20 2 6 8 14 26 11 18 19 8 -5 3 17 7 -8 -10 -9 -20 -20 -20 -2 -20 -20 -20 -20 -20 -20 -20 -20 -20 -20 -20
-18 -3 17 27 29 29 32 25 22 26 12 -1 -15 -20 -2 -15 30 20 -16 19 22 -20 -15 14 -3 -12 -20 -20 -20 -20 -20 -20 -20 -20 -20 -20 -20 -20 -20 -20 -20 -20 -20 -20
-11 -20 -20 1 26 30 21 10 18 5 -17 24 8 -19 -20 -2 -12 19 19 16 11 -20 12 18 -12 -20 -20 -20 -20 -20 -20 -20 -20 -20 -20 -20 -20 -14 -16 -20 -20 -20 -20 -20
-12 -3 4 20 15 3 3 12 13 19 24 23 18 28 17 6 27 28 16 4 -17 18 8 -20 -20 -20 -20 -20 -20 -20 -20 -20 -15 -6 6 8 3 8 -11 -9 -20 -20 -20 -20
7 -7 -0 -7 7 -19 13 1 14 32 30 8 23 29 25 22 25 26 -17 17 18 -1 -20 -19 -20 -20 -20 -18 -7 -15 -20 -18 -17 -18 -0 11 14 -9 -2 -8 -0 -4 19 -11
4 2 -20 -4 -5 14 26 28 26 27 27 -11 -20 -18 2 24 18 22 8 -15 -20 -20 -20 1 -20 -20 -20 -2 10 15 16 13 6 -2 8 15 17 26 31 23 16 20 20 -13
-18 -20 -7 -20 -20 -10 22 27 26 31 29 -4 -20 1 -12 -20 -20 -20 -20 -20 -20 -18 -20 -7 2 -1 -13 -11 -13 -5 -4 5 13 14 17 12 6 2 1 13 20 23 25 25
-20 -20 -20 -20 -20 10 19 30 30 26 21 8 -20 -20 -20 -20 -20 -20 -20 -20 -20 -20 -20 -20 -20 -20 -20 -20 -20 -20 -20 -20 -19 -20 -3 14 15 13 8 7 -14 3 20 18

GFSNW_prec_radar_072.txt.gz
Reflectivity
-20 -7 -20 -20 -20 -11 -20 -20 -20 -20 -20 -20 -20 0 -10 8 -3 -20 -20 -20 -20 -20 -20 -20 -20 -20 -20 -20 -20 -20 -20 -20 2 -1 -20 -20 -20 -20 -20 -20 -20 -20 -20 -20
3 2 -20 -20 -20 -20 6 -20 -20 -20 -20 -17 -20 -20 -20 -15 -20 -20 -20 -20 -20 -20 -20 -20 -20 -20 -20 -20 -20 -20 -20 -20 -1 -15 -20 -20 -20 -20 -20 -20 -7 -20 -20 -20
3 -12 -20 -20 -20 -20 -20 -20 -20 -20 -20 10 11 -13 -13 -20 -20 -20 -20 -20 -20 -20 -20 -20 -20 -20 -20 -20 -20 -20 -20 -20 -20 -20 -20 -20 -20 -20 -20 -20 -20 -20 -20 -20
-8 -11 -20 -20 -20 -20 -20 -20 -18 -14 -4 -11 19 5 -20 -17 -20 -20 -20 -20 -20 -20 -20 -20 -20 -20 -20 -20 -20 -20 -20 -20 -20 -20 -20 -20 -20 -20 -20 -20 -20 -20 -20 -20
-17 -9 -20 -20 -20 -20 -20 1 14 9 -18 -19 -12 -13 -20 -20 -20 -20 -20 -20 -20 -20 -20 -20 -20 -20 -20 -20 -20 -20 -20 -20 -20 -20 -20 -20 -20 -20 -20 -20 -20 -20 -20 -20
-20 5 -20 -20 -20 -20 -20 -19 -3 10 -20 -17 -14 11 22 -14 6 -16 -20 -20 -20 -20 -20 -20 -20 -20 -20 -20 -20 -20 -20 -20 -20 -20 -20 -20 -20 -20 -20 -20 -20 -20 -20 -20
-20 -20 9 -20 -20 -20 -20 -20 -1 5 -20 4 -1 11 -3 -10 3 3 -20 -20 -20 -20 -20 -20 -20 -20 -20 -20 -20 -20 -20 -20 -20 -20 -20 -20 -20 -20 -20 -20 -20 -20 -20 -20
-20 -20 -19 -20 -20 -20 -20 -20 -13 2 -2 -17 -1 0 11 -4 -16 -20 -20 -20 -20 -20 -20 -20 -20 -20 -20 -10 -20 -20 -20 -20 -20 -20 -20 -20 -20 -20 -20 -20 -20 -20 -20 -20
-14 -20 -20 -18 -12 -20 -20 -20 -20 -20 11 -20 -4 -15 21 7 -20 -20 -20 -20 -20 -20 -20 -20 -20 -20 -20 -20 3 -20 -20 -20 -20 -20 -20 -20 -20 -20 -20 -20 2 -20 -20 -20
-16 -14 -20 -5 -20 0 -20 -20 -20 -20 -5 -19 -11 1 -5 18 14 -20 -20 -20 -20 -20 -20 -20 -20 -20 -20 -20 -20 -20 -20 -20 -20 -20 -20 -20 -20 -20 -20 5 5 -20 -20 -9
-17 2 -7 -20 -20 0 -20 -20 -20 -20 2 -20 -20 -20 -13 -18 -4 5 -20 -20 -20 -20 -20 -20 -20 -20 -20 -20 -20 -20 -20 -20 -20 -20 -20 -20 -20 -20 -4 -17 -20 -20 -17 -19
-20 -2 1 -1 7 9 -16 -16 -20 4 13 -20 -20 -20 -20 -20 -15 -17 -20 -20 -20 -20 -20 -20 -20 -20 -20 -20 -20 -20 -20 -20 -20 -20 -20 -20 -20 -20 -20 -20 -20 -20 -20 -10
-20 11 0 4 7 -5 8 12 -20 -19 2 -20 -20 -20 -20 -20 -20 -20 -9 -16 -20 -15 -20 -20 -20 -20 -20 -20 -20 -20 -20 -20 -20 -20 -20 -20 -20 -20 -20 -20 -20 -20 -12 -20
3 7 3 2 -20 8 8 -13 5 10 -13 2 -17 -20 -20 -20 -20 -20 -16 -14 -5 -20 -20 -14 -20 -0 -20 -20 -20 -20 -20 -20 -20 -20 -20 -20 -20 -20 -20 -20 -20 -20 -20 -20
7 11 9 -4 -20 4 12 3 -13 5 8 -6 -20 -20 -20 -20 -20 -20 -0 -20 26 3 12 14 11 -11 -20 -20 -20 -20 -20 -20 -20 -20 -20 -20 -20 -20 -20 -20 -20 -20 -20 -20
-14 11 3 -19 7 10 13 -4 -19 -19 5 17 -12 -20 -20 -20 -20 -20 -20 -20 -1 13 21 16 13 -20 2 5 3 -20 -20 -20 -20 -20 -20 -20 -20 -20 -20 -20 -20 -20 -20 -20
-16 -4 6 4 -20 9 26 17 14 -20 7 18 3 2 -14 -8 -1 14 29 29 20 18 17 -5 6 10 -1 8 -4 -20 -20 -20 -20 -20 -20 -20 -20 -20 -20 -20 -20 -20 -20 -20
-20 0 7 -20 -1 14 10 12 0 3 27 4 8 3 11 10 20 33 17 8 10 22 -19 -20 -2 10 2 3 -18 -20 -20 -20 -20 -20 -20 -20 -20 -20 -20 -20 -20 -20 -20 -20
-20 -20 -20 15 4 11 -3 24 8 15 18 12 22 18 12 -11 31 8 22 1 20 11 6 -9 5 4 -4 -18 -20 -20 -20 -19 0 -17 -20 -20 -20 -20 -20 -20 -20 -20 -20 -20
-20 -9 10 4 4 19 -18 20 30 34 30 12 8 15 24 3 -5 6 14 -5 -10 11 -20 -7 25 -5 -8 -20 -20 -17 -14 -4 -20 -20 -20 -20 -20 -20 -20 -20 -20 -20 -20 -20
-20 -10 -7 -7 9 29 29 18 12 10 7 6 5 8 32 15 29 25 9 23 1 6 -12 16 -8 -12 -20 -20 -20 -20 -20 -20 -16 -20 -20 -20 -20 -20 -20 -20 -20 -20 -20 -20
-20 -3 -10 -9 19 27 19 6 17 4 8 29 7 -18 -20 24 26 32 25 -10 -4 -20 7 19 -13 -9 -20 -20 -20 -20 -20 -20 -20 -20 -20 -20 -20 -20 -20 -20 -20 -20 -20 -20
-20 -1 5 17 17 6 3 13 17 20 22 23 28 25 2 18 19 18 16 -8 -20 5 10 -18 1 -19 -20 -20 -20 -20 -15 -19 -20 -20 -20 -11 -4 -2 1 -4 5 -20 -20 -20
-13 -8 -15 4 13 2 29 25 23 32 34 32 34 37 32 23 29 22 -17 2 16 -5 -20 0 7 -20 -20 -20 -15 -11 -19 -17 -17 -19 -8 -6 1 7 6 11 -3 -20 -20 -20
-20 -14 -1 -19 -10 12 28 31 30 30 35 32 33 28 22 25 24 21 18 -5 -20 -20 -9 26 -12 -20 -20 -20 -13 -4 11 15 15 12 10 8 5 7 9 21 16 19 14 5
0 -13 -15 -20 -20 7 16 28 30 34 36 26 17 1 13 8 -3 -6 -2 -20 -15 4 26 16 1 -2 -10 -20 -20 -20 -9 -5 4 8 11 14 16 16 15 6 -11 -14 6 15
-20 -20 -20 -20 -13 -20 -19 -11 28 29 27 29 28 -11 -10 -18 -18 -20 -20 -20 -20 -20 -20 16 15 9 -9 -20 -12 -12 -20 -20 -20 -19 -4 -15 2 1 4 3 -14 12 11 17

GFSNW_prec_radar_075.txt.gz
Reflectivity
-7 -6 -20 -20 -20 -20 -20 -20 0 -20 -20 3 -13 6 -12 -3 -10 -20 -20 -15 -20 -20 -20 -19 -20 -19 -20 -20 -20 -6 -19 -0 6 10 18 25 26 26 17 10 4 -18 -16 -20
-19 -3 -20 -20 -20 -20 -2 -20 -20 -20 -20 -13 -20 -20 -14 -20 -13 -17 -20 -20 -20 -20 -20 -20 -20 -20 -20 -20 -20 -20 -20 -14 -6 -15 -18 -20 -20 -20 5 -20 -16 -20 -20 -20
-20 -3 -20 -20 -20 -20 -20 -19 -15 -20 -20 -17 -8 -7 -20 9 -3 -5 -20 -20 -20 -20 -20 -20 -20 -20 -20 -20 -20 -20 -20 -20 -20 -20 -20 -20 -20 -20 -20 -20 -20 -20 -20 -20
-20 -7 -20 -20 -20 -20 -20 -19 -13 11 -6 -20 -3 -4 3 12 9 1 -20 -10 -20 -20 -20 -20 -20 -20 -20 -20 -20 -20 -20 -20 -20 -20 -20 -20 -20 -20 -20 -20 -20 -20 -20 -20
-20 -20 -5 -20 -20 -20 -20 3 1 -20 -19 -7 -15 -20 0 -6 12 -3 -20 -20 -20 -20 -20 -20 -20 -20 -20 -20 -20 -20 -20 -20 -20 -20 -20 -20 -20 -20 -20 -20 -20 -20 -20 -20
-20 -20 -10 -20 -20 -20 -20 -17 4 10 -5 -19 -17 15 11 -4 4 -14 -20 -20 -20 -20 -20 -20 -20 -20 -20 -20 -20 -20 -20 -20 -20 -20 -20 -20 -20 -20 -20 -20 -20 -20 -20 -20
-20 -20 -20 6 -20 -20 -20 -19 11 9 -19 -3 -10 6 3 -3 -20 13 -20 -20 -6 -20 -20 -20 -20 -20 -20 -20 -20 -20 -20 -20 -20 -20 -20 -20 -20 -20 -20 -20 -20 -20 -20 -20
-20 -20 -20 5 8 -20 -20 -20 -11 3 1 -17 -19 0 14 0 -20 12 9 -20 -20 -20 -20 8 7 3 -12 -3 -20 -20 -20 -20 -20 -20 -20 -20 -20 -20 -20 -20 -5 -20 -20 -20
-20 -20 -20 -20 3 11 -18 -18 -15 -12 -17 1 -20 -12 8 17 -2 3 -18 -20 -20 -20 -20 -20 7 7 -20 -14 -10 -20 -20 -20 -20 -20 -20 -20 0 -20 -20 -20 -1 -20 -20 -20
-20 -20 -20 -20 -20 -0 -4 10 -20 3 -20 -20 -15 -5 7 28 12 -0 7 -20 -20 -20 -2 8 4 1 -20 -10 -7 -13 -12 -20 -20 -20 -20 -20 -20 -20 -20 -1 -11 -20 -20 -20
-20 -20 -20 -20 -20 9 -5 6 -8 5 4 -20 -20 -20 -20 -9 3 9 -20 -12 -12 -4 -16 -10 -13 -20 -20 -20 -20 -20 -20 -20 -20 -20 -20 -20 -20 -20 -3 -15 -20 -20 -20 -20
-20 -20 -4 -20 -20 10 -20 8 -0 0 16 -11 -20 -20 -20 -20 -20 -17 -20 -17 12 -20 6 -4 -20 -20 -20 -20 -6 -20 -20 -20 -20 -20 -19 -20 -20 -20 -20 -20 -20 -20 -20 -20
-20 -20 3 -19 -1 -20 7 8 12 16 15 -20 -20 -20 -20 -20 -20 -20 -20 -6 -12 19 -20 -20 -20 -0 -20 0 -20 -20 -20 -20 -20 -20 -20 -20 -20 -20 -20 -20 -20 -20 -20 -20
-20 -20 -2 -1 7 -1 -10 11 13 18 13 8 -20 -20 -11 -20 -20 -20 -20 -18 14 -20 -10 7 -12 5 -20 -11 -20 -20 -17 -20 -20 -20 -20 -20 -20 -20 -20 -20 -20 -20 -20 -20
-20 -20 -20 -11 6 -12 -12 8 1 17 18 7 -12 -20 -20 -20 -20 -20 -20 -20 -15 -8 9 13 7 -18 -12 -20 -20 -20 -20 -20 -20 -20 -20 -20 -20 -20 -20 -20 -20 -20 -20 -20
-20 -20 -20 6 6 7 11 9 -20 0 9 19 -6 -20 -20 -20 -20 -20 -20 -20 -19 19 20 2 3 -18 2 3 -1 -20 -20 -20 -20 -20 -20 -20 -20 -20 -20 -20 -20 -20 -20 -20
-20 -20 -20 9 13 12 12 12 17 -0 13 21 0 -20 -16 -20 6 5 -6 -14 -1 12 18 16 5 9 -0 2 3 -20 -20 -20 -20 -20 -20 -20 -20 -20 -20 -20 -20 -20 -20 -20
-20 3 10 -20 -17 -2 9 15 8 21 20 7 5 -14 5 19 16 17 23 16 14 25 29 8 4 -6 -7 3 -20 -20 -20 -20 -20 -20 -20 -20 -20 -20 -20 -20 -20 -20 -20 -20
-20 -8 -20 3 3 13 2 -17 25 10 26 23 12 11 25 -12 23 10 22 23 13 9 14 -12 8 6 -14 -20 -20 -20 -20 -20 -20 -20 -20 -20 -20 -20 -20 -20 -20 -20 -20 -20
-20 -4 10 -18 -12 0 13 24 31 36 10 13 7 -6 25 21 28 33 33 2 -5 8 -10 -7 0 -5 -20 -20 -20 -20 -20 -20 -20 -20 -20 -20 -20 -20 -20 -20 -20 -20 -20 -20
-20 -20 -7 -20 -19 -5 19 1 11 6 10 2 2 -15 25 22 22 34 -15 17 -2 8 -7 4 8 -7 -20 -20 -20 -16 -10 -18 -20 -20 -20 -20 -20 -20 -20 -20 -20 -20 -20 -20
-12 5 2 4 -13 7 3 5 7 6 -19 13 10 21 26 30 30 2 22 18 14 4 1 20 -17 -19 -20 -20 -20 -20 -20 -20 -20 -20 -20 -20 -20 -20 -20 -20 -20 -20 -20 -20
-20 5 7 9 3 -1 2 17 25 23 37 34 31 28 24 25 27 19 24 7 -17 -10 2 -18 -19 -18 -19 -20 -20 -20 -20 -20 -20 -20 -20 -20 -20 -16 -5 -10 -12 -0 3 -17
-16 -3 -16 7 3 8 21 17 18 29 34 33 34 36 30 18 22 26 -10 -5 13 2 4 -16 18 13 -20 -20 -20 -20 -20 -20 -16 -13 -4 -10 -8 -3 8 10 4 0 -15 -20
-20 -4 -9 1 -5 -12 7 -12 11 27 33 34 35 33 30 33 26 23 8 -1 -3 -20 -3 21 27 7 -20 -20 -20 -20 -20 -18 1 10 6 9 6 7 10 2 -15 -5 -4 -17
-20 -16 -18 -20 -14 -12 -20 3 1 13 25 32 31 26 23 26 26 -3 6 -1 -13 27 30 29 25 15 -20 -20 -20 -20 -20 -20 -20 -5 8 1 -17 -20 -20 -8 -8 -19 -20 -15
-20 -20 -20 -20 -20 -19 -10 -20 -18 6 23 20 30 7 11 19 6 -20 -2 4 21 -20 2 23 29 22 1 0 -17 -20 -20 -20 -20 -20 -20 -20 -20 -20 -19 -20 -20 -20 -20 1

GFSNW_prec_radar_081.txt.gz
Reflectivity
-20 -20 -20 -20 -20 -20 -20 -20 -20 -20 -20 -20 -20 -20 -13 5 -20 -20 -20 -20 -20 -20 3 -12 -20 -9 20 27 28 10 -20 -12 2 5 -2 -5 18 -7 -20 -20 -20 -20 -20 -20
-20 -20 -20 -20 -20 -20 -20 -20 -20 -20 -20 -20 -20 -20 -20 -20 -20 -12 -20 -20 -20 -20 -20 -20 -20 -20 -20 -13 6 15 -20 -20 -8 -10 5 -13 6 -20 -20 -20 -20 -20 -20 -20
-20 -20 -20 -20 -20 -20 -20 -20 -20 -20 -20 -20 -13 -0 -20 -20 -17 3 -8 -18 -20 -20 -20 -20 -20 -20 -20 -20 -20 9 -9 -17 -20 -20 -20 -11 -4 -20 -20 -20 -20 -20 -20 -20
-20 -20 -20 -20 -20 -20 -20 -20 -7 -18 -20 -20 -20 -15 -16 -20 -3 -20 5 -1 -20 -20 -20 -20 -20 -20 -20 -20 -20 -20 -19 0 12 -20 -20 -20 -20 -20 -20 -20 -20 -20 -20 -20
-20 -20 -20 -20 -20 -20 -20 -20 -20 -20 -20 -20 -12 -15 -20 -4 -20 10 9 -20 -20 -20 -20 -20 -20 -20 -20 -20 -20 -20 -20 -20 -20 -20 -20 -20 -20 -20 -20 -20 -20 -13 -20 16
-20 -20 -20 -20 -20 -20 -20 -20 -20 -7 -20 -20 -18 -7 9 -15 20 16 -5 -20 7 -20 -20 -20 -20 -20 -20 -20 -20 -20 -20 -20 -20 -20 -20 -20 -20 -20 -20 -20 -6 -15 -20 -20
-20 -20 -20 -20 -20 -20 -20 -20 -20 -19 -20 -20 -20 -9 -20 -2 -14 14 -4 -20 -14 -20 -20 -20 -20 -20 -20 -20 -20 -20 -20 -20 -20 -20 -20 -20 -20 -20 -20 -20 -20 -20 -20 -20
-8 -20 -20 -20 -19 -20 -20 -20 -20 -20 -20 -20 -20 -20 -20 -16 -15 25 -12 -20 -20 -20 -20 -20 -20 -20 -20 -20 -20 -20 -20 -20 -20 -20 -20 -20 -20 -20 -20 -20 -20 -20 -20 -20
9 -20 -20 -20 -20 -1 -20 -20 -20 -20 -6 -20 -20 -20 -2 -1 1 13 13 -20 -20 -20 -20 -20 -20 -20 -20 -20 -20 -20 -20 -20 -20 -20 -20 -20 -20 -20 -20 -20 -18 -20 -20 -20
9 -20 -20 -20 -14 -20 -20 -20 -20 -20 -17 -20 -20 -20 -20 -15 2 -7 -8 -20 -20 -20 -20 -20 -20 -20 -20 -20 -20 -20 -20 -20 -20 -20 -20 -20 -20 -20 -20 -11 -20 -20 -20 -20
-20 -20 -20 -20 7 -4 -20 -20 -20 -2 2 -20 -20 -20 -20 -20 -20 -8 20 7 -6 -20 -20 -16 -20 -20 -20 -20 -20 -20 -20 -20 -20 -20 -20 -20 -20 -20 -16 -18 -20 -20 -20 -20
-20 -20 -20 -20 -8 13 -17 -20 -20 -19 6 -20 -20 -20 -20 -20 -20 -19 -6 27 34 -9 -20 -20 -20 -20 -20 -20 -20 -20 -20 -20 -20 -20 -20 -20 -20 -20 -20 -20 -20 -20 -20 -20
-20 -20 -20 10 -20 -2 16 -20 -20 -20 12 -20 -20 -20 -20 -20 -20 -20 -19 14 25 31 3 -18 -20 -20 -20 -20 -20 -20 -20 -20 -20 -20 -20 -20 -20 -20 -20 -20 -20 -20 -20 -20
-20 -20 -14 8 -6 -20 14 -20 -20 -10 -7 2 -20 -20 -20 -20 -20 -20 -20 12 16 -20 -20 1 -20 -20 -20 -20 -20 -20 -20 -20 -20 -20 -20 -20 -20 -20 -20 -20 -20 -20 -20 -20
-20 -20 8 -9 -20 -1 19 -20 -20 -11 13 8 -14 -20 -20 -20 -20 -20 -20 -20 -20 2 17 7 -20 -20 -20 -20 -20 -20 -20 -20 -20 -20 -20 -20 -20 -20 -20 -20 -20 -20 -20 -20
-20 -20 -20 -20 -16 17 -11 -20 -20 -20 18 29 -7 -20 -20 -20 -20 -20 -20 -20 -20 -20 11 9 7 -20 -19 -20 -20 -20 -20 -20 -20 -20 -20 -20 -20 -20 -20 -20 -20 -20 -20 -20
-20 -20 -20 9 10 -20 -20 -20 -20 -18 11 24 -20 -20 -20 -20 -18 -20 -20 10 3 -8 7 4 -14 -20 -7 -20 -20 -20 -20 -20 -20 -20 -20 -20 -20 -20 -20 -20 -20 -20 -20 -20
-20 -20 0 -6 -20 -10 -0 -14 -20 13 9 8 -4 -20 -10 5 25 13 7 9 7 23 15 -8 10 -2 -2 -7 -20 -20 -20 -20 -20 -20 -20 -20 -20 -20 -20 -20 -20 -20 -20 -20
-20 -20 -20 -20 -18 6 -12 -13 -10 -7 -9 -14 -12 -20 -20 -3 36 17 23 26 30 12 5 -6 -11 -19 -20 -20 -20 -20 -20 -20 -20 -20 -20 -20 -20 -20 -20 -20 -20 -20 -20 -20
-20 -20 -20 -20 -20 -20 -20 15 3 8 23 28 3 10 7 -19 15 25 21 -7 21 -2 -1 17 12 -2 -20 -20 -20 -20 -20 -20 -19 -20 -20 -20 -20 -20 -20 -20 -20 -20 -20 -20
-20 -20 -20 -20 -20 -20 15 -10 -7 -16 -8 -1 1 16 13 23 15 20 28 20 -1 -20 -15 -17 -20 -20 -20 -20 -20 -20 -20 -12 -4 -20 -20 -20 -20 -20 -20 -20 -20 -20 -20 -20
-20 -5 -20 -20 -20 -20 -20 -20 -11 -18 2 27 20 24 16 18 29 34 22 21 24 -20 -7 -17 -20 -20 -20 -20 -20 -20 -20 -20 -20 -20 -20 -20 -20 -20 -20 -20 -20 -20 -20 -20
-20 -20 -20 -6 -20 -20 -20 -20 -20 -20 -20 2 -19 -5 16 24 27 25 25 15 -20 -17 -12 -19 -20 -20 -20 -20 -20 -20 -20 -20 -20 -20 -20 -20 -20 -20 -20 -20 -18 -20 -20 -20
-20 -20 -20 -20 -20 -20 -20 -19 -20 -20 -10 -16 2 -8 11 23 30 30 15 26 -3 -19 -20 -20 -20 -20 -20 -20 -20 -19 -20 -20 -19 -8 -20 -10 -20 -9 -4 -4 -10 -20 -20 -19
-20 -20 -20 -20 -20 -20 -20 -20 -20 -20 -19 -20 -18 3 15 20 17 8 22 -15 -20 -20 -20 14 21 19 17 22 18 -13 -20 -20 -4 1 -19 -20 -20 -20 -20 -20 -20 -20 -20 -20
-20 -20 -20 -20 -20 -20 -20 -20 -20 -17 -20 -20 -13 0 18 19 15 13 2 -16 -18 2 18 22 16 -15 23 28 -16 -20 -3 4 -8 -20 -20 -20 -20 -20 -20 -20 -20 -20 -20 -20
-20 -20 -20 -20 -20 -20 -20 -20 -20 -20 -20 -20 -20 1 17 17 16 12 16 18 11 -10 -18 -19 7 18 18 20 -6 -10 5 -20 -20 -20 -20 -20 -20 -20 -20 -20 -20 -20 -20 -20

GFSNW_prec_radar_087.txt.gz
Reflectivity
-20 -20 -20 -20 -20 -20 -20 -20 -20 -20 -20 -20 -20 -20 -11 -20 -7 -16 -15 -20 -16 1 11 18 20 21 27 20 -9 -20 -14 8 -19 5 2 -20 -20 -18 9 -20 -20 -20 -20 -20
-20 -20 -20 -20 -20 -20 -20 -20 -20 -20 -20 -20 -20 -20 -20 -4 -3 22 -3 -4 -20 9 -20 -5 16 5 25 21 19 1 -5 -18 -19 12 15 4 -5 -20 -20 -20 -20 -20 -20 -20
-20 -20 -20 -20 -20 -20 -20 -20 -20 -20 -20 -20 -14 -1 -20 -17 -13 22 -8 -11 -20 -20 -20 -20 -20 23 18 30 30 32 21 27 -20 -20 -19 -20 5 -20 -20 -20 -20 -20 -20 -20
-20 -20 -20 -20 -20 -20 -20 -20 -20 -20 -20 -20 -20 -19 -1 -8 -14 -20 -7 16 -20 -20 -20 -20 -20 -14 4 22 23 36 29 8 -20 -20 12 -6 -20 -15 -20 -20 -20 -20 -20 -20
-20 -20 -20 -20 -20 -20 -20 -20 -20 -20 -20 -20 -20 -20 -20 -20 -20 -4 4 4 -20 -20 -20 -20 -14 -20 -20 -13 14 -2 -14 14 12 -20 -12 -4 17 7 -20 -20 -20 -20 -20 -20
-20 -20 -20 -20 -20 -20 -20 -20 -20 -20 -20 -20 -20 -20 -20 -20 -20 -20 -19 6 -8 -16 -20 -20 -20 -20 -20 -20 -20 -20 1 -19 -20 -20 -20 -20 -20 -20 -20 -20 -20 -20 -20 -20
-16 -20 -20 -20 -20 -20 -20 -20 -20 -20 -20 -20 -20 -20 -20 -20 -20 -4 -20 -1 24 -17 -20 -20 -20 -20 -20 -20 -20 -20 -20 -20 -20 -20 -20 -20 -20 -20 -20 -20 -20 -20 -20 -20
-20 -20 -20 -20 -20 -20 -20 -20 -20 -20 -20 -20 -20 -20 -20 -20 -20 -20 -13 2 -11 -20 -20 -20 -20 -20 -20 -20 -20 -20 -20 -20 -20 -20 -20 -20 -20 -20 -20 -20 -20 -20 -20 -20
-20 -20 -20 -20 -20 -20 -20 -20 -20 -20 -9 -20 -20 -20 -20 -20 -20 -20 -20 -6 -20 -20 -20 -20 -20 -20 -20 -20 -20 -20 -20 -20 -20 -20 -20 -20 -20 -20 -20 -20 -20 -20 -20 -20
-20 -20 -20 -20 -20 -20 -20 -20 -20 -20 -20 -20 -20 -20 -20 -20 -14 -20 -20 -20 -18 -18 -20 -20 -20 -20 -20 -20 -20 -20 -20 -20 -20 -20 -20 -20 -20 -20 -20 -20 -20 -20 -20 -20
-20 -20 -20 -20 -20 -20 -20 -20 -20 -19 -20 -20 -20 -20 -20 -20 -20 -20 -19 -12 9 2 -20 -20 -20 -20 -20 -20 -20 -20 -20 -20 -20 -20 -20 -20 -20 -20 -20 -20 -20 -20 -20 -20
-20 -20 -20 -20 -20 -20 -20 -20 -20 -20 -20 -20 -20 -20 -20 -20 -20 -20 -19 -14 -4 30 22 -10 -16 -20 -20 -20 -20 -20 -20 -20 -20 -20 -20 -20 -20 -20 -20 -20 -20 -20 -20 -20
-20 -20 -20 -20 -20 -20 -20 -20 -20 -20 -8 -20 -20 -20 -20 -20 -20 -20 -20 -20 19 28 31 25 0 -10 -20 -20 -20 -20 -20 -20 -20 -20 -20 -20 -20 -20 -20 -20 -20 -20 -20 -20
-20 -20 -20 -20 -20 -20 -7 -20 -20 -20 -20 4 -20 -20 -20 -20 -20 -20 -20 -20 -20 -13 4 21 7 -20 -20 -20 -20 -20 -20 -20 -20 -20 -20 -20 -20 -20 -20 -20 -20 -20 -20 -20
-20 -20 -20 -20 -20 -10 -20 -20 -20 -20 -19 -9 -15 -20 -20 -20 -20 -20 -20 -20 -20 -11 -20 -2 12 -20 -15 -20 -20 -20 -20 -20 -20 -20 -20 -20 -20 -20 -20 -20 -20 -20 -20 -20
-20 -20 -20 -20 -14 -9 -20 -20 -20 -20 -20 22 -20 -20 -20 -20 -20 -20 -20 -20 -20 -20 -4 -2 -20 -20 -20 -20 -20 -20 -20 -20 -20 -20 -20 -20 -20 -20 -20 -20 -20 -20 -20 -20
-20 -20 -20 -20 -20 -20 -20 -20 -20 -16 -20 19 -13 -20 -20 -20 -2 -20 -20 -20 -20 -20 9 1 -20 -20 -0 0 -20 -20 -20 -20 -20 -20 -20 -20 -20 -20 -20 -20 -20 -20 -20 -20
-20 -20 -20 -20 -20 -20 -20 -20 -20 -20 -11 -10 -20 -20 -20 -20 -20 6 -20 -20 -20 4 -7 6 -20 20 16 -11 -20 -20 -20 -20 -20 -20 -20 -20 -20 -20 -20 -20 -20 -20 -20 -20
-20 -20 -20 -20 -20 -20 -20 -20 -20 -8 -20 -20 -20 -20 -20 -20 -20 -20 7 -3 14 1 -1 10 -20 -20 -8 -18 -20 -20 -20 -20 -20 -20 -20 -20 -20 -20 -20 -20 -20 -20 -20 -20
-20 -20 -20 -20 -20 -20 -20 -20 -20 -20 -20 -3 -20 -20 -20 -20 -9 -20 27 13 24 -15 -20 -20 -12 -20 -20 -20 -20 -20 -20 -20 -20 -20 -20 -20 -20 -20 -20 -20 -20 -20 -20 -20
-20 -20 -20 -20 -20 -20 -20 -20 -20 -20 -20 -20 -20 -20 -14 -20 5 -19 3 22 11 -4 -20 7 -16 -20 -20 -20 -20 -20 -20 -20 -20 -20 -20 -19 -19 -17 -11 -20 -20 -20 -20 -20
-20 -20 -20 -20 -20 -20 -20 -20 -20 -20 -20 -20 -3 -11 -6 -10 14 12 -7 -4 15 -1 -9 16 -20 -10 -18 -20 -20 -20 -20 -20 -20 -20 -20 -20 -20 -20 -20 -20 -20 -20 -20 -20
-20 -20 -20 -20 -20 -20 -20 -20 -20 -20 -20 -20 -20 -20 -20 6 22 18 3 8 -14 12 19 -14 -20 -17 -20 -20 -20 -20 -20 -20 -20 -20 -20 -20 -18 -20 -20 -20 -20 -20 -20 -20
-20 -20 -20 -20 -20 -20 -20 -20 -20 -20 -20 -20 -20 -19 -20 -2 -8 -13 -9 13 1 -15 -20 -20 -10 -20 -20 -20 -20 -20 -20 -20 -20 -20 -20 -20 -20 -20 -20 -20 -20 -20 -20 -20
-20 -20 -20 -20 -20 -20 -20 -20 -20 -20 -20 -20 -20 -8 -6 -20 -0 7 0 9 -13 -20 -20 -20 -20 -20 -20 -20 -15 -16 -20 -20 -20 -20 -20 -20 -20 -20 -20 -20 -20 -20 -20 -20
-20 -20 -20 -20 -20 -20 -20 -20 -20 -20 -20 -20 -20 -20 -18 -19 16 16 10 12 -4 -8 -20 -20 -16 21 24 17 16 8 -12 -20 -20 -20 -20 -20 -20 -20 -20 -20 -20 -20 -20 -20
-20 -20 -20 -20 -20 -20 -20 -20 -20 -20 -20 -20 -20 -20 -20 -20 17 22 22 21 20 15 3 -20 -19 0 -1 -16 10 10 2 -20 -20 -20 -20 -20 -20 -20 -20 -20 -20 -20 -20 -20

GFSNW_prec_radar_090.txt.gz
Reflectivity
-20 -20 -20 -20 -20 -20 -20 -20 -20 -20 -20 -20 -20 -20 -6 -0 -20 14 19 -4 -15 7 23 23 15 21 21 -2 -20 -20 -20 -20 -20 -20 -3 -18 7 -2 -20 -20 -20 -20 -20 -20
-20 -20 -20 -20 -20 -20 -20 -20 -20 -20 -20 -20 -20 -20 -20 -20 6 21 15 8 -20 -20 0 -1 33 33 32 7 -7 -20 -20 -20 -20 9 -14 8 -20 -20 -20 -20 -20 -20 -20 -20
-20 -20 -20 -20 -20 -20 -20 -20 -20 -20 -20 -20 -20 -11 -10 -20 -20 15 12 25 -20 -20 -20 16 10 21 31 30 24 2 -20 -20 -20 -20 -20 -20 -10 -20 -20 -20 -20 -20 -20 -20
-20 -20 -20 -20 -20 -20 -20 -20 -20 -20 -20 -20 -20 -20 -20 -20 -20 -20 -9 20 -15 5 -20 -17 -20 -17 19 30 37 33 4 -1 -20 -20 -20 -20 -15 -9 -20 -20 -20 -20 -20 -20
-20 -20 -20 -20 -20 -20 -20 -20 -20 -20 -20 -20 -20 -20 -20 -20 -20 -20 -16 5 -20 -19 2 7 -4 -20 3 16 34 39 32 15 -19 -16 -20 -17 -12 -4 -14 -20 -20 -20 -20 -20
-20 -20 -20 -20 -20 -20 -20 -20 -20 -20 -20 -20 -20 -20 -20 -20 -20 -20 5 7 2 -14 -20 -20 -20 -20 -20 -19 13 16 10 8 -20 -20 -14 -20 -20 -20 -20 -20 -20 -20 -20 -20
-20 -20 -20 -20 -20 -20 -20 -20 -20 -20 -20 -20 -20 -20 -20 -20 -20 -20 -20 -15 11 -1 -20 -20 -20 -20 -20 -20 -20 7 -17 -17 -20 -20 4 -16 -20 -20 -20 -15 -19 -20 -20 -20
-20 -20 -20 -20 -20 -20 -20 -20 -20 -20 -20 -20 -20 -20 -20 -20 -20 -20 -20 18 -12 -20 -20 -20 -20 -20 -20 -20 -20 -20 -20 -20 -20 -20 -20 -20 -20 -20 -20 -20 -20 -20 -20 -20
-20 -20 -20 -20 -20 -20 -20 -20 -20 -20 -20 -20 -20 -20 -20 -20 -20 -20 -20 -20 -20 5 -20 -20 -20 -20 -20 -20 -20 -20 -20 -20 -20 -20 -20 -20 -20 -20 -20 -20 -20 -20 -20 -20
-20 -20 -20 -20 -20 -20 -20 -20 -20 -20 -20 -20 -20 -20 -20 -20 -20 -13 -20 -20 -11 -13 -20 -20 -20 -20 -20 -20 -20 -20 -20 -20 -20 -20 -20 -20 -20 -20 -20 -20 -20 -20 -20 -20
-20 -20 -20 -20 -20 -20 -20 -20 -20 -20 -20 -20 -20 -20 -20 -20 -20 -20 -20 -15 -15 -20 -19 -20 -20 -20 -20 -20 -20 -20 -20 -20 -20 -20 -20 -20 -20 -20 -20 -0 -8 -20 -20 -20
-20 -20 -20 -20 -20 -20 -20 -20 -20 -9 -20 -20 -20 -20 -20 -20 -20 -20 -20 -20 -20 17 -3 -13 -11 -20 -20 -20 -20 -20 -20 -20 -20 -20 -20 -20 -20 -20 -20 -20 -20 -20 -20 -20
-20 -20 -20 -20 -4 -3 -20 -20 -20 -20 -20 -20 -20 -20 -20 -20 -20 -20 -20 -20 16 17 15 6 5 -12 -20 -20 -20 -20 -20 -20 -20 -20 -20 -20 -20 -20 -16 -20 -12 -20 -20 -20
-20 -20 -10 -20 -9 7 -16 -20 -20 -16 -20 -20 -20 -20 -20 -20 -20 -20 -20 -20 -20 -20 -5 14 17 -16 -20 -20 -20 -20 -20 -20 -20 -20 -20 -20 -20 -20 -20 -20 -20 -20 -20 -20
-20 -20 -20 -20 3 -10 -20 -20 -20 -20 -20 -20 -20 -20 -20 -20 -20 -20 -20 -20 -20 -20 -20 -16 9 1 -11 -20 -20 -20 -20 -20 -20 -20 -20 -20 -20 -20 -20 -20 -20 -20 -20 -20
-20 -20 -19 -20 6 -9 -20 -20 -20 -20 -20 -20 -20 -20 -20 -20 -20 -20 -20 -20 -20 -20 -9 -20 -16 -20 -12 -11 -20 -20 -20 -20 -20 -20 -20 -20 -20 -20 -20 -20 -20 -20 -20 -20
-20 -9 -18 -20 -12 -20 -20 -20 -20 -20 -19 -20 -20 -20 -20 -20 -20 -20 -20 -20 -20 -20 -20 -11 -20 -20 -3 -14 -20 -20 -20 -20 -20 -20 -20 -20 -20 -20 -20 -20 -20 -20 -20 -20
-13 -9 -13 -20 -20 -20 -20 -20 -20 -20 -20 -20 -20 -20 -20 -20 -20 -20 -17 -20 -20 -4 -18 8 -4 -8 -13 -1 -20 -20 -20 -20 -20 -20 -20 -20 -20 -20 -20 -20 -20 -20 -20 -20
-7 -11 -16 -15 -20 -20 -20 -20 -17 -11 -20 -20 -20 -20 -20 -20 -20 -20 13 -20 2 -11 15 4 -20 -20 -20 -20 -20 -20 -20 -20 -20 -20 -20 -20 -20 -20 -20 -20 -20 -20 -20 -20
-8 -20 -6 -20 -20 -20 -20 -7 -20 -20 -20 -20 -20 -20 -20 -20 -20 -20 7 27 16 -1 -19 -20 -15 -20 -20 -20 -20 -20 -20 -20 -20 -20 -20 -20 -20 -20 -20 -20 -20 -20 -20 -20
-4 -5 -13 -20 -20 -20 -20 -20 -20 -20 -20 -20 -20 -20 -11 -20 -9 -20 -19 15 -3 -14 -11 4 -2 -20 -20 -20 -20 -20 -20 -20 -20 -20 -20 -20 -20 -20 -20 -20 -20 -20 -20 -20
-3 -10 -20 -20 -20 -20 -20 -20 -20 -20 -20 -20 -9 -20 -20 -13 -3 2 -6 -12 12 -19 -4 3 -16 -20 -18 -20 -20 -20 -20 -20 -20 -20 -20 -20 -20 -20 -20 -20 -20 -20 -20 -20
-6 -20 -20 -20 -20 -20 -20 -20 -20 -20 -20 -20 -20 -20 -20 -20 -10 8 11 9 -20 5 6 -17 -20 -20 -20 -20 -20 -20 -20 -20 -20 -20 -20 -20 -20 -20 -20 -20 -20 -20 -20 -20
-9 -20 -20 -20 -20 -20 -20 -20 -20 -20 -20 -20 -20 -20 -20 -20 -5 -17 -17 4 16 -9 -20 -20 -19 -20 -20 -20 -20 -20 -20 -20 -17 -20 -20 -20 -20 -20 -20 -20 -20 -20 -20 -20
-20 -20 -20 -20 -20 -20 -20 -20 -20 -20 -20 -20 -20 -20 -20 -20 -19 -15 -4 11 0 -4 7 7 -19 -20 -6 -20 -14 -2 -20 -20 -20 -20 -20 -20 -20 -20 -20 -20 -20 -20 -20 -20
-20 -20 -20 -20 -20 -20 -20 -20 -20 -20 -20 -20 -20 -20 -20 -20 -15 -19 3 23 18 -2 -2 -7 -3 -4 6 29 32 26 9 -18 -20 -20 -20 -20 -20 -20 -20 -20 -20 -20 -20 -20
-20 -20 -20 -20 -20 -20 -20 -20 -20 -20 -20 -20 -20 -20 -20 -20 -20 -9 11 11 19 17 -4 -7 2 -11 5 31 6 -14 -10 -7 -15 -16 -20 -20 -20 -20 -20 -20 -20 -20 -20 -20

GFSNW_prec_radar_093.txt.gz
Reflectivity
-20 -20 -20 -20 -20 -20 -20 -20 -20 -20 -20 -20 -20 -20 -8 -20 -1 -18 16 25 -13 4 24 8 7 18 18 9 -20 -20 -20 -20 -20 0 7 11 12 -11 -11 -20 -20 -20 -20 -20
-20 -20 -20 -20 -20 -20 -20 -20 -20 -20 -20 -20 -20 -20 -7 -20 -20 -1 -12 19 2 -13 24 -1 24 33 28 -7 -15 -20 -20 -20 -20 -19 -2 -4 -20 -20 -20 -20 -20 -20 -20 -20
-20 -20 -20 -20 -20 -20 -20 -20 -20 -20 -20 -20 -20 -20 -20 -20 -20 3 -19 13 -9 -12 -20 -9 -11 23 27 -7 -20 -20 -20 -20 -20 6 -19 -20 -6 -20 -20 -20 -20 -20 -20 -20
-20 -20 -20 -20 -20 -20 -20 -20 -20 -20 -20 -20 -20 -20 -20 -20 -20 -20 -20 1 -17 20 3 -16 -20 -14 29 31 -4 -7 -20 -20 -20 5 -3 -0 -20 -20 -20 -20 -20 -20 -20 -20
-20 -20 -20 -20 -20 -20 -20 -20 -20 -20 -20 -20 -20 -20 -20 -20 -20 -20 -19 -13 -20 -19 21 18 -0 24 17 30 30 28 2 -16 -20 -20 -20 -14 -20 -20 -20 -20 -19 -20 -20 -20
-20 -20 -20 -20 -20 -20 -20 -20 -20 -20 -20 -20 -20 -20 -20 -20 -20 -20 -20 -11 -20 -3 -20 -20 -20 -20 -20 7 30 15 25 -6 3 3 -19 -20 -20 -20 -20 -20 -20 -20 -19 -7
-20 -20 -20 -20 -20 -20 -20 -20 -20 -20 -20 -20 -20 -20 -20 -20 -20 -20 -20 -18 1 -19 -20 -20 -20 -20 -20 -18 -20 17 22 13 -20 -19 -19 -20 -20 -20 -20 -20 -20 -20 -20 -20
-20 -20 -20 -20 -20 -20 -20 -20 -20 -20 -20 -20 -20 -20 -20 -20 -20 -20 -20 -20 -20 -7 -20 -20 -20 -20 -20 -20 -20 -20 -20 -20 -20 -20 -20 -20 -20 -20 -20 -20 -20 -20 -20 -20
-20 -20 -20 -20 -20 -20 -20 -20 -20 -20 -20 -20 -20 -20 -20 -20 -20 -20 -20 -20 -20 -18 -20 -20 -20 -20 -20 -20 -20 -20 -20 -20 -20 -20 -20 -20 -20 -20 -20 -20 -20 -20 -20 -20
-20 -20 -20 -20 -20 -20 -20 -20 -20 -20 -20 -20 -20 -20 -20 -20 -20 -20 -20 -20 -20 -20 -20 -20 -20 -20 -20 -20 -20 -20 -20 -20 -20 -20 -20 -20 -20 -20 -20 -20 -20 -20 -20 -20
-20 -20 -20 -20 -20 -20 -20 -20 -20 -20 -20 -20 -20 -20 -20 -20 -20 -20 -20 -20 -20 -20 -15 -11 -20 -20 -20 -20 -20 -20 -20 -20 -20 -20 -20 -20 -20 -20 -20 -20 -20 -20 -20 -20
-20 -20 -20 -20 -20 -20 -20 -20 -20 -20 -20 -20 -20 -20 -20 -20 -20 -20 -20 -19 -20 14 -20 -18 -0 -20 -20 -20 -20 -20 -20 -20 -20 -20 -20 -20 -20 -20 -20 -20 -20 -20 -20 -20
-20 -20 -20 -20 -20 -1 -20 -20 -20 -20 -20 -20 -20 -20 -20 -20 -20 -20 -20 -20 2 -5 -5 -0 -13 0 -20 -20 -20 -20 -20 -20 -20 -20 -20 -20 -20 -20 -20 -20 -11 -6 -19 -20
-20 -20 -20 -20 -17 16 -16 -20 -20 -20 -20 -20 -20 -20 -20 -20 -20 -20 -20 -20 -20 -20 -20 -7 4 15 -20 -20 -20 -20 -20 -20 -20 -20 -20 -20 -20 -20 -13 -15 -20 -20 -20 -20
-20 -20 -20 2 4 -11 -20 -20 -20 -20 -20 -20 -20 -20 -20 -20 -20 -20 -20 -20 -20 -20 -20 -18 -5 16 -10 -20 -20 -20 -20 -20 -20 -20 -20 -20 -20 -20 -20 -20 -20 -20 -20 -20
-20 -20 -11 10 1 -20 -20 -20 -20 -20 -20 -20 -20 -20 -20 -20 -20 -20 -20 -20 -20 -20 -20 -20 -10 -20 -17 9 -20 -20 -20 -20 -20 -20 -20 -20 -20 -20 -20 -20 -20 -20 -20 -20
-20 -20 4 14 -8 -20 -20 -20 -20 -6 -20 -20 -20 -20 -20 -20 -20 -20 -20 -20 -20 -20 -20 -4 -20 -20 -8 -17 -20 -20 -20 -20 -20 -20 -20 -20 -20 -20 -20 -20 -20 -20 -20 -20
-20 -15 4 12 -17 -20 -20 -20 -20 -20 -20 -20 -20 -20 -20 -20 -20 -20 -20 -20 -20 -1 -20 -20 5 -10 -8 3 -20 -20 -20 -20 -20 -20 -20 -20 -20 -20 -20 -20 -20 -20 -20 -20
-6 -7 4 9 -17 -20 -20 -20 -20 -20 -20 -20 -20 -20 -20 -20 -20 -20 -3 -20 -18 -20 -3 5 -1 7 -20 -20 -20 -20 -20 -20 -20 -20 -20 -20 -20 -20 -20 -20 -20 -20 -20 -20
-0 -14 3 2 -4 -15 -20 -20 -20 -20 -20 -20 -20 -20 -20 -20 -20 -20 -20 20 6 -17 -20 -20 5 -1 -20 -20 -20 -20 -20 -20 -20 -20 -20 -20 -20 -20 -20 -20 -17 -20 -20 -20
-11 -13 4 -2 -9 -20 -20 -20 -20 -20 -20 -20 -20 -20 -16 -20 -10 -20 -19 -7 -16 -17 -14 -19 -16 -10 -9 -20 -20 -20 -20 -20 -20 -20 -20 -20 -20 -20 -20 -20 -19 -20 -20 -20
-19 4 6 -5 -0 -18 -20 -20 -20 -20 -20 -20 -20 -20 -20 -20 -18 6 -17 -20 -8 -19 20 6 -20 -20 -20 -20 -20 -20 -11 -20 -20 -20 -20 -20 -20 -20 -20 -20 -20 -20 -20 -20
0 6 7 -4 -7 -18 -20 -20 -20 -20 -20 -20 -20 -20 -20 -20 -16 -19 -9 -4 -19 -6 -1 -12 -4 -7 -4 -6 -9 -13 -20 -20 -20 -20 -19 -18 -20 -20 -20 -20 -20 -20 -20 -20
2 9 4 -11 -6 -17 -20 -20 -20 -20 -20 -20 -20 -20 -20 -20 -20 -20 -17 -20 -3 -1 -20 -16 -13 -20 -20 -8 15 4 -3 -20 -20 -20 -20 -20 -20 -20 -20 -20 -20 -20 -20 -20
10 7 -11 -15 -4 -20 -20 -20 -20 -20 -20 -20 -20 -20 -20 -20 -18 -20 -20 -19 8 11 -11 -20 -20 -20 -20 -20 18 22 8 -5 -20 -20 -20 -20 -20 -20 -20 -20 -20 -20 -20 -20
11 -6 -20 -19 -20 -20 -20 -20 -20 -20 -20 -20 -20 -20 -20 -20 -20 -20 -20 -15 -16 -7 -17 -20 -20 -20 -20 -18 12 21 26 3 3 -9 -20 -20 -20 -20 -20 -20 -20 -20 -20 -20
-5 -20 -20 -20 -20 -20 -20 -20 -20 -20 -20 -20 -20 -20 -20 -20 -20 -20 -20 -20 -20 -20 -20 -20 -20 -20 -20 -20 14 22 18 14 10 13 12 6 -15 -20 -20 -20 -20 -20 -20 -20

GFSNW_prec_radar_099.txt.gz
Reflectivity
2 -5 -0 -20 -20 -20 -20 -20 -20 -20 -20 -3 -2 -20 -7 -20 -13 -20 10 -15 9 4 -19 9 23 11 5 -20 -20 -20 -20 -6 -20 -4 -14 -19 27 10 13 12 -16 -20 -10 -13
19 9 -20 -20 -20 -20 -20 -20 -20 -20 -20 -8 -12 -20 -20 -20 -20 -20 -20 10 -3 -4 6 16 8 0 3 -4 -20 -20 -20 -3 -20 -20 -20 -18 -19 -20 -20 -20 -2 -15 7 -14
22 -5 -20 -15 -20 -20 -20 -20 -20 -20 -20 -20 -20 -20 -20 -20 -20 -18 -20 3 -16 -20 6 9 8 7 -4 -7 -20 -20 -20 -20 -9 -20 -20 -20 -20 -20 -20 -20 -20 4 -10 -20
15 9 10 -18 -20 -20 -20 -20 -20 -20 -20 -20 -20 -20 -20 -20 -20 -20 -20 4 -13 -7 10 -16 -1 8 -5 -18 -19 -20 -20 -20 -20 -20 -20 -15 -20 -8 -14 1 -6 16 -20 -20
11 11 -20 -20 -20 -20 -20 -20 -20 -20 -20 -20 -20 -20 -20 -20 -20 -20 -20 -20 -20 -20 13 -20 -2 13 2 19 -1 -20 -20 -10 -6 -20 -20 -20 -20 -20 -20 -11 -18 -9 -19 -20
12 -17 -6 -20 -20 -20 -20 -20 -20 -20 -20 -20 -20 -20 -20 -20 -20 -20 -20 -20 -20 -20 -20 -20 -20 -20 2 28 5 -20 -14 -20 6 16 -11 -2 -2 -20 -20 -20 -20 -20 -20 -20
13 11 10 -17 -20 -20 -20 -20 -20 -20 -20 -20 -20 -20 -20 -20 -20 -20 -20 -20 -17 -20 -20 -20 -20 -20 -20 -20 23 -18 -20 -12 -8 22 15 16 -18 -20 -20 -20 -10 -20 -20 -20
-15 -20 6 -20 -20 -20 -20 -20 -20 -20 -20 -20 -20 -20 -20 -20 -20 -20 -20 -20 -20 -20 -20 -9 9 -4 -20 -20 -17 19 -3 7 19 17 16 -18 -20 -20 -20 -20 -20 -20 -20 -20
-4 2 5 -5 -20 -20 -20 -20 -20 -20 -20 -20 -20 -20 -20 -20 -20 -20 -20 -20 -20 -20 -20 -19 12 -17 -3 8 -19 -20 -5 -0 -20 4 -19 -20 -20 -20 -20 -20 -20 -20 -20 -20
15 -15 -20 -11 -20 -20 -20 -20 -20 -20 -20 -20 -20 -20 -20 -20 -20 -20 -20 -20 -20 -20 -20 -20 -10 2 -20 -3 -14 4 2 0 -1 8 5 -10 -20 -20 -20 -3 -19 -20 -20 -20
13 -20 -20 -20 -18 -20 -20 -20 -20 -20 -20 -20 -20 -20 -20 -20 -20 -20 -20 -20 -20 -20 -10 -12 -8 -20 -10 -11 -20 -20 -9 -3 9 -8 3 4 -20 -20 -3 -12 -20 -20 -20 -20
7 -7 -20 -20 -2 -20 -20 -20 -20 -20 -20 -20 -20 -20 -20 -20 -20 -20 -20 -20 -7 -20 -20 -20 -9 -20 -19 -19 8 -20 2 -19 -8 -18 2 -20 -20 -20 -20 -20 -20 -20 -20 -20
9 -9 -20 -20 -17 -9 -20 -20 -20 -20 -20 -20 -20 -20 -20 -20 -20 -20 -20 -20 -20 -20 -20 -20 -20 -20 -20 -17 -20 -20 -16 -20 -20 -18 -20 -20 -20 -20 -19 -20 -20 -20 -20 -20
-0 -20 -20 -20 -20 -20 -20 -20 -20 -20 -20 -20 -20 -20 -20 -20 -20 -20 -20 -20 -20 -20 -15 -20 -20 5 -12 -19 -17 -20 -18 -20 -17 -20 -20 -20 -20 -20 -20 25 -13 -20 3 -20
1 -19 -20 -20 -20 -16 -8 -20 -20 -20 -20 -20 -20 -20 -20 -20 -20 -20 -20 -20 -20 -6 -20 -20 -9 -14 6 -16 -20 -20 -20 -18 -20 5 -20 -20 -20 -13 25 -20 8 -17 -18 -20
-2 -0 -20 2 -12 -12 -11 -10 -20 -20 -20 -20 -20 -20 -20 -20 -20 -20 -20 -20 -19 -20 -20 -20 -20 -20 -19 8 -20 -20 -20 -20 -20 -20 -20 -20 -20 -20 -20 -20 -20 -20 -20 -20
-9 -20 -1 -20 -20 -9 -4 1 -7 -20 -20 -20 -20 -20 -20 -20 -20 -20 -16 -20 -16 -19 -18 -20 -20 -20 -5 -4 -4 -20 -20 -20 -20 -20 -20 -20 -20 -20 -20 -20 -20 -20 -20 -20
-12 -10 -20 -20 -20 -20 -4 8 -6 -20 -20 -20 -20 -20 -20 -20 -20 -20 -11 -15 -7 0 -5 -15 -20 1 6 8 -11 -20 -20 -20 -20 -20 -20 -20 -20 -20 -20 -20 -20 -20 -20 -20
3 -2 -20 -20 -20 -20 7 -0 -16 -20 -20 -20 -20 -20 -20 -20 -20 -20 -17 -20 -14 -20 -20 -20 5 -0 9 -10 -20 -20 -20 -20 -20 -20 -20 -20 -20 -20 -20 -20 -20 -20 -20 -20
-4 -20 -20 -7 -10 1 3 -20 -18 -19 -20 -20 -20 -20 -20 -20 -20 -16 -20 -6 -2 5 -19 -19 7 2 -20 -20 -20 -20 -20 -20 -20 -20 -20 -20 -20 -20 -20 -20 -20 -20 -20 -20
-20 -20 -5 4 -4 -10 -13 -20 -20 -20 -20 -20 -20 -20 -20 -20 -20 -16 -15 -20 -20 2 7 8 -6 1 -20 -20 -20 -20 -20 -20 -20 -20 -20 -20 -20 -20 -20 -20 -20 -20 -20 -20
6 -0 12 3 -18 -13 -13 -17 0 -11 -20 -20 -20 -20 -20 -20 -16 -7 -19 -20 -16 -20 -5 12 9 -20 -20 -20 -20 -20 -5 -20 -20 -20 -20 -20 -20 -20 -20 -20 -20 -20 -20 -20
13 6 -12 -12 -20 -19 -19 1 1 -12 -20 -20 -20 -20 -20 -20 -20 -19 -19 0 -18 -5 -1 7 -20 -20 -20 -20 -20 -20 -19 -12 -5 -20 -4 -20 -19 -20 -20 -20 -20 -20 -20 -20
7 -8 -15 -20 -19 -20 2 11 -2 -20 -20 -20 -20 -20 -20 -20 -20 -19 -18 -6 -12 8 6 -20 -20 -20 -20 -20 -20 -20 -20 -20 15 -20 -20 -7 -8 -20 -20 -20 -20 -20 -20 -20
5 7 -18 -20 -4 -6 7 2 -5 -20 -20 -20 -20 -20 -20 -20 -20 -20 -20 -15 -20 -5 -20 -20 -20 -20 -20 -20 -20 -20 -20 -9 13 -19 -20 -18 -20 -20 -20 -20 -20 -20 -20 -20
4 -18 -20 -20 -13 8 -1 -5 -15 -20 -20 -20 -20 -20 -20 -20 -20 -20 -20 -20 -20 -20 -20 -20 -20 -20 -20 -20 -20 -20 -20 -20 0 -11 -20 -20 -20 -18 -10 -18 -20 -20 -20 -20
-9 -20 -19 3 11 8 6 0 -10 -20 -20 -20 -20 -20 -20 -20 -20 -20 -20 -19 -20 -20 -20 -20 -20 -20 -20 -20 -20 -20 -20 -20 -20 -20 -20 -12 -18 -1 5 18 15 -4 -20 -20

GFSNW_prec_radar_105.txt.gz
Reflectivity
33 -7 -20 -20 25 7 -20 -20 -20 -20 -20 -20 -20 -20 -20 -20 -20 -18 7 12 -7 -16 -13 -5 -20 -19 -6 -20 -20 -20 -20 -20 -20 -20 -20 -20 -20 -20 -20 -20 -20 -1 -1 -20
32 -8 -17 -19 21 -20 -20 -20 -20 -20 -20 -20 -20 -20 -20 -20 -20 -3 -20 2 -15 -20 -5 12 -10 -2 -20 -20 -20 -20 -20 -20 -20 -20 -20 -20 -20 -20 -6 -4 24 28 20 -20
33 28 -20 -20 -16 -20 -10 -20 -20 -20 -20 -20 -20 -20 -20 -20 -20 -20 -1 -9 -20 -20 -20 -20 -20 -20 -20 -20 -20 -20 -20 -20 -20 -20 -20 -20 -20 -15 -11 -11 16 -13 -20 -19
35 16 -11 -3 3 -20 -20 -20 -20 -20 -20 -20 -20 -20 -20 -20 -20 -20 -20 8 -20 -20 -8 2 -12 -19 -20 -20 -20 -20 -20 -20 -20 -20 -20 -20 -20 -20 -20 -20 21 -20 -20 -20
33 22 -2 2 3 -1 -20 -20 -20 -20 -20 -20 -20 -20 -20 -20 -20 -20 -19 -20 -20 -20 -1 -20 -20 -20 -20 -20 -20 -20 -20 -20 -20 -20 -20 -20 -20 -20 -20 -20 2 -20 -20 -20
28 15 9 26 -5 -20 -20 -20 -20 -20 -20 -20 -20 -20 -20 -20 -20 -20 -20 -20 -20 -20 -20 -20 -20 -20 -20 -4 -14 -20 -20 -20 -20 -13 -20 -20 -20 -20 -20 -19 28 -13 10 -5
28 6 23 27 -11 -20 -20 -20 -20 -20 -20 -20 -20 -20 -20 -20 -20 -20 -20 -20 -20 -20 -20 -20 -20 -20 -19 -20 -20 -20 -20 -20 -20 0 -19 -15 -2 -20 -20 13 34 17 15 9
24 22 -1 28 24 -20 -20 -20 -20 -20 -20 -20 -20 -20 -20 -20 -20 -20 -20 -20 -20 -20 -20 -20 -14 -20 -20 -20 -17 -20 -20 -20 -1 -3 7 -16 -20 -20 -20 -20 -17 20 19 11
25 17 7 24 23 -7 -20 -20 -20 -20 -20 -20 -20 -20 -20 -20 -20 -20 -20 -20 -20 -20 -20 -20 -7 -20 -20 -19 -9 -6 -20 -20 -20 -20 14 7 -20 -20 -20 -20 -20 -20 -20 -11
15 9 26 24 15 -20 -20 -20 -20 -20 -20 -20 -20 -20 -20 -20 -20 -20 -20 -20 -20 -20 -20 -20 -20 -20 -20 -20 -20 -20 -20 -20 -20 -20 -10 -20 -20 -20 -20 -20 -3 -20 -20 -20
10 27 13 23 18 -20 -20 -20 -20 -20 -20 -20 -20 -20 -20 -20 -20 -20 -20 -20 -20 -20 -20 -20 -20 -20 -20 -20 -20 -20 -20 -20 -20 -20 -20 -20 -20 -20 -20 -7 -20 -20 -20 -20
28 24 12 22 14 4 -20 -20 -20 -20 -20 -20 -20 -20 -20 -20 -20 -20 -20 -20 -20 -20 -20 -20 -20 -20 -20 -20 -17 -20 -19 -20 -20 -20 -20 -20 -20 -20 -20 -20 -20 -20 -20 -20
28 28 15 18 7 -8 -20 -20 -20 -20 -20 -20 -20 -20 -20 -20 -20 -20 -20 -20 -20 -20 -20 -20 -20 -20 -20 -20 -20 -20 -20 -20 -20 -20 -20 -20 -20 -20 -20 -20 -5 -17 -20 -8
28 27 21 20 15 -8 -20 -20 -20 -20 -20 -20 -20 -20 -20 -20 -20 -20 -20 -20 -20 -20 -20 -20 -20 -20 -20 -20 -20 -20 -20 -20 -20 -20 -20 -20 -14 -20 -4 26 -8 -19 -14 -15
27 30 17 14 25 -14 -20 -20 -20 -20 -20 -20 -20 -20 -20 -20 -20 -20 -20 -20 -20 -20 -20 -20 -20 -20 -20 -10 -20 -20 -20 -20 -20 -20 -20 -20 -20 -20 -20 -18 -18 9 -12 16
8 25 19 13 14 -6 -5 -20 -20 -20 -20 -20 -20 -20 -20 -20 -20 -20 -20 -20 -20 -20 -20 -20 -20 -20 -20 -20 -20 -5 -20 -20 -20 -20 -20 -20 -20 -20 -20 -20 17 14 18 21
19 26 13 13 6 -8 -6 -9 -19 -20 -20 -20 -20 -20 -20 -20 -20 -19 -9 -15 -20 -20 -20 -20 -20 -20 -20 -18 -20 -11 -20 -20 -20 -20 -20 -20 -20 -20 -20 -20 -20 -17 -20 -16
20 26 16 16 -3 -20 -1 -13 -20 -20 -20 -20 -20 -20 -20 -20 -20 -17 -10 -10 -20 -20 -20 -20 -20 -20 -20 -20 -20 -20 -20 -20 -20 -20 -20 -20 -20 -20 -20 -20 -20 -20 -20 -20
29 25 18 -5 17 15 -12 -20 -20 -20 -20 -20 -20 -20 -20 -20 -20 -5 -9 -10 -20 -9 -20 -20 -20 -20 -16 -20 -20 -20 -20 -20 -20 -20 -20 -20 -20 -20 -15 -20 -2 -20 -3 -12
23 21 13 12 14 -17 -13 9 -20 -20 -20 -20 -20 -20 -20 -20 -20 -20 -15 -20 -8 -20 -20 -20 -20 -20 -20 -20 -20 -20 -20 -20 -20 -20 -20 -20 -20 -20 -20 -20 -20 -20 -20 -20
18 1 -9 0 7 -20 -20 3 -19 -20 -20 -20 -20 -20 -20 -20 -20 -20 -20 -20 -20 -20 -20 -20 -20 -20 -20 -20 -20 -20 -20 -20 -2 -14 -20 -20 -20 -20 -20 -20 -20 -20 -20 -20
7 1 -6 4 -1 -18 -19 -14 3 -20 -20 -20 -20 -20 -20 -20 -20 -20 -20 -20 -20 -20 -18 -18 -18 -20 -20 -20 -20 -20 -20 -20 -20 -20 -12 5 -17 -20 -20 -20 -19 -20 -20 -20
20 15 10 4 -19 -20 -20 -16 11 -17 -20 -20 -20 -20 -20 -20 -20 -20 -20 -20 -20 -20 -1 -20 -20 -20 -20 -20 -20 -20 -20 -20 -20 -20 -20 -20 -20 9 -20 -20 -20 -20 -20 -20
24 5 -11 -20 -20 -20 -17 10 7 -19 -20 -20 -20 -20 -20 -20 -20 -20 -20 -20 -20 -20 -20 -20 -20 -20 -20 -20 -20 -20 -20 -20 -20 -20 -20 -20 -20 -20 -20 -20 -20 -20 -9 7
11 -2 -15 -20 -20 -20 8 8 2 -18 -20 -20 -20 -20 -20 -20 -20 -20 -20 -20 -20 -20 -20 -20 -20 -20 -20 -20 -20 -20 -20 -20 -20 -20 -20 -20 -20 -17 -20 -20 -20 -20 -20 -10
6 -17 -19 -20 -19 -14 3 12 -1 -6 -14 -20 -20 -20 -20 -20 -20 -20 -20 -20 -20 -20 -20 -20 -20 -20 -20 -20 -20 -20 -20 -20 -20 -20 -20 -20 -3 -18 -20 -20 -20 -20 -20 -18
4 -20 -20 -6 8 7 5 12 4 -1 -16 -20 -20 -20 -20 -20 -20 -20 -20 -20 -20 -20 -20 -20 -20 -20 -20 -20 -20 -20 -20 -20 -20 -20 -20 -8 2 3 -20 -20 -19 -20 -20 -1

GFSNW_prec_radar_108.txt.gz
Reflectivity
41 34 34 -6 -17 -20 0 -20 -20 -20 -20 -20 -20 -20 -20 -20 -20 -16 -20 11 -10 -20 -7 -20 -19 -20 -20 -20 -20 -9 -20 -20 -20 -20 -20 -20 -20 -20 -20 -20 -20 -20 -20 -20
38 35 28 0 -15 -20 -18 -20 -20 -20 -20 -20 -20 -20 -20 -20 -20 -20 -20 -1 -20 -20 4 -5 -19 -20 -20 -20 -20 -20 -20 -20 -20 -20 -20 -20 -20 -20 -20 -20 -20 -18 -11 -20
33 36 25 8 1 -7 -1 -20 -20 -20 -20 -20 -20 -20 -20 -20 -20 -20 -20 -16 -20 -20 -9 -16 -20 -20 -20 -20 -20 -20 -20 -20 -20 -20 -20 -20 -20 -20 -20 -16 -11 13 14 2
38 34 24 10 -20 -19 -17 -20 -20 -20 -20 -20 -20 -20 -20 -20 -20 -20 -20 -6 -20 -20 -14 -18 -12 -20 -20 -20 -20 -20 -20 -20 -20 -20 -20 -20 -20 -20 1 -18 8 10 -1 -20
41 32 17 26 -5 -12 -19 -20 -20 -20 -20 -20 -20 -20 -20 -20 -20 -20 -20 -20 -20 -20 -20 -20 -20 -18 -20 -13 -20 -20 -20 -20 -20 -20 -20 -20 -20 -20 -20 -20 -20 -20 -20 -20
36 31 32 -10 -20 -20 -9 -20 -20 -20 -20 -20 -20 -20 -20 -20 -20 -20 -20 -20 -20 -20 -20 -20 -20 -20 6 6 -11 -20 -20 -20 -20 -19 -20 -20 -20 -20 -20 -20 -4 -20 -20 -13
38 33 24 18 -4 -15 -13 -20 -20 -20 -20 -20 -20 -20 -20 -20 -20 -20 -20 -20 -20 -20 -20 -20 -20 -20 -6 3 -20 -20 -20 -20 -20 -20 -17 -19 14 -20 -20 -20 29 18 -11 -20
36 33 23 22 14 -17 -1 -20 -20 -20 -20 -20 -20 -20 -20 -20 -20 -20 -20 -20 -20 -20 -20 -20 -20 -20 -20 -20 -20 -13 -20 -14 -20 -20 -20 -19 -17 -20 -20 -20 3 11 24 -12
30 30 21 29 11 -1 -18 -20 -20 -20 -20 -20 -20 -20 -20 -20 -20 -20 -20 -20 -20 -20 -20 -20 -19 -20 -20 -20 -20 13 -17 -6 -20 -20 -11 -20 -20 -20 -20 -20 -18 -20 -5 13
27 32 32 11 25 1 -12 -14 -20 -20 -20 -20 -20 -20 -20 -20 -20 -20 -20 -20 -20 -20 -20 -20 -20 -20 -20 -20 -20 -20 -20 -20 -20 -20 -20 -20 -20 -20 -20 -16 -12 -20 -20 -20
31 32 26 14 29 6 -20 -18 -20 -20 -20 -20 -20 -20 -20 -20 -20 -20 -20 -20 -20 -20 -20 -20 -20 -20 -20 -20 -20 -20 -20 -20 -20 -20 -20 -20 -20 -20 -17 -14 -20 -20 -20 -20
20 29 29 12 30 11 -1 -16 -20 -20 -20 -20 -20 -20 -20 -20 -20 -20 -20 -20 -20 -20 -20 -20 -20 -20 -20 -20 -20 -20 -20 -20 -20 -20 -20 -20 -20 -20 -20 -20 -20 -20 -20 -20
27 32 15 24 31 10 1 -20 -20 -20 -20 -20 -20 -20 -20 -20 -20 -20 -20 -20 -20 -20 -20 -20 -20 -20 -20 -20 -20 -20 -20 -20 -20 -20 -20 -20 -20 -20 2 -3 22 -17 -7 5
30 28 23 22 25 16 -20 -20 -20 -20 -20 -20 -20 -20 -20 -20 -20 -20 -20 -20 -20 -20 -20 -20 -20 -20 -20 -20 -20 -20 -20 -20 -20 -20 -20 -20 -20 -20 -19 2 29 -11 -20 -15
25 15 24 12 17 2 -20 -20 -20 -20 -20 -20 -20 -20 -20 -20 -20 -20 -20 -20 -20 -20 -20 -20 -20 -20 -20 -20 -20 -20 -20 -20 -20 -20 -20 -20 -20 -20 -20 -20 -18 -6 -15 -20
17 23 27 11 21 -15 -9 -20 -20 -20 -20 -20 -20 -20 -20 -20 -20 -20 -20 -20 -20 -20 -20 -20 -20 -20 -20 -20 -20 -20 -20 -20 -20 -20 -20 -20 -20 -20 -20 -20 -20 7 4 1
25 28 19 11 20 12 -15 -12 -20 -20 -20 -20 -20 -20 -20 -20 -20 -20 -20 -20 -20 -20 -20 -20 -20 -20 -20 -20 -20 -20 -20 -20 -20 -20 -20 -20 -20 -20 -20 -20 -20 -2 -20 -11
22 30 4 12 15 14 -17 -20 -20 -20 -20 -20 -20 -20 -20 -20 -20 -20 -20 -20 -20 -20 -20 -20 -20 -20 -20 -20 -20 -20 -20 -20 -20 -20 -20 -20 -20 -20 -20 -20 -20 -20 -20 -20
23 29 4 15 23 15 12 -17 -20 -20 -20 -20 -20 -20 -20 -20 -20 -20 -20 -20 -20 -20 -20 -20 -20 -20 -20 -20 -20 -20 -20 -20 -20 -20 -20 -20 -20 -20 -11 8 9 -7 -17 -11
30 27 9 10 20 8 -20 -3 -20 -20 -20 -20 -20 -20 -20 -20 -20 -20 -20 -20 -20 -20 -20 -20 -20 -20 -20 -20 -20 -20 -20 -20 -20 -20 -20 -20 -20 -20 -20 -20 -20 -20 -20 -19
32 31 10 8 10 9 15 -7 -20 -20 -20 -20 -20 -20 -20 -20 -20 -20 -20 -20 -20 -20 -20 -20 -20 -17 -20 -20 -20 -20 -20 -20 -20 -20 -20 -15 -14 -20 -20 -20 -20 -20 -20 -20
26 3 0 11 18 1 6 -14 -20 -20 -20 -20 -20 -20 -20 -20 -20 -20 -20 -20 -20 -20 -20 -4 -20 -20 -20 -20 -20 -20 -20 -20 -20 -20 -20 -20 -20 -20 -20 -20 -20 -20 -20 -20
9 22 23 7 18 -15 -20 -20 -20 -20 -20 -20 -20 -20 -20 -20 -20 -20 -20 -20 -20 -20 -20 -20 -20 -20 -20 -20 -20 -20 -20 -20 -20 -20 -20 -20 -20 -20 -20 -20 -19 -20 -20 -20
17 8 2 5 3 -20 -20 -20 3 4 -16 -20 -20 -20 -20 -20 -20 -20 -20 -20 -20 -20 -20 -20 -20 -20 -20 -20 -20 -20 -20 -20 -20 -20 -20 -20 -20 -20 -20 -20 -3 -19 -20 -20
15 20 9 -13 -20 -20 -20 -14 -9 4 -18 -20 -20 -20 -20 -20 -20 -20 -20 -20 -20 -20 -20 -20 -20 -20 -20 -20 -20 -20 -20 -20 -20 -20 -20 -20 -20 -20 -20 -17 -20 -20 -20 -20
9 -5 -20 -20 -20 -20 -1 -0 1 4 -20 -20 -20 -20 -20 -20 -20 -20 -20 -20 -20 -20 -20 -20 -20 -20 -20 -20 -20 -20 -20 -20 -20 -20 -20 -20 -20 -20 -20 -1 -20 -20 -20 -20
9 -15 -20 -20 -20 2 4 -2 15 1 -20 -20 -20 -20 -20 -20 -20 -20 -20 -20 -20 -20 -20 -20 -20 -20 -20 -20 -20 -20 -20 -20 -20 -20 -20 -20 -20 -16 -2 -19 -20 -20 -20 -20

GFSNW_prec_radar_114.txt.gz
Reflectivity
29 16 29 18 17 31 14 29 15 -14 -20 -20 -20 -20 -20 -20 -20 -20 -20 -20 -20 -20 -19 -20 -20 -20 -20 -20 -20 -20 -20 -20 -20 8 -20 -20 20 -20 -20 -20 -20 -20 -20 -20
25 9 27 19 30 26 31 25 5 14 8 -20 -20 -20 -20 -20 -20 -20 7 -8 -20 6 -14 -18 -20 -20 -20 -20 -20 -20 -20 -20 -20 -20 -20 -10 -20 -20 -20 -13 -20 -20 -20 -20
16 19 22 26 31 32 20 18 -20 -15 26 -20 -20 -20 -20 -20 -20 -20 -20 -20 -20 -20 -13 -20 -20 -20 -20 -20 -20 -20 -20 -20 -20 -20 -20 -20 -20 -20 -20 -17 -20 -20 -20 -18
27 19 29 27 18 27 22 -20 -20 -20 -17 -20 -20 -20 -20 -20 -20 -20 -20 -20 -20 -20 -2 -2 -13 -20 -20 -20 -20 -20 -20 -20 -20 -20 -20 -20 -20 -20 -20 -20 -20 -20 -17 -20
28 33 28 30 19 26 10 -20 -20 -20 -20 -20 -20 -20 -20 -20 -20 -20 -20 -20 -20 -20 -20 -20 -20 -20 -20 -20 -20 -20 -20 -20 -20 -20 -20 -20 -20 -20 -20 -20 -20 -20 -20 -20
28 29 31 28 12 17 7 -20 -20 -20 -20 -20 -20 -20 -20 -20 -20 -20 -20 -20 -20 -20 -20 -20 -1 -15 -20 -11 -20 -20 -20 -20 -20 -20 -20 -20 -15 -20 -20 -20 -20 -20 -20 -20
19 20 25 26 22 24 3 -20 -20 -20 -20 -20 -20 -20 -20 -20 -20 -20 -20 -20 -20 -20 -20 -18 -9 -10 -5 -20 -20 -20 -20 -20 -20 -20 -20 -20 -5 -20 -20 -20 -20 -20 -20 -20
8 5 18 19 9 26 14 -20 -20 -20 -20 -20 -20 -20 -20 -20 -20 -20 -20 -20 -20 -20 -20 -20 -20 -20 -20 -11 -9 -15 -20 -20 -20 -20 -20 -20 -20 -7 -20 -20 -20 -20 -20 -20
8 9 24 17 19 16 8 -20 -20 -20 -20 -20 -20 -20 -20 -20 -20 -20 -20 -20 -20 -20 -20 -20 -20 -20 -20 -20 -5 -20 -20 -20 -20 -20 -20 -20 -20 -20 -20 -20 -20 -20 -20 -20
10 15 21 12 6 11 2 -20 -20 -20 -20 -20 -20 -20 -20 -20 -20 -20 -20 -20 -20 -20 -20 -20 -20 -20 -20 -20 -20 -20 -10 -20 -20 -20 -20 -20 -20 -20 -20 -20 -20 -20 -20 -20
-1 6 25 11 10 -9 -11 -20 -20 -20 -20 -20 -20 -20 -20 -20 -20 -20 -20 -20 -20 -20 -20 -20 -20 -20 -20 -20 -20 -20 -20 -20 -20 -20 -20 -20 -20 -20 -5 -20 -20 -20 -20 -20
9 -11 20 11 5 -20 -20 -20 -20 -20 -20 -20 -20 -20 -20 -20 -20 -20 -20 -20 -20 -20 -20 -20 -20 -20 -20 -20 -20 -20 -20 -20 -20 -20 -20 -20 -20 -20 -20 -20 -20 2 -20 -20
25 11 15 24 -7 -20 -20 -20 -20 -20 -20 -20 -20 -20 -20 -20 -20 -20 -20 -20 -20 -20 -20 -20 -20 -20 -20 -20 -20 -20 -20 -20 -20 -20 -20 -20 -20 -20 -20 -20 -20 -5 -5 -20
11 22 20 14 -4 -20 5 -1 -20 -20 -20 -20 -20 -20 -20 -20 -20 -20 -20 -20 -20 -20 -20 -20 -20 -20 -20 -20 -20 -20 -20 -20 -20 -20 -20 -20 -20 -20 -20 -20 -20 -20 -16 -20
16 26 19 2 6 -19 -16 8 5 -19 -20 -20 -20 -20 -20 -20 -20 -20 -20 -20 -20 -20 -20 -20 -20 -20 -20 -20 -20 -20 -20 -20 -20 -20 -20 -20 -20 -20 -20 -20 -20 -20 -20 -20
10 26 26 9 2 -7 -20 4 1 -20 -20 -20 -20 -20 -20 -20 -20 -20 -20 -20 -20 -20 -20 -20 -20 -20 -20 -20 -20 -20 -20 -20 -20 -20 -20 -20 -20 -20 -20 -20 -20 -8 -6 3
14 25 30 22 3 -8 -20 -20 -20 12 -14 -20 -20 -20 -20 -20 -20 -20 -20 -20 -20 -20 -20 -20 -20 -20 -20 -20 -20 -20 -20 -20 -20 -20 -20 -20 -20 -20 -20 -20 -9 -2 2 6
25 25 32 26 14 3 -20 -20 -2 4 -5 -20 -20 -14 -20 -20 -20 -20 -20 -20 -20 -20 -20 -20 -20 -20 -20 -20 -20 -20 -20 -20 -20 -20 -20 -20 -20 -20 -20 -20 -20 -20 -16 -18
27 31 30 26 12 9 -7 -20 -20 -20 -20 -20 -20 -20 -20 -20 -20 -20 -20 -20 -20 -20 -20 -20 -20 -20 -20 -20 -20 -20 -20 -20 -20 -20 -20 -20 -20 -20 -20 -20 -20 -20 -20 -20
29 25 35 22 17 6 23 -16 -20 -20 -20 -20 -20 -20 -20 -20 -20 -20 -20 -20 -20 -20 -20 -20 -20 -20 -20 -20 -20 -20 -20 -20 -20 -20 -20 -20 -20 -20 -20 -20 -20 -20 -20 -20
22 33 33 23 16 24 19 10 -20 -20 -20 -20 -20 -20 -20 -20 -20 -20 -20 -20 -20 -20 -20 -20 -20 -20 -20 -20 -20 -20 -20 -20 -20 -20 -20 -20 -20 -20 -20 -20 -20 -20 -20 -20
23 23 24 23 35 23 9 3 -17 -20 -20 -20 -20 -20 -20 -20 -20 -20 -20 -20 -20 -20 -20 -20 -20 -20 -20 -20 -20 -20 -20 -20 -20 -20 -20 -20 -20 -20 -20 -20 -20 -20 -20 -20
31 34 26 22 17 3 -19 -20 -20 -20 -20 -20 -12 -20 -20 -20 -20 -20 -20 -20 -20 -20 -14 -20 -20 -20 -20 -20 -20 -20 -20 -20 -20 -20 -20 -20 -20 -20 -20 -20 -20 -20 -20 -20
30 25 23 18 9 -20 -20 -20 -20 -20 -19 -9 -10 -18 -20 -20 -20 -20 -20 -20 -20 -20 -20 -20 -20 -20 -20 -20 -20 -20 -20 -20 -20 -20 -20 -20 -20 -20 -20 -20 -20 -20 -20 -20
27 25 21 6 -20 -20 -20 -20 -20 -20 -20 -10 -11 -20 -20 -20 -20 -20 -20 -20 -20 -20 -20 -20 -20 -20 -20 -20 -20 -20 -20 -20 -20 -20 -20 -20 -20 -20 -20 -20 -20 -20 -20 -20
23 20 13 -19 -20 -20 -20 -20 -11 -20 -20 -20 -20 -20 -20 -20 -20 -20 -20 -20 -20 -20 -20 -20 -20 -20 -20 -20 -20 -20 -20 -20 -20 -20 -20 -20 -20 -20 -20 -20 -20 -20 -20 -20
25 12 -20 -20 -20 -20 -20 -19 6 8 -12 -20 -20 -20 -20 -20 -20 -20 -20 -20 -20 -20 -20 -20 -20 -20 -20 -20 -20 -20 -20 -20 -20 -20 -20 -20 -20 -20 -20 -20 -20 -20 -20 -20

GFSNW_prec_radar_117.txt.gz
Reflectivity
-17 -19 20 3 -8 6 13 20 24 20 -2 -20 -20 -20 -20 -20 -20 -20 -20 -20 -20 -20 -20 -20 -20 -20 -20 -20 -20 -20 -20 -20 -20 -19 6 -20 -1 13 4 -19 16 -20 -16 24
-0 -4 -6 -13 9 26 25 25 17 13 -11 -20 -20 -20 -20 -20 -20 -15 2 -20 -20 6 -20 -20 -20 -20 -20 -20 -20 -20 -20 -20 -20 -17 -20 -20 -20 -8 7 -20 -20 -15 -9 19
0 -19 -4 23 24 22 18 -16 -3 14 13 -20 -20 -20 -20 -20 -20 -20 -20 -20 -20 4 -13 -20 -20 -20 -20 -20 -20 -20 -20 -20 -20 -20 -20 -20 -20 -9 -20 -20 -20 -18 -7 -9
-19 10 20 24 25 4 -16 3 -20 -20 -14 -15 -20 -20 -20 -20 -20 -20 -20 -20 -20 -3 -19 -20 -9 -20 -20 -20 -20 -20 -20 -20 -20 -20 -20 -20 -20 -20 -18 -20 -20 -20 -14 -20
-20 -11 8 11 13 -16 -17 -20 -20 -20 -20 -20 -20 -20 -20 -20 -20 -20 -20 -20 -20 -20 -20 -20 -13 -7 -20 -20 -20 -20 -20 -20 -20 -20 -20 -20 -20 -20 -20 -20 -16 -20 -20 -15
-17 -20 -20 -0 -20 -1 12 -20 -20 -20 -20 -20 -20 -20 -20 -20 -20 -20 -20 -20 -20 -20 -20 -13 -20 -15 -20 -20 -20 -20 -20 -20 -20 -20 -20 -20 -20 -20 -20 -20 -20 -7 -20 -20
18 11 5 2 -5 -17 21 -20 -20 -20 -20 -20 -20 -20 -20 -20 -20 -20 -20 -20 -20 -20 -11 -20 -20 -20 -20 -20 -20 -20 -20 -20 -20 -20 -20 -20 2 -20 -20 -20 -20 -20 -20 -20
14 15 1 -3 -20 -20 13 -20 -20 -20 -20 -20 -20 -20 -20 -20 -20 -20 -20 -20 -20 -20 -20 -20 -20 -20 -20 -20 -20 -20 -20 -20 -20 -20 -20 -15 -20 -20 -20 -20 -20 -20 -20 -20
19 14 11 8 -19 -20 -18 -20 -20 -20 -20 -20 -20 -20 -20 -20 -20 -20 -20 -20 -20 -20 -20 -20 -20 -20 -20 -20 -20 -20 -20 -20 -20 -20 -20 -20 -20 -20 -20 -20 -20 -20 -20 -20
17 21 16 12 -5 -20 -20 -20 -20 -20 -20 -20 -20 -20 -20 -20 -20 -20 -20 -20 -20 -20 -20 -20 -20 -20 -20 -20 -20 -20 -20 -20 -20 -20 -20 -20 -20 -20 -20 -20 -20 -3 -20 -20
7 20 17 11 -20 -20 -20 -20 -20 -20 -20 -20 -20 -20 -20 -20 -20 -20 -20 -20 -20 -20 -20 -20 -20 -20 -20 -20 -20 -20 -20 -20 -20 -20 -20 -20 -20 -20 -10 -20 -3 -9 -14 -20
-14 14 23 15 8 -20 -20 -20 -20 -20 -20 -20 -20 -20 -20 -20 -20 -20 -20 -20 -20 -20 -20 -20 -20 -20 -20 -20 -20 -20 -20 -20 -20 -20 -20 -20 -20 -20 -20 -20 -20 -20 -19 -20
-19 11 18 23 17 3 -20 -20 -20 -20 -20 -20 -20 -20 -20 -20 -20 -20 -20 -20 -20 -20 -20 -20 -20 -20 -20 -20 -20 -20 -20 -20 -20 -20 -20 -20 -20 -20 -20 -17 -20 -20 -16 -20
-18 8 17 22 21 -2 -20 -20 -20 -20 -20 -20 -20 -20 -20 -20 -20 -20 -20 -20 -20 -20 -20 -20 -20 -20 -20 -20 -20 -20 -20 -20 -20 -20 -20 -20 -20 -20 -20 -20 -20 -19 -17 -20
4 1 19 23 25 13 -20 -20 -20 -20 -20 -20 -20 -20 -20 -20 -20 -20 -20 -20 -20 -20 -20 -20 -20 -20 -20 -20 -20 -20 -20 -20 -20 -20 -20 -20 -20 -20 -20 -20 -20 -20 -20 -20
-5 20 17 23 25 -0 -7 -20 -20 -20 -20 -20 -20 -20 -20 -20 -20 -20 -20 -20 -20 -20 -20 -20 -20 -20 -20 -20 -20 -20 -20 -20 -20 -20 -20 -20 -20 -20 -20 -20 -20 -20 -20 -20
10 17 26 27 22 -0 -14 -20 -20 -17 -20 -20 -20 -20 -20 -20 -20 -20 -20 -20 -20 -20 -20 -20 -20 -20 -20 -20 -20 -20 -20 -20 -20 -20 -20 -20 -20 -20 -20 -20 -20 -20 -20 -15
-17 21 29 29 27 5 -20 -18 -20 -20 -20 -20 -20 -20 -20 -20 -20 -20 -20 -20 -20 -20 -20 -20 -20 -20 -20 -20 -20 -20 -20 -20 -20 -20 -20 -20 -20 -20 -20 -20 -20 -20 -20 -20
-20 27 29 24 31 23 -11 -20 -20 -20 -20 -20 -20 -20 -20 -20 -20 -20 -20 -20 -20 -20 -20 -20 -20 -20 -20 -20 -20 -20 -20 -20 -20 -20 -20 -20 -20 -20 -20 -20 -20 -20 -20 -20
21 12 30 20 24 23 13 -17 -20 -20 -20 -20 -20 -20 -20 -20 -20 -20 -20 -20 -20 -20 -20 -20 -20 -20 -20 -20 -20 -20 -20 -20 -20 -20 -20 -20 -20 -20 -20 -20 -20 -20 -20 -20
13 15 30 27 17 34 21 -6 -20 -20 -20 -20 -20 -20 -20 -20 -20 -20 -20 -20 -20 -20 -20 -20 -20 -20 -20 -20 -20 -20 -20 -20 -20 -20 -20 -20 -20 -20 -20 -20 -20 -20 -20 -20
16 18 23 23 30 29 24 -5 -20 -20 -20 -20 -20 -20 -20 -20 -20 -20 -20 -20 -20 -20 -20 -20 -20 -20 -20 -20 -20 -20 -20 -20 -20 -20 -20 -20 -20 -20 -20 -20 -20 -20 -20 -20
19 23 24 23 24 25 17 -19 -20 -20 -20 -20 -20 -20 -20 -20 -20 -20 -20 -20 -20 -20 -20 -20 -20 -20 -20 -20 -20 -20 -20 -20 -20 -20 -20 -20 -20 -20 -20 -20 -20 -20 -20 -20
20 19 24 22 22 11 -19 -20 -20 -20 -20 -18 -20 5 -19 -20 -20 -20 -20 -20 -20 -20 -20 -20 -20 -20 -20 -20 -20 -20 -20 -20 -20 -20 -20 -20 -20 -20 -20 -20 -20 -20 -20 -20
19 19 13 17 2 -20 -20 -20 -20 -20 -20 -20 -18 -10 -18 -20 -20 -20 -20 -20 -20 -20 -20 -20 -20 -20 -20 -20 -20 -20 -20 -20 -20 -20 -20 -20 -20 -20 -20 -20 -20 -20 -20 -20
10 15 6 -12 -20 -20 -20 -20 -20 -20 -13 -14 -10 -20 -20 -20 -20 -20 -20 -20 -20 -20 -20 -20 -20 -20 -20 -20 -20 -20 -20 -20 -20 -20 -20 -20 -20 -20 -20 -20 -20 -20 -20 -20
12 -6 -20 -20 -20 -20 -20 -20 -20 -10 3 -18 -20 -20 -20 -20 -20 -20 -20 -20 -20 -20 -20 -20 -20 -20 -20 -20 -20 -20 -20 -20 -20 -20 -20 -20 -20 -20 -20 -20 -20 -20 -20 -20

GFSNW_prec_radar_120.txt.gz
Reflectivity
-20 -20 -20 -20 -20 -2 14 17 21 10 -20 -1 -20 -20 -20 -20 3 7 1 -20 -20 -20 -20 -20 -20 -20 -20 -20 -20 -20 -20 -20 -20 -20 10 15 23 17 -2 -2 -20 -1 11 27
-20 -20 -19 -20 7 2 -15 -12 10 -2 -20 -20 -20 -20 -20 -20 -18 -2 -0 -20 -20 -18 -20 -20 -20 -20 -20 -20 -20 -17 -20 -20 -20 -20 14 8 -20 11 15 5 -20 5 9 25
-20 -20 -20 -20 -20 -20 -20 -20 -5 -1 10 -20 -20 -20 -20 -20 -20 -20 -20 -20 -20 -20 -20 -20 -20 -20 -20 -20 -20 -20 -20 -20 -20 -11 -16 -6 0 -20 -8 -14 12 11 16 12
0 -20 -20 -20 -20 -20 -20 -20 -20 -16 2 -8 -20 -20 -20 -20 -20 -20 -20 -20 -20 -18 -20 -10 -20 -20 -20 -20 -20 -20 -20 -20 -20 -20 -20 -19 -5 -20 -18 -20 -7 -0 -6 -13
15 -20 -20 -20 -20 -20 -20 -20 -20 -20 -20 -20 -20 -20 -20 -20 -20 -20 -20 -20 -20 -20 -20 -20 -20 -20 -20 -20 -20 -20 -20 -20 -20 -20 -20 -20 -20 -20 -20 -20 -13 -15 -20 -20
21 14 7 -20 -20 -20 -20 -20 -20 -20 -20 -20 -20 -20 -20 -20 -20 -20 -20 -20 -20 -20 -20 -20 -20 -20 -20 -20 -20 -20 -20 -20 -20 -20 -20 -20 -15 3 3 5 -11 -5 -5 3
10 14 19 14 2 -20 -20 -20 -20 -20 -20 -20 -20 -20 -20 -20 -20 -20 -20 -20 -20 -20 -20 -20 -17 -20 -20 -20 -20 -20 -20 -20 -20 -20 -20 -20 1 -20 -10 13 9 0 -20 -20
4 18 19 15 3 -20 -20 -20 -20 -20 -20 -20 -20 -20 -20 -20 -20 -20 -20 -20 -20 -20 -20 -20 -20 -20 -17 -20 -20 -20 -20 -20 -20 -20 -20 -20 -20 -20 -16 -20 9 -5 -20 -20
-15 17 14 15 3 -20 -20 -20 -20 -20 -20 -20 -20 -20 -20 -20 -20 -20 -20 -20 -20 -20 -20 -20 -20 -20 -20 -20 -20 -20 -20 -20 -20 -20 -20 -20 -20 -20 -20 -20 -18 -20 -20 -20
-17 -8 10 16 19 -19 -20 -20 -20 -20 -20 -20 -20 -20 -20 -20 -20 -20 -20 -20 -20 -20 -20 -13 -20 -20 -20 -20 -20 -20 -20 -20 -20 -20 -20 -20 -20 -20 -20 -20 -20 -20 -20 -20
-3 -14 2 12 17 -7 -20 -20 -20 -20 -20 -20 -20 -20 -20 -20 -20 -20 -20 -20 -20 -20 -20 -20 -20 -20 -20 -20 -20 -20 -20 -20 -20 -20 -20 -20 -20 -20 -15 -20 -20 -17 -15 -20
-20 13 -0 -10 14 6 -20 -20 -20 -20 -20 -20 -20 -20 -20 -20 -20 -20 -20 -20 -20 -20 -20 -20 -20 -20 -20 -20 -20 -20 -20 -20 -20 -20 -20 -20 -20 -20 -20 -20 3 -20 -20 -20
9 -20 19 -13 -11 17 4 -20 -20 -20 -20 -20 -20 -20 -20 -20 -20 -20 -20 -20 -20 -20 -20 -20 -20 -20 -20 -20 -20 -20 -20 -20 -20 -20 -20 -20 -20 -20 -20 -20 -20 -20 -20 -20
4 -14 -16 15 -20 -9 13 -17 -20 -20 -20 -20 -20 -20 -20 -20 -20 -20 -20 -20 -20 -20 -20 -20 -20 -20 -20 -20 -20 -20 -20 -20 -20 -20 -20 -20 -20 -20 -20 -20 -20 -20 -20 -20
-20 -20 4 -5 10 -20 -3 -12 -20 -20 -20 -20 -20 -20 -20 -20 -20 -20 -20 -20 -20 -20 -20 -20 -20 -20 -20 -20 -20 -20 -20 -20 -20 -20 -20 -20 -20 -20 -20 -20 -20 -20 -20 -20
-20 5 -8 1 9 -0 -20 -7 -20 -20 -20 -20 -20 -20 -20 -20 -20 -20 -20 -20 -20 -20 -20 -20 -20 -20 -20 -20 -20 -20 -20 -20 -20 -20 -20 -20 -20 -20 -20 -20 -20 -20 -20 -20
-15 -2 15 20 4 -20 -14 -17 -20 -20 -20 -20 -20 -20 -20 -20 -20 -20 -20 -20 -20 -20 -20 -20 -20 -20 -20 -20 -20 -20 -20 -20 -20 -20 -20 -20 -20 -20 -20 -20 -20 -20 -20 -20
-7 -15 22 22 16 10 -12 -19 -20 -20 -20 -20 -20 -20 -20 -20 -20 -20 -20 -20 -20 -20 -20 -20 -20 -20 -20 -20 -20 -20 -20 -20 -20 -20 -20 -20 -20 -20 -20 -20 -20 -20 -20 -20
12 -20 25 19 6 -2 -19 -14 -20 -20 -20 -20 -20 -20 -20 -20 -20 -20 -20 -20 -20 -20 -20 -20 -20 -20 -20 -20 -20 -20 -20 -20 -20 -20 -20 -20 -20 -20 -20 -20 -20 -20 -20 -20
16 -6 10 29 13 7 1 24 3 -20 -20 -20 -20 -20 -20 -20 -20 -20 -20 -20 -20 -20 -20 -20 -20 -20 -20 -20 -20 -20 -20 -20 -20 -20 -20 -20 -20 -20 -20 -20 -20 -20 -20 -20
13 14 15 27 17 -11 25 12 1 -20 -20 -20 -20 -20 -20 -20 -20 -20 -20 -20 -20 -20 -20 -20 -20 -20 -20 -20 -20 -20 -20 -20 -20 -20 -20 -20 -20 -20 -20 -20 -20 -20 -20 -20
16 18 17 19 27 23 10 6 -20 -20 -20 -20 -20 -20 -20 -20 -20 -20 -20 -20 -20 -20 -20 -20 -20 -20 -20 -20 -20 -20 -20 -20 -20 -20 -20 -20 -20 -20 -20 -20 -20 -20 -20 -20
18 25 6 15 13 18 11 -11 -20 -20 -20 -20 -20 -20 -2 -20 -20 -14 -20 -20 -20 -20 -9 -20 -20 -20 -20 -20 -20 -20 -20 -20 -20 -20 -20 -20 -20 -20 -20 -20 -20 -20 -20 -20
26 22 20 14 5 -20 -20 -20 -20 -20 -20 -20 -9 -9 11 9 -14 3 7 -20 -20 -20 -20 -20 -20 -20 -20 -20 -20 -20 -20 -20 -20 -20 -20 -20 -20 -20 -20 -20 -20 -20 -20 -20
23 15 12 11 -20 -20 -20 -20 -20 -20 -20 -19 5 9 8 11 4 -2 -17 -20 -20 -20 -19 -20 -20 -20 -20 -20 -20 -20 -20 -20 -20 -20 -20 -20 -20 -20 -20 -20 -20 -20 -20 -20
25 18 -13 -20 -20 -20 -20 -20 -20 -20 -20 5 13 14 14 -11 -13 -20 -20 -20 -20 -20 8 -12 -20 -20 -20 -20 -20 -20 -20 -20 -20 -20 -20 -20 -20 -20 -20 -20 -20 -20 -20 -20
21 13 -20 -20 -20 -20 -20 -20 -20 -20 1 14 16 -0 -9 -20 -20 -20 -20 -20 -20 -12 6 -20 -20 -20 -20 -20 -20 -20 -20 -20 -20 -20 -20 -20 -20 -20 -20 -20 -20 -20 -20 -20

GFSNW_prec_radar_123.txt.gz
Reflectivity
6 -11 1 11 -20 -20 4 -6 -13 -20 -20 -20 -20 -0 -20 -20 -13 3 4 -15 -14 -20 -20 -20 -20 -20 -20 -20 -20 -20 -20 -20 -4 -11 -2 4 29 16 -19 3 7 2 14 27
1 13 4 14 13 13 -20 -20 1 -20 -11 -17 -20 -20 -20 -20 -10 1 -20 -5 -19 -20 -20 -20 -20 -20 -20 -20 -20 -20 -20 -20 -7 -20 -5 0 11 19 -12 25 10 1 15 28
17 -8 -2 4 12 7 -19 -19 -6 -17 -20 -20 -20 -10 -12 -20 -20 -20 -20 -20 -20 -20 -20 -20 -20 -20 -20 -20 -20 -20 -20 -20 -20 -10 -6 19 5 -8 24 14 12 10 26 22
-5 13 -4 -8 -19 -20 -20 -20 -18 -20 -6 -20 -20 -20 -20 -20 -20 -20 -20 -20 -20 -20 -20 -20 -20 -20 -20 -20 -20 -20 -20 -20 -20 -20 -15 -5 -13 -1 -17 11 22 16 24 28
-12 3 -20 -20 -20 -20 -20 -20 -20 -20 -20 -20 -20 -20 -20 -20 -20 -20 -20 -20 -20 -20 -20 -20 -20 -20 -20 -20 -20 -20 -20 -20 -20 -20 -20 -20 -20 -5 -2 -7 -11 1 16 20
-3 17 -0 -17 -20 -20 -20 -20 -20 -20 -20 -20 -20 -20 -20 -20 -20 -20 -20 -20 -20 -20 -20 -20 -20 -20 -20 -20 -20 -20 -20 -20 -20 -20 -20 -20 -15 -1 5 4 -4 -7 -4 6
-20 -0 19 16 3 -20 -20 -20 -20 -20 -20 -20 -20 -20 -20 -20 -20 -20 -20 -20 -20 -20 -20 -20 -20 -20 -20 -20 -20 -20 -20 -20 -20 -20 -20 -20 -19 -20 -16 -4 -2 -19 -4 -20
-20 -20 -3 13 -10 -20 -20 -20 -20 -20 -20 -20 -20 -20 -20 -20 -20 -20 -20 -20 -20 -20 -20 -20 -20 -20 -20 -20 -20 -20 -20 -20 -20 -20 -20 -20 -20 -20 -20 -20 -20 -20 -17 -20
-20 -20 -20 -19 -20 -20 -20 -20 -20 -20 -20 -20 -20 -20 -20 -20 -20 -20 -20 -20 -20 -20 -20 -20 -20 -20 -20 -20 -20 -20 -20 -20 -20 -20 -20 -20 -20 -20 -20 -20 -20 -20 -20 -20
-1 -15 -20 -20 -20 -20 -20 -20 -20 -20 -20 -20 -20 -20 -20 -20 -20 -20 -20 -20 -20 -20 -20 -11 -20 -20 -20 -20 -20 -20 -20 -20 -20 -20 -20 -20 -20 -20 -20 -15 -19 -20 -11 -20
-20 -11 -19 -20 -20 -20 -20 -20 -20 -20 -20 -20 -20 -20 -20 -20 -20 -20 -20 -20 -20 -20 -18 -20 -20 -20 -20 -20 -20 -20 -20 -20 -20 -20 -20 -20 -20 -20 -20 -17 -20 -20 -20 -20
-20 -20 -16 3 -20 -20 -20 -20 -20 -20 -20 -20 -20 -20 -20 -20 -20 -20 -20 -20 -20 -20 -20 -20 -20 -20 -20 -20 -20 -20 -20 -20 -20 -20 -20 -20 -20 -20 -20 -20 -20 -20 2 -20
-20 -20 -20 7 -10 -20 -20 -20 -20 -20 -20 -20 -20 -20 -20 -20 -20 -20 -20 -20 -20 -20 -20 -20 -20 -20 -20 -20 -20 -20 -20 -20 -20 -20 -20 -20 -20 -20 -20 -20 -20 -20 -20 -20
-20 -17 -18 -20 9 -3 -20 -20 -20 -20 -20 -20 -20 -20 -20 -20 -20 -20 -20 -20 -20 -20 -20 -20 -20 -20 -20 -20 -20 -20 -20 -20 -20 -20 -20 -20 -20 -20 -20 -20 -20 -20 -20 -20
-20 -20 -20 1 -15 9 0 -20 -20 -20 -20 -20 -20 -20 -20 -20 -20 -20 -20 -20 -20 -20 -20 -20 -20 -20 -20 -20 -20 -20 -20 -20 -20 -20 -20 -20 -20 -20 -20 -20 -20 -20 -20 -20
-20 -20 -20 -15 -9 -9 -15 -20 -20 -20 -20 -20 -20 -20 -20 -20 -20 -20 -20 -20 -20 -20 -20 -20 -20 -20 -20 -20 -20 -20 -20 -20 -20 -20 -20 -20 -20 -20 -20 -20 -20 -20 -20 -20
-20 -20 19 16 -19 -8 -7 -20 -20 -20 -20 -20 -20 -20 -20 -20 -20 -20 -20 -20 -20 -20 -20 -20 -20 -20 -20 -20 -20 -20 -20 -20 -20 -20 -20 -20 -20 -20 -20 -20 -20 -20 -20 -20
-20 -20 10 19 15 11 -1 -10 -20 -20 -20 -20 -20 -20 -20 -20 -20 -20 -20 -20 -20 -20 -20 -20 -20 -20 -20 -20 -20 -20 -20 -20 -20 -20 -20 -20 -20 -20 -20 -20 -20 -20 -20 -20
4 14 16 17 15 2 -10 5 17 -17 -20 -20 -20 -20 -20 -14 -20 -20 -20 -20 -20 -20 -20 -20 -20 -20 -20 -20 -20 -20 -20 -20 -20 -20 -20 -20 -20 -20 -20 -20 -20 -20 -20 -20
-8 -14 -15 12 23 19 11 -1 13 -15 -20 -20 -20 -20 -20 -18 -11 -20 -20 -20 -20 -20 -20 -20 -20 -20 -20 -20 -20 -20 -20 -20 -20 -20 -20 -20 -20 -20 -20 -20 -20 -20 -20 -20
3 3 -10 -1 17 3 2 12 -0 -20 -20 -20 -20 -20 -20 11 4 -16 -20 -20 -20 -20 -20 -20 -20 -20 -20 -20 -20 -20 -20 -20 -20 -20 -20 -20 -20 -20 -20 -20 -20 -20 -20 -20
-4 9 20 -5 10 14 -9 -15 -20 -20 -20 -20 -20 -20 -20 3 17 11 -20 -20 -20 -20 -20 -20 -20 -20 -20 -20 -20 -20 -20 -20 -20 -20 -20 -20 -20 -20 -20 -20 -20 -20 -20 -20
-12 24 21 21 -17 -15 -6 -17 -14 -20 -20 -20 -20 -20 -9 2 17 17 -19 -20 -20 -20 -20 -20 -20 -20 -20 -20 -20 -20 -20 -20 -20 -20 -20 -20 -20 -20 -20 -20 -20 -20 -20 -20
22 7 15 3 -0 -20 -20 -20 -20 -20 -20 -20 -20 -20 -5 8 12 19 6 -20 -20 -20 -20 -20 15 -18 -20 -20 -20 -20 -20 -20 -20 -20 -20 -20 -20 -20 -20 -20 -20 -20 -20 -20
19 7 -18 -20 -20 -20 -20 -20 -20 -20 -20 -20 -20 -20 -20 -5 16 11 8 -10 -20 -20 -20 -18 21 15 -20 -20 -20 -20 -20 -20 -20 -20 -20 -20 -20 -20 -20 -20 -20 -20 -20 -20
27 4 5 -20 -20 -20 -20 -20 -20 -20 -20 -20 -20 -20 -20 -17 3 -1 -14 -20 -20 -20 -20 -17 21 12 -20 -20 -20 -20 -20 -20 -20 -20 -20 -20 -20 -20 -20 -20 -20 -20 -20 -20
23 8 -19 -20 -20 -20 -20 -20 -20 -20 -20 -20 -10 -19 -20 -20 -20 -20 -20 -20 -20 -20 -20 -10 13 11 -3 -20 -20 -20 -20 -20 -20 -20 -20 -20 -20 -20 -20 -20 -20 -20 -20 -20

GFSNW_prec_radar_126.txt.gz
Reflectivity
-20 -1 -2 4 12 20 7 -20 -11 -20 -20 -20 -20 -20 -20 -20 -20 -20 -20 -20 -20 -20 -20 -20 -20 -20 -20 -20 -20 -20 -20 -20 -20 -15 -3 24 39 24 3 -1 1 9 14 27
-20 -10 15 14 11 9 -20 -18 -16 -20 -20 -5 -20 -20 -20 -20 -20 -20 -20 -20 -20 -20 -20 -20 -20 -20 -20 -20 -20 -20 -20 -20 -20 -20 12 13 29 23 2 8 17 -1 18 30
-20 -20 -20 2 -6 3 -18 -12 -20 -20 -20 -20 -20 -20 -20 -20 -20 -20 -20 -20 -20 -20 -20 -20 -20 -20 -20 -20 -20 -20 -20 -20 -20 -17 -1 19 -6 23 14 5 3 -10 24 25
-20 -20 -20 -20 -20 -20 -20 -20 -18 -20 -20 -20 -20 -20 -20 -20 -20 -20 -20 -20 -20 -20 -20 -20 -20 -20 -20 -20 -20 -20 -20 -20 -20 -20 -20 -20 -18 8 15 9 2 17 15 24
-20 -20 -20 -20 -20 -20 -20 -20 -20 -20 -20 -20 -20 -20 -20 -20 -20 -20 -20 -20 -20 -20 -20 -20 -20 -20 -20 -20 -20 -20 -20 -20 -20 -20 -20 -20 -20 -20 -20 7 -13 22 9 25
-20 -20 -20 -12 -19 -20 -20 -20 -20 -20 -20 -20 -20 -20 -20 -20 -20 -20 -20 -20 -20 -20 -20 -20 -20 -20 -20 -20 -20 -20 -20 -20 -20 -20 -20 -20 -20 -20 -20 -20 -20 1 6 -3
-2 -20 -20 -20 -20 -20 -20 -20 -20 -20 -20 -20 -20 -20 -20 -20 -20 -20 -20 -20 -20 -20 -20 -20 -20 -20 -20 -20 -20 -20 -20 -20 -20 -20 -20 -20 -20 -20 -20 -20 -20 -19 -0 -19
-20 -20 -20 -20 -20 -20 -20 -20 -20 -20 -20 -20 -20 -20 -20 -20 -20 -20 -20 -20 -20 -20 -20 -20 -20 -20 -20 -20 -20 -20 -20 -20 -20 -20 -20 -20 -20 -20 -20 -20 -20 -20 -20 -20
-9 -20 -20 -20 -20 -20 -20 -20 -20 -20 -20 -20 -20 -20 -20 -20 -20 -20 -20 -20 -20 -20 -20 -20 -20 -20 -20 -20 -20 -20 -20 -20 -20 -20 -20 -20 -20 -20 -20 -20 -20 -20 -20 -20
-20 -15 -15 -20 -20 -20 -20 -20 -20 -20 -20 -20 -20 -20 -20 -20 -20 -20 -20 -20 -20 -20 -20 -20 -20 -20 -20 -20 -20 -20 -20 -20 -20 -20 -20 -20 -20 -20 -20 -20 -20 -20 -20 -20
-20 -20 -20 -20 -20 -20 -20 -20 -20 -20 -20 -20 -20 -20 -20 -20 -20 -20 -20 -20 -20 -20 -20 -20 -20 -20 -20 -20 -20 -20 -20 -20 -20 -20 -20 -20 -20 -20 -20 -20 -20 -20 -20 -20
-20 -20 -20 2 -20 -20 -20 -20 -20 -20 -20 -20 -20 -20 -20 -20 -20 -20 -20 -20 -20 -20 -20 -20 -20 -20 -20 -20 -20 -20 -20 -20 -20 -20 -20 -20 -20 -20 -20 -20 -20 -20 -20 -20
-20 -20 -20 -15 2 -4 -0 -19 -20 -20 -20 -20 -20 -20 -20 -20 -20 -20 -20 -20 -20 -20 -20 -20 -20 -20 -20 -20 -20 -20 -20 -20 -20 -20 -20 -20 -20 -20 -20 -20 -20 -20 -20 -20
-20 -20 -20 -8 -20 10 -8 -20 -20 -20 -20 -20 -20 -20 -20 -20 -20 -20 -20 -20 -20 -20 -20 -20 -20 -20 -20 -20 -20 -20 -20 -20 -20 -20 -20 -20 -20 -20 -20 -20 -20 -20 -20 -20
-20 -20 -20 -20 -10 12 1 -20 -20 -20 -20 -20 -20 -20 -20 -20 -20 -20 -20 -20 -20 -20 -20 -20 -20 -20 -20 -20 -20 -20 -20 -20 -20 -20 -20 -20 -20 -20 -20 -20 -20 -20 -20 -20
-20 -20 -20 -20 -20 -7 -6 -19 -20 -20 -20 -20 -20 -20 -20 -20 -20 -20 -20 -20 -20 -20 -20 -20 -20 -20 -20 -20 -20 -20 -20 -20 -20 -20 -20 -20 -20 -20 -20 -20 -20 -20 -20 -20
-20 -20 -20 11 -18 -8 -20 -20 -20 -20 -20 -20 -20 -20 -20 -20 -20 -20 -20 -20 -20 -20 -20 -20 -20 -20 -20 -20 -20 -20 -20 -20 -20 -20 -20 -20 -20 -20 -20 -20 -20 -20 -20 -20
-20 -20 -20 3 12 9 5 -20 -13 -20 -20 -20 -20 -20 -20 -20 -15 -20 -20 -20 -20 -20 -20 -20 -20 -20 -20 -20 -20 -20 -20 -20 -20 -20 -20 -20 -20 -20 -20 -20 -20 -20 -20 -20
-20 -9 -17 3 11 -3 -13 -16 7 0 -15 -20 -20 -20 -20 -20 -14 2 -12 -20 -20 -20 -20 -20 -20 -20 -20 -20 -20 -20 -20 -20 -20 -20 -20 -20 -20 -20 -20 -20 -20 -20 -20 -20
-1 -8 -18 15 8 9 6 -10 -13 -2 -8 -18 -20 -20 -20 -20 -20 11 9 -3 -20 -20 -20 -20 -20 -20 -20 -20 -20 -20 -20 -20 -20 -20 -20 -20 -20 -20 -20 -20 -20 -20 -20 -20
4 -1 -17 -13 -17 -18 -15 -17 -8 -17 -6 -20 -20 -20 -20 -20 -20 -0 16 -7 -1 -20 -20 -20 -20 -20 -20 -20 -20 -20 -20 -20 -20 -20 -20 -20 -20 -20 -20 -20 -20 -20 -20 -20
-20 -8 4 -19 -20 4 -9 -17 -11 -8 -19 -20 -20 -20 -20 -20 -20 -20 10 16 10 -0 -20 -20 -20 2 -20 -20 -20 -20 -20 -20 -20 -20 -20 -20 -20 -20 -20 -20 -20 -20 -20 -20
2 -12 -7 1 -20 -10 7 -18 -20 -20 -20 -20 -20 -20 -20 -20 -20 -20 -5 15 9 -18 -20 -20 -20 10 -9 -20 -20 -20 -20 -20 -20 -20 -20 -20 -20 -20 -20 -20 -20 -20 -20 -20
4 -14 -2 -12 -20 -20 -20 -20 -20 -20 -20 -20 -20 -20 -20 -20 -20 -20 -20 -14 -8 -20 -20 -20 -20 12 9 -6 -20 -20 -20 -20 -20 -20 -20 -20 -20 -20 -20 -20 -20 -20 -20 -20
17 12 -15 -20 -20 -20 -20 -20 -20 -20 -20 -20 -20 -20 -20 -20 -20 -20 -20 -20 -20 -20 -20 -20 -20 10 18 11 -17 -20 -20 -20 -20 -20 -20 -20 -20 -20 -20 -20 -20 -20 -20 -20
6 11 -20 -20 -20 -20 -20 -20 -20 -20 -20 -20 -20 -20 -20 -20 -20 -20 -20 -20 -20 -20 -20 -20 -17 -4 17 15 -20 -20 -20 -20 -20 -20 -20 -20 -20 -20 -20 -20 -20 -20 -20 -20
19 5 -20 -20 -20 -20 -20 -20 -20 -20 -20 -20 -20 -14 -20 -20 -20 -20 -20 -20 -20 -20 -4 8 -7 6 12 13 10 -19 -20 -20 -20 -20 -20 -20 -20 -20 -20 -20 -20 -20 -20 -20

GFSNW_prec_radar_129.txt.gz
Reflectivity
-20 -20 -20 -20 -20 -19 -20 -20 -20 -20 -20 -20 -20 -20 -20 -20 -20 -20 -20 -20 -20 -20 -20 -20 -20 -20 -20 -20 -20 -20 -20 -20 -20 -20 -20 17 33 27 24 13 15 -16 -13 21
-20 -20 -20 -20 -20 -20 -20 -20 -20 -20 -20 -20 -20 -20 -20 -20 -20 -20 -20 -20 -20 -20 -20 -20 -20 -20 -20 -20 -20 -20 -20 -20 -20 -20 -20 -20 19 29 24 19 27 -11 6 26
-1 -20 -20 -20 -20 -20 -20 -20 -20 -20 -20 -20 -20 -20 -20 -20 -20 -20 -20 -20 -20 -20 -20 -20 -20 -20 -20 -20 -20 -20 -20 -20 -20 -20 -6 -17 -20 28 29 10 -1 10 18 22
-20 -20 -20 -20 -20 -20 -20 -20 -20 -20 -20 -20 -20 -20 -20 -20 -20 -20 -20 -20 -20 -20 -20 -20 -20 -20 -20 -20 -20 -20 -20 -20 -20 -20 -20 -20 -20 -18 2 20 20 18 24 16
-20 -20 -20 -20 -20 -20 -20 -20 -20 -20 -20 -20 -20 -20 -20 -20 -20 -20 -20 -20 -20 -20 -20 -20 -20 -20 -20 -20 -20 -20 -20 -20 -20 -20 -20 -20 -20 -20 -20 -20 14 18 15 33
10 -20 -20 -20 -20 -20 -20 -20 -20 -20 -20 -20 -20 -20 -20 -20 -20 -20 -20 -20 -20 -20 -20 -20 -20 -20 -20 -20 -20 -20 -20 -20 -20 -20 -20 -20 -20 -20 -20 -20 -19 21 -1 24
6 -20 -20 -20 -20 -20 -20 -20 -20 -20 -20 -20 -20 -20 -20 -20 -20 -20 -20 -20 -20 -20 -20 -20 -20 -20 -20 -20 -20 -20 -20 -20 -20 -20 -20 -20 -20 -20 -20 -8 -20 -13 -18 4
-20 -20 -20 -20 -20 -20 -20 -20 -20 -20 -20 -20 -20 -20 -20 -20 -20 -20 -20 -20 -20 -20 -20 -20 -20 -20 -20 -20 -20 -20 -20 -20 -20 -20 -20 -20 -20 -20 -20 -20 -20 -20 -20 -20
-20 -3 -20 -20 -20 -20 -20 -20 -20 -20 -20 -20 -20 -20 -20 -20 -20 -20 -20 -20 -20 -20 -20 -20 -20 -20 -20 -20 -20 -20 -20 -20 -20 -20 -20 -20 -20 -20 -20 -20 -20 -20 -20 -20
-20 -20 -20 -20 -20 -20 -20 -20 -20 -20 -20 -20 -20 -20 -20 -20 -20 -20 -20 -20 -20 -20 -20 -20 -20 -20 -20 -20 -20 -20 -20 -20 -20 -20 -20 -20 -20 -20 -20 -20 -20 -20 -20 -20
-20 -20 -20 -20 -20 -20 -20 -20 -20 -20 -20 -20 -20 -20 -20 -20 -20 -20 -20 -20 -20 -20 -20 -20 -20 -20 -20 -20 -20 -20 -20 -20 -20 -20 -20 -20 -20 -20 -20 -20 -20 -20 -20 -20
-20 -20 -20 -20 -4 -20 -20 -20 -20 -20 -20 -20 -20 -20 -20 -20 -20 -20 -20 -20 -20 -20 -20 -20 -20 -20 -20 -20 -20 -20 -20 -20 -20 -20 -20 -20 -20 -20 -20 -20 -20 -20 -20 -20
-20 -20 -20 -20 10 -20 -20 -20 -20 -20 -20 -20 -20 -20 -20 -20 -20 -20 -20 -20 -20 -20 -20 -20 -20 -20 -20 -20 -20 -20 -20 -20 -20 -20 -20 -20 -20 -20 -20 -20 -20 -20 -20 -20
-20 -20 -20 -20 -20 -18 -20 -20 -20 -20 -20 -20 -20 -20 -20 -20 -20 -20 -20 -20 -20 -20 -20 -20 -20 -20 -20 -20 -20 -20 -20 -20 -20 -20 -20 -20 -20 -20 -20 -20 -20 -20 -20 -20
-20 -20 -20 -20 -20 -15 -19 -20 -20 -20 -20 -20 -20 -20 -20 -20 -20 -20 -20 -20 -20 -20 -20 -20 -20 -20 -20 -20 -20 -20 -20 -20 -20 -20 -20 -20 -20 -20 -20 -20 -20 -20 -20 -20
-20 -20 -20 -20 -13 -15 -20 -20 -20 -20 -20 -20 -20 -20 -20 -20 -20 -20 -20 -20 -20 -20 -20 -20 -20 -20 -20 -20 -20 -20 -20 -20 -20 -20 -20 -20 -20 -20 -20 -20 -20 -20 -20 -20
-20 -20 -20 8 3 -18 -20 -20 -20 -20 -20 -20 -20 -20 -20 -20 -20 -20 -20 -8 -15 -20 -20 -20 -20 -20 -20 -20 -20 -20 -20 -20 -20 -20 -20 -20 -20 -20 -20 -20 -20 -20 -20 -20
-20 -20 -20 -5 12 14 -2 -19 -5 -20 -20 -20 -20 -20 -20 -20 -20 -20 -20 -20 -9 -12 -20 -20 -20 -20 -20 -20 -20 -20 -20 -20 -20 -20 -20 -20 -20 -20 -20 -20 -20 -20 -20 -20
-20 -8 -12 -5 1 3 6 12 -10 -7 -9 -20 -20 -20 -20 -20 -20 -20 -20 -20 -20 -16 -15 -20 -20 -20 -19 -19 -20 -20 -20 -20 -20 -20 -20 -20 -20 -20 -20 -20 -20 -20 -20 -20
-7 -11 4 -15 -6 12 9 -10 -14 -19 -12 -8 -20 -20 -20 -20 -20 -20 -20 -20 -20 -20 -20 -20 -20 -20 -16 -19 -20 -20 -20 -20 -20 -20 -20 -20 -20 -20 -20 -20 -20 -20 -20 -20
-20 -20 -20 -20 -17 -15 -20 -19 -9 -13 -18 -17 -20 -20 -20 -20 -20 -20 -20 -20 -20 -20 -20 -20 -20 -19 -4 1 -20 -20 -20 -20 -20 -20 -20 -20 -20 -20 -20 -20 -20 -20 -20 -20
-20 -20 -19 -20 -20 -20 -20 -20 -20 -16 -17 -6 -20 -20 -20 -20 -20 -20 -20 -20 -20 -20 -20 -20 -20 -18 8 -4 -20 -20 -20 -20 -20 -20 -20 -20 -20 -20 -20 -20 -20 -20 -20 -20
4 -11 -20 -20 -20 -2 2 -20 -20 -20 -20 -20 -20 -20 -20 -20 -20 -20 -20 -20 -20 -20 -20 -20 -20 -19 11 3 -14 -20 -20 -20 -20 -20 -20 -20 -20 -20 -20 -20 -20 -20 -20 -20
17 -12 -19 -20 -20 -20 -20 -20 -20 -20 -20 -20 -20 -20 -20 -20 -20 -20 -20 -20 -20 -20 -20 -20 -20 -16 12 11 -17 -20 -20 -20 -20 -20 -20 -20 -20 -20 -20 -20 -20 -20 -20 -20
-5 -20 -20 -20 -20 -20 -20 -20 -20 -20 -20 -20 -20 -20 -20 -20 -20 -20 -20 -20 -20 -20 -20 -20 -20 -20 -6 13 11 -20 -20 -20 -20 -20 -20 -20 -20 -20 -20 -20 -20 -20 -20 -20
11 -14 -13 -20 -20 -20 -20 -20 -20 -20 -20 -20 -20 -20 -20 -20 -20 -20 -20 -20 -20 -20 -20 -20 -20 -20 -20 -13 11 7 -20 -20 -20 -20 -20 -20 -20 -20 -20 -20 -20 -20 -20 -20
-19 -19 -20 -20 -20 -20 -20 -20 -20 -20 -20 -20 -20 -20 -20 -20 -20 -20 -20 -20 -20 -20 -20 -20 -20 -20 -20 -20 -15 13 9 -20 -20 -20 -20 -20 -20 -20 -20 -20 -20 -20 -20 -20

GFSNW_prec_radar_132.txt.gz
Reflectivity
-19 -20 -20 -20 -20 -20 -20 -20 -20 -20 -20 -20 -20 -20 -20 -20 -20 -20 -20 -20 -20 -20 -20 -20 -20 -20 -20 -20 -20 -20 -20 -20 -20 -20 -20 -20 -2 28 14 0 9 4 1 13
-20 -20 -20 -20 -20 -20 -20 -20 -20 -20 -20 -20 -20 -20 -20 -20 -20 -20 -20 -20 -20 -20 -20 -20 -20 -20 -20 -20 -20 -20 -20 -20 -20 -20 -20 -20 -20 20 21 10 -1 -7 15 21
-20 -20 -20 -20 -20 -20 -20 -20 -20 -20 -20 -20 -20 -20 -20 -20 -20 -20 -20 -20 -20 -20 -20 -20 -20 -20 -20 -20 -20 -20 -20 -20 -20 -13 -8 -15 -20 -20 24 6 4 8 17 18
-20 -20 -20 -20 -20 -20 -20 -20 -20 -20 -20 -20 -20 -20 -20 -20 -20 -20 -20 -20 -20 -20 -20 -20 -20 -20 -20 -20 -20 -20 -20 -20 -20 -20 -20 -20 -20 -20 -1 11 -4 20 20 12
-20 -20 -20 -20 -20 -20 -20 -20 -20 -20 -20 -20 -20 -20 -20 -20 -20 -20 -20 -20 -20 -20 -20 -20 -20 -20 -20 -20 -20 -20 -20 -20 -20 -20 -20 -20 -20 -20 -20 20 -4 9 1 13
-20 -20 -20 -20 -20 -20 -20 -20 -20 -20 -20 -20 -20 -20 -20 -20 -20 -20 -20 -20 -20 -20 -20 -20 -20 -20 -20 -20 -20 -20 -20 -20 -20 -20 -20 -20 -20 -20 -20 -0 13 19 -7 25
-20 -20 -20 -20 -20 -20 -20 -20 -20 -20 -20 -20 -20 -20 -20 -20 -20 -20 -20 -20 -20 -20 -20 -20 -20 -20 -20 -20 -20 -20 -20 -20 -20 -20 -20 -20 -20 -20 -20 -9 13 -20 4 6
-12 -20 -20 -20 -20 -20 -20 -20 -20 -20 -20 -20 -20 -20 -20 -20 -20 -20 -20 -20 -20 -20 -20 -20 -20 -20 -20 -20 -20 -20 -20 -20 -20 -20 -20 -20 -20 -20 -20 -20 -20 -20 -18 -19
-20 -4 8 -20 -20 -20 -20 -20 -20 -20 -20 -20 -20 -20 -20 -20 -20 -20 -20 -20 -20 -20 -20 -20 -20 -20 -20 -20 -20 -20 -20 -20 -20 -20 -20 -20 -20 -20 -20 -20 -20 -20 -20 -20
-20 -20 -20 -5 -20 -20 -20 -20 -20 -20 -20 -20 -20 -20 -20 -20 -20 -20 -20 -20 -20 -20 -20 -20 -20 -20 -20 -20 -20 -20 -20 -20 -20 -20 -20 -20 -20 -20 -20 -20 -20 -20 -20 -20
-20 -20 -20 -20 -0 -20 -20 -20 -20 -20 -20 -20 -20 -20 -20 -20 -20 -20 -20 -20 -20 -20 -20 -20 -20 -20 -20 -20 -20 -20 -20 -20 -20 -20 -20 -20 -20 -20 -20 -20 -20 -20 -20 -20
-20 -20 -20 -20 7 -19 -20 -20 -20 -20 -20 -20 -20 -20 -20 -20 -20 -20 -20 -20 -20 -20 -20 -20 -20 -20 -20 -20 -20 -20 -20 -20 -20 -20 -20 -20 -20 -20 -20 -20 -20 -20 -20 -20
-20 -20 -20 -20 5 15 11 -20 -20 -20 -20 -20 -20 -20 -20 -20 -20 -20 -20 -20 -20 -20 -20 -20 -20 -20 -20 -20 -20 -20 -20 -20 -20 -20 -20 -20 -20 -20 -20 -20 -20 -20 -20 -20
-20 -20 -20 -20 -20 -20 -16 -20 -20 -20 -20 -20 -20 -20 -20 -20 -20 -20 -20 -20 -20 -20 -20 -20 -20 -20 -20 -20 -20 -20 -20 -20 -20 -20 -20 -20 -20 -20 -20 -20 -20 -20 -20 -20
-7 -20 -20 -20 -20 -20 -17 -20 -20 -20 -20 -20 -20 -20 -20 -20 -20 -20 -20 -20 -20 -20 -20 -20 -20 -20 -20 -20 -20 -20 -20 -20 -20 -20 -20 -20 -20 -20 -20 -20 -20 -20 -20 -20
2 -18 -20 -20 -20 2 5 14 -20 -20 -20 -20 -20 -20 -20 -20 -20 -20 -20 -20 -20 -20 -20 -20 -20 -20 -20 -20 -20 -20 -20 -20 -20 -20 -20 -20 -20 -20 -20 -20 -20 -20 -20 -20
-20 -20 -20 -5 -20 -20 -19 -20 -20 -20 -20 -20 -20 -20 -20 -20 -20 -20 -20 -20 -20 -20 -20 -20 -20 -20 -20 -20 -20 -20 -20 -20 -20 -20 -20 -20 -20 -20 -20 -20 -20 -20 -20 -20
-14 -19 -20 -6 1 -13 -20 -20 -8 -3 -20 -20 -20 -20 -20 -20 -20 -20 -20 -20 -20 -20 -20 -20 -20 -20 -20 -16 -16 -20 -20 -20 -20 -20 -20 -20 -20 -20 -20 -20 -20 -20 -20 -20
11 6 1 -4 -19 3 -11 -19 2 5 0 -20 -20 -20 -20 -20 -20 -20 -20 -20 -20 -20 -20 -20 -20 -20 -20 -15 -7 -17 -20 -20 -20 -20 -20 -20 -20 -20 -20 -20 -20 -20 -20 -20
19 6 -9 -17 -4 -8 -20 -11 -17 -11 -11 0 -20 -20 -20 -20 -20 -20 -20 -20 -20 -20 -20 -20 -20 -20 -17 2 -20 -10 -20 -20 -20 -20 -20 -20 -20 -20 -20 -20 -20 -20 -20 -20
17 21 25 -5 -9 -7 -20 -19 -1 -12 -20 -20 -20 -20 -20 -20 -20 -20 -20 -20 -20 -20 -20 -20 -20 -20 -16 1 8 -20 -20 -20 -20 -20 -20 -20 -20 -20 -20 -20 -20 -20 -20 -20
20 30 26 20 8 -16 -11 -10 10 -8 -20 -20 -20 -20 -20 -20 -20 -20 -20 -20 -20 -20 -20 -20 -20 -20 -20 -12 4 5 -20 -20 -20 -20 -20 -20 -20 -20 -20 -20 -20 -20 -20 -20
34 34 26 10 -3 7 -3 4 7 2 -20 -20 -20 -20 -20 -20 -20 -20 -20 -20 -20 -20 -20 -20 -20 -20 -20 -20 -16 6 -4 -20 -20 -20 -20 -20 -20 -20 -20 -20 -20 -20 -20 -20
33 21 10 -13 -20 -20 -7 -2 12 12 -20 -20 -20 -20 -20 -20 -20 -20 -20 -20 -20 -20 -20 -20 -20 -20 -20 -20 -20 -16 2 -18 -20 -20 -20 -20 -20 -20 -20 -20 -20 -20 -20 -20
28 16 -9 -20 -20 -4 12 11 13 8 -20 -20 -20 -20 -20 -20 -20 -20 -20 -20 -20 -20 -20 -20 -20 -20 -20 -20 -20 -20 -20 -20 -20 -20 -20 -20 -20 -20 -20 -20 -20 -20 -20 -20
30 14 -16 -20 -14 5 12 9 6 -18 -20 -20 -20 -20 -20 -20 -20 -20 -20 -20 -20 -20 -20 -20 -20 -20 -20 -20 -20 -20 -20 -20 -11 -20 -20 -20 -20 -20 -20 -20 -20 -20 -20 -20
21 7 -15 -20 -3 10 10 12 12 5 -20 -20 -20 -20 -20 -20 -20 -20 -20 -20 -20 -20 -20 -20 -20 -20 -20 -20 -20 -20 -20 -20 -17 -11 -20 -20 -20 -20 -20 -20 -20 -20 -20 -20

GFSNW_prec_radar_135.txt.gz
Reflectivity
-20 -20 -20 -20 -20 -20 -20 -20 -20 -20 -20 -20 -20 -20 -20 -20 -20 -20 -20 -20 -20 -20 -20 -20 -20 -20 -20 -20 -20 -20 -20 -20 -20 -20 -20 -20 -19 30 17 -2 -1 6 2 11
-20 -20 -20 -20 -20 -20 -20 -20 -20 -20 -20 -20 -20 -20 -20 -20 -20 -20 -20 -20 -20 -20 -20 -20 -20 -20 -20 -20 -20 -20 -20 -20 -20 -20 -20 -20 -20 -20 28 20 17 -9 18 20
-20 -20 -20 -20 -20 -20 -20 -20 -20 -20 -20 -20 -20 -20 -20 -20 -20 -20 -20 -20 -20 -20 -20 -20 -20 -20 -20 -20 -20 -20 -20 -20 -20 -20 -20 -16 -20 -13 -8 17 1 -4 18 22
-20 -20 -20 -20 -20 -20 -20 -20 -20 -20 -20 -20 -20 -20 -20 -20 -20 -20 -20 -20 -20 -20 -20 -20 -20 -20 -20 -20 -20 -20 -20 -20 -20 -20 -20 -20 -20 -20 -20 11 15 15 23 11
0 -20 -20 -20 -20 -20 -20 -20 -20 -20 -20 -20 -20 -20 -20 -20 -20 -20 -20 -20 -20 -20 -20 -20 -20 -20 -20 -20 -20 -20 -20 -20 -20 -20 -20 -20 -20 -20 -20 -14 4 8 24 10
-20 -20 -20 -20 -20 -20 -20 -20 -20 -20 -20 -20 -20 -20 -20 -20 -20 -20 -20 -20 -20 -20 -20 -20 -20 -20 -20 -20 -20 -20 -20 -20 -20 -20 -20 -20 -20 -20 -12 -15 -15 3 11 12
-20 -20 -20 -20 -20 -20 -20 -20 -20 -20 -20 -20 -20 -20 -20 -20 -20 -20 -20 -20 -20 -20 -20 -20 -20 -20 -20 -20 -20 -20 -20 -20 -20 -20 -20 -20 -20 -20 -9 -9 -8 15 -6 4
-20 -8 -20 -20 -20 -20 -20 -20 -20 -20 -20 -20 -20 -20 -20 -20 -20 -20 -20 -20 -20 -20 -20 -20 -20 -20 -20 -20 -20 -20 -20 -20 -20 -20 -20 -20 -20 -20 -20 -10 2 -17 -9 3
-20 -20 4 -20 -20 -20 -20 -20 -20 -20 -20 -20 -20 -20 -20 -20 -20 -20 -20 -20 -20 -20 -20 -20 -20 -20 -20 -20 -20 -20 -20 -20 -20 -20 -20 -20 -20 -20 -20 -20 -20 -20 -20 -19
-20 -20 -20 -20 -20 -20 -20 -20 -20 -20 -20 -20 -20 -20 -20 -20 -20 -20 -20 -20 -20 -20 -20 -20 -20 -20 -20 -20 -20 -20 -20 -20 -20 -20 -20 -20 -20 -20 -20 -20 -20 -20 -20 -20
-20 -20 -20 -20 -9 -6 -20 -20 -20 -20 -20 -20 -20 -20 -20 -20 -20 -20 -20 -20 -20 -20 -20 -20 -20 -20 -20 -20 -20 -20 -20 -20 -20 -20 -20 -20 -20 -20 -20 -20 -20 -20 -20 -20
-20 -20 -20 -20 -20 13 -20 -20 -20 -20 -20 -20 -20 -20 -20 -20 -20 -20 -20 -20 -20 -20 -20 -20 -20 -20 -20 -20 -20 -20 -20 -20 -20 -20 -20 -20 -20 -20 -20 -20 -20 -20 -20 -20
-20 -20 -20 -20 -19 13 8 -7 -20 -20 -20 -20 -20 -20 -20 -20 -20 -20 -20 -20 -20 -20 -20 -20 -20 -20 -20 -20 -20 -20 -20 -20 -20 -20 -20 -20 -20 -20 -20 -20 -20 -20 -20 -20
-20 -20 -20 -20 -20 -13 -2 -20 -20 -20 -20 -20 -20 -20 -20 -20 -20 -20 -20 -20 -20 -20 -20 -20 -20 -20 -20 -20 -20 -20 -20 -20 -20 -20 -20 -20 -20 -20 -20 -20 -20 -20 -20 -20
-17 -15 -20 -20 -20 -20 -19 -20 -20 -20 -20 -20 -20 -20 -20 -20 -20 -20 -20 -20 -20 -20 -20 -20 -20 -20 -20 -20 -20 -20 -20 -20 -20 -20 -20 -20 -20 -20 -20 -20 -20 -20 -20 -20
-20 -20 -20 -20 -20 -20 -14 -6 -20 -20 -20 -20 -20 -20 -20 -20 -20 -20 -20 -20 -20 -20 -20 -20 -20 -20 -20 -20 -20 -20 -20 -20 -20 -20 -20 -20 -20 -20 -20 -20 -20 -20 -20 -20
-6 -16 -20 -20 -10 -20 -20 -20 -16 -2 -20 -20 -20 -20 -20 -20 -20 -20 -20 -20 -20 -20 -20 -20 -20 -20 -20 -20 -20 -20 -20 -20 -20 -20 -20 -20 -20 -20 -20 -20 -20 -20 -20 -20
20 20 13 6 -7 5 -6 -20 -20 -2 -12 -17 -20 -20 -20 -20 -20 -20 -20 -20 -20 -20 -20 -20 -20 -20 -20 -20 -20 -20 -20 -20 -20 -20 -20 -20 -20 -20 -20 -20 -20 -20 -20 -20
27 18 17 7 -6 -12 -20 -20 -19 -15 11 -10 -20 -20 -20 -20 -20 -20 -20 -20 -20 -20 -20 -20 -20 -20 -20 -20 -20 -20 -20 -20 -20 -20 -20 -20 -20 -20 -20 -20 -20 -20 -20 -20
32 26 17 6 -19 21 9 -8 -10 -11 8 12 -17 -20 -20 -20 -20 -20 -20 -20 -20 -20 -20 -20 -20 -20 -20 -20 -20 -20 -20 -20 -20 -20 -20 -20 -20 -20 -20 -20 -20 -20 -20 -20
29 26 25 17 22 27 18 -7 -16 -12 8 -2 -17 -20 -20 -20 -20 -20 -20 -20 -20 -20 -20 -20 -20 -20 -20 -20 -20 -20 -20 -20 -20 -20 -20 -20 -20 -20 -20 -20 -20 -20 -20 -20
17 18 30 33 31 27 2 -4 -20 6 2 -19 -20 -20 -20 -20 -20 -20 -20 -20 -20 -20 -20 -20 -20 -20 -20 -20 -20 -20 -20 -20 -20 -20 -20 -20 -20 -20 -20 -20 -20 -20 -20 -20
29 34 30 25 18 13 1 -13 -2 17 6 -20 -14 -20 -20 -20 -20 -20 -20 -20 -20 -20 -20 -20 -20 -20 -20 -20 -20 -20 -20 -20 -20 -20 -20 -20 -20 -20 -20 -20 -20 -20 -20 -20
33 28 23 9 -9 -20 -20 -20 -3 10 -19 1 5 -20 -20 -20 -20 -20 -20 -20 -20 -20 -20 -20 -20 -20 -20 -20 -20 -20 -20 -20 -20 -20 -20 -20 -20 -20 -20 -20 -20 -20 -20 -20
28 27 14 5 -20 -20 -20 -20 9 16 -2 10 16 -13 -20 -20 -20 -20 -20 -20 -20 -20 -20 -20 -20 -20 -20 -20 -20 -20 -20 -20 -20 -20 -20 -20 -20 -20 -20 -20 -20 -20 -20 -20
30 27 7 -20 -20 -20 -2 7 20 15 -4 9 14 8 -20 -20 -20 -20 -20 -20 -20 -20 -20 -20 -20 -20 -20 -20 -20 -20 -20 -20 -20 -20 -20 -20 -20 -17 -20 -20 -20 -20 -20 -20
27 18 13 -19 4 -20 7 10 17 14 4 -2 15 10 -20 -20 -20 -20 -20 -20 -20 -20 -20 -20 -20 -20 -20 -20 -20 -20 -20 -20 -20 -20 -20 -20 -20 -20 -20 -20 -20 -13 -16 -20